[[{"header":{"parameterUnit":"m.s-1","parameterCategory":1,"la1":30.6,"la2":28.766,"lo1":-90.7593,"lo2":-88.6598,"dy":0.0162,"dx":0.0183,"nx":116,"ny":114,"refTime":"2023-08-02T18:00:00:Z","depth":0,"parameterNumber":2,"parameterNumberName":"U-component_of_WINDS"},"data":[0.0,0.0,0.0,0.0,0.0,0.0,0.0,0.0,0.0,0.0,0.0,0.0,0.0,0.0,0.0,0.0,0.0,0.0,0.0,0.0,0.0,0.0,0.0,0.0,0.0,0.0,0.0,0.0,0.0,0.0,0.0,0.0,0.0,0.0,0.0,0.0,0.0,0.0,0.0,0.0,0.0,0.0,0.0,0.0,0.0,0.0,0.0,0.0,0.0,0.0,0.0,0.0,0.0,0.0,0.0,0.0,0.0,0.0,0.0,0.0,0.0,0.0,0.0,0.0,0.0,0.0,0.0,0.0,0.0,0.0,0.0,0.0,0.0,0.0,0.0,0.0,0.0,0.0,0.0,0.0,0.0,0.0,0.0,0.0,0.0,0.0,0.0,0.0,0.0,0.0,0.0,0.0,0.0,0.0,0.0,0.0,0.0,0.0,0.0,0.0,0.0,0.0,0.0,0.0,0.0,0.0,0.0,0.0,0.0,0.0,0.0,0.0,0.0,0.0,0.0,0.0,0.0,0.0,0.0,0.0,0.0,0.0,0.0,0.0,0.0,0.0,0.0,0.0,0.0,0.0,0.0,0.0,0.0,0.0,0.0,0.0,0.0,0.0,0.0,0.0,0.0,0.0,0.0,0.0,0.0,0.0,0.0,0.0,0.0,0.0,0.0,0.0,0.0,0.0,0.0,0.0,0.0,0.0,0.0,0.0,0.0,0.0,0.0,0.0,0.0,0.0,0.0,0.0,0.0,0.0,0.0,0.0,0.0,0.0,0.0,0.0,0.0,0.0,0.0,0.0,0.0,0.0,0.0,0.0,0.0,0.0,0.0,0.0,0.0,0.0,0.0,0.0,0.0,0.0,0.0,0.0,0.0,0.0,0.0,0.0,0.0,0.0,0.0,0.0,0.0,0.0,0.0,0.0,0.0,0.0,0.0,0.0,0.0,0.0,0.0,0.0,0.0,0.0,0.0,0.0,0.0,0.0,0.0,0.0,0.0,0.0,0.0,0.0,0.0,0.0,0.0,0.0,0.0,0.0,0.0,0.0,0.0,0.0,0.0,0.0,0.0,0.0,0.0,0.0,0.0,0.0,0.0,0.0,0.0,0.0,0.0,0.0,0.0,0.0,0.0,0.0,0.0,0.0,0.0,0.0,0.0,0.0,0.0,0.0,0.0,0.0,0.0,0.0,0.0,0.0,0.0,0.0,0.0,0.0,0.0,0.0,0.0,0.0,0.0,0.0,0.0,0.0,0.0,0.0,0.0,0.0,0.0,0.0,0.0,0.0,0.0,0.0,0.0,0.0,0.0,0.0,0.0,0.0,0.0,0.0,0.0,0.0,0.0,0.0,0.0,0.0,0.0,0.0,0.0,0.0,0.0,0.0,0.0,0.0,0.0,0.0,0.0,0.0,0.0,0.0,0.0,0.0,0.0,0.0,0.0,0.0,0.0,0.0,0.0,0.0,0.0,0.0,0.0,0.0,0.0,0.0,0.0,0.0,0.0,0.0,0.0,0.0,0.0,0.0,0.0,0.0,0.0,0.0,0.0,0.0,0.0,0.0,0.0,0.0,0.0,0.0,0.0,0.0,0.0,0.0,0.0,0.0,0.0,0.0,0.0,0.0,0.0,0.0,0.0,0.0,0.0,0.0,0.0,0.0,0.0,0.0,0.0,0.0,0.0,0.0,0.0,0.0,0.0,0.0,0.0,0.0,0.0,0.0,0.0,0.0,0.0,0.0,0.0,0.0,0.0,0.0,0.0,0.0,0.0,0.0,0.0,0.0,0.0,0.0,0.0,0.0,0.0,0.0,0.0,0.0,0.0,0.0,0.0,0.0,0.0,0.0,0.0,0.0,0.0,0.0,0.0,0.0,0.0,0.0,0.0,0.0,0.0,0.0,0.0,0.0,0.0,0.0,0.0,0.0,0.0,0.0,0.0,0.0,0.0,0.0,0.0,0.0,0.0,0.0,0.0,0.0,0.0,0.0,0.0,0.0,0.0,0.0,0.0,0.0,0.0,0.0,0.0,0.0,0.0,0.0,0.0,0.0,0.0,0.0,0.0,0.0,0.0,0.0,0.0,0.0,0.0,0.0,0.0,0.0,0.0,0.0,0.0,0.0,0.0,0.0,0.0,0.0,0.0,0.0,0.0,0.0,0.0,0.0,0.0,0.0,0.0,0.0,0.0,0.0,0.0,0.0,0.0,0.0,0.0,0.0,0.0,0.0,0.0,0.0,0.0,0.0,0.0,0.0,0.0,0.0,0.0,0.0,0.0,0.0,0.0,0.0,0.0,0.0,0.0,0.0,0.0,0.0,0.0,0.0,0.0,0.0,0.0,0.0,0.0,0.0,0.0,0.0,0.0,0.0,0.0,0.0,0.0,0.0,0.0,0.0,0.0,0.0,0.0,0.0,0.0,0.0,0.0,0.0,0.0,0.0,0.0,0.0,0.0,0.0,0.0,0.0,0.0,0.0,0.0,0.0,0.0,0.0,0.0,0.0,0.0,0.0,0.0,0.0,0.0,0.0,0.0,0.0,0.0,0.0,0.0,0.0,0.0,0.0,0.0,0.0,0.0,0.0,0.0,0.0,0.0,0.0,0.0,0.0,0.0,0.0,0.0,0.0,0.0,0.0,0.0,0.0,0.0,0.0,0.0,0.0,0.0,0.0,0.0,0.0,0.0,0.0,0.0,0.0,0.0,0.0,0.0,0.0,0.0,0.0,0.0,0.0,0.0,0.0,0.0,0.0,0.0,0.0,0.0,0.0,0.0,0.0,0.0,0.0,0.0,0.0,0.0,0.0,0.0,0.0,0.0,0.0,0.0,0.0,0.0,0.0,0.0,0.0,0.0,0.0,0.0,0.0,0.0,0.0,0.0,0.0,0.0,0.0,0.0,0.0,0.0,0.0,0.0,0.0,0.0,0.0,0.0,0.0,0.0,0.0,0.0,0.0,0.0,0.0,0.0,0.0,0.0,0.0,0.0,0.0,0.0,0.0,0.0,0.0,0.0,0.0,0.0,0.0,0.0,0.0,0.0,0.0,0.0,0.0,0.0,0.0,0.0,0.0,0.0,0.0,0.0,0.0,0.0,0.0,0.0,0.0,0.0,0.0,0.0,0.0,0.0,0.0,0.0,0.0,0.0,0.0,0.0,0.0,0.0,0.0,0.0,0.0,0.0,0.0,0.0,0.0,0.0,0.0,0.0,0.0,0.0,0.0,0.0,0.0,0.0,0.0,0.0,0.0,0.0,0.0,0.0,0.0,0.0,0.0,0.0,0.0,0.0,0.0,0.0,0.0,0.0,0.0,0.0,0.0,0.0,0.0,0.0,0.0,0.0,0.0,0.0,0.0,0.0,0.0,0.0,0.0,0.0,0.0,0.0,0.0,0.0,0.0,0.0,0.0,0.0,0.0,0.0,0.0,0.0,0.0,0.0,0.0,0.0,0.0,0.0,0.0,0.0,0.0,0.0,0.0,0.0,0.0,0.0,0.0,0.0,0.0,0.0,0.0,0.0,0.0,0.0,0.0,0.0,0.0,0.0,0.0,0.0,0.0,0.0,0.0,0.0,0.0,0.0,0.0,0.0,0.0,0.0,0.0,0.0,0.0,0.0,0.0,0.0,0.0,0.0,0.0,0.0,0.0,0.0,0.0,0.0,0.0,0.0,0.0,0.0,0.0,0.0,0.0,0.0,0.0,0.0,0.0,0.0,0.0,0.0,0.0,0.0,0.0,0.0,0.0,0.0,0.0,0.0,0.0,0.0,0.0,0.0,0.0,0.0,0.0,0.0,0.0,0.0,0.0,0.0,0.0,0.0,0.0,0.0,0.0,0.0,0.0,0.0,0.0,0.0,0.0,0.0,0.0,0.0,0.0,0.0,0.0,0.0,0.0,0.0,0.0,0.0,0.0,0.0,0.0,0.0,0.0,0.0,0.0,0.0,0.0,0.0,0.0,0.0,0.0,0.0,0.0,0.0,0.0,0.0,0.0,0.0,0.0,0.0,0.0,0.0,0.0,0.0,0.0,0.0,0.0,0.0,0.0,0.0,0.0,0.0,0.0,0.0,0.0,0.0,0.0,0.0,0.0,0.0,0.0,0.0,0.0,0.0,0.0,0.0,0.0,0.0,0.0,0.0,0.0,0.0,0.0,0.0,0.0,0.0,0.0,0.0,0.0,0.0,0.0,0.0,0.0,0.0,0.0,0.0,0.0,0.0,0.0,0.0,0.0,0.0,0.0,0.0,0.0,0.0,0.0,0.0,0.0,0.0,0.0,0.0,0.0,0.0,0.0,0.0,0.0,0.0,0.0,0.0,0.0,0.0,0.0,0.0,0.0,0.0,0.0,0.0,0.0,0.0,0.0,0.0,0.0,0.0,0.0,0.0,0.0,0.0,0.0,0.0,0.0,0.0,0.0,0.0,0.0,0.0,0.0,0.0,0.0,0.0,0.0,0.0,0.0,0.0,0.0,0.0,0.0,0.0,0.0,0.0,0.0,0.0,0.0,0.0,0.0,0.0,0.0,0.0,0.0,0.0,0.0,0.0,0.0,0.0,0.0,0.0,0.0,0.0,0.0,0.0,0.0,0.0,0.0,0.0,0.0,0.0,0.0,0.0,0.0,0.0,0.0,0.0,0.0,0.0,0.0,0.0,0.0,0.0,0.0,0.0,0.0,0.0,0.0,0.0,0.0,0.0,0.0,0.0,0.0,0.0,0.0,0.0,0.0,0.0,0.0,0.0,0.0,0.0,0.0,0.0,0.0,0.0,0.0,0.0,0.0,0.0,0.0,0.0,0.0,0.0,0.0,0.0,0.0,0.0,0.0,0.0,0.0,0.0,0.0,0.0,0.0,0.0,0.0,0.0,0.0,0.0,0.0,0.0,0.0,0.0,0.0,0.0,0.0,0.0,0.0,0.0,0.0,0.0,0.0,0.0,0.0,0.0,0.0,0.0,0.0,0.0,0.0,0.0,0.0,0.0,0.0,0.0,0.0,0.0,0.0,0.0,0.0,0.0,0.0,0.0,0.0,0.0,0.0,0.0,0.0,0.0,0.0,0.0,0.0,0.0,0.0,0.0,0.0,0.0,0.0,0.0,0.0,0.0,0.0,0.0,0.0,0.0,0.0,0.0,0.0,0.0,0.0,0.0,0.0,0.0,0.0,0.0,0.0,0.0,0.0,0.0,0.0,0.0,0.0,0.0,0.0,0.0,0.0,0.0,0.0,0.0,0.0,0.0,0.0,0.0,0.0,0.0,0.0,0.0,0.0,0.0,0.0,0.0,0.0,0.0,0.0,0.0,0.0,0.0,0.0,0.0,0.0,0.0,0.0,0.0,0.0,0.0,0.0,0.0,0.0,0.0,0.0,0.0,0.0,0.0,0.0,0.0,0.0,0.0,0.0,0.0,0.0,0.0,0.0,0.0,0.0,0.0,0.0,0.0,0.0,0.0,0.0,0.0,0.0,0.0,0.0,0.0,0.0,0.0,0.0,0.0,0.0,0.0,0.0,0.0,0.0,0.0,0.0,0.0,0.0,0.0,0.0,0.0,0.0,0.0,0.0,0.0,0.0,0.0,0.0,0.0,0.0,0.0,0.0,0.0,0.0,0.0,0.0,0.0,0.0,0.0,0.0,0.0,0.0,0.0,0.0,0.0,0.0,0.0,0.0,0.0,0.0,0.0,0.0,0.0,0.0,0.0,0.0,0.0,0.0,0.0,0.0,0.0,0.0,0.0,0.0,0.0,0.0,0.0,0.0,0.0,0.0,0.0,0.0,0.0,0.0,0.0,0.0,0.0,0.0,0.0,0.0,0.0,0.0,0.0,0.0,0.0,0.0,0.0,0.0,0.0,0.0,0.0,0.0,0.0,0.0,0.0,0.0,0.0,0.0,0.0,0.0,0.0,0.0,0.0,0.0,0.0,0.0,0.0,0.0,0.0,0.0,0.0,0.0,0.0,0.0,0.0,0.0,0.0,0.0,0.0,0.0,0.0,0.0,0.0,0.0,0.0,0.0,0.0,0.0,0.0,0.0,0.0,0.0,0.0,0.0,0.0,0.0,0.0,0.0,0.0,0.0,0.0,0.0,0.0,0.0,0.0,0.0,0.0,0.0,0.0,0.0,0.4276,0.0,0.0,0.0,0.0,0.0,0.0,0.0,0.0,0.0,0.0,0.0,0.0,0.0,0.0,0.0,0.0,0.0,0.0,0.0,0.0,0.0,0.0,0.0,0.0,0.0,0.0,0.0,0.0,0.0,0.0,0.0,0.0,0.0,0.0,0.0,0.0,0.0,0.0,0.0,0.0,0.0,0.0,0.0,0.0,0.0,0.0,0.0,0.0,0.0,0.0,0.0,0.0,0.0,0.0,0.0,0.0,0.0,0.0,0.0,0.0,0.0,0.0,0.0,0.0,0.0,0.0,0.0,0.0,0.0,0.0,0.0,0.0,0.0,0.0,0.0,0.0,0.0,0.0,0.0,0.0,0.0,0.0,0.0,0.0,0.0,0.0,0.0,0.0,0.0,0.0,0.0,0.0,0.0,0.0,0.0,0.0,0.0,0.0,0.0,0.0,0.0,0.0,0.0,0.0,0.0,0.0,0.0,0.0,0.0,0.0,0.0,0.0,0.0,0.0,0.0,0.0,0.4337,0.0,0.0,0.0,0.0,0.0,0.0,0.0,0.0,0.0,0.0,0.0,0.0,0.0,0.0,0.0,0.0,0.0,0.0,0.0,0.0,0.0,0.0,0.0,0.0,0.0,0.0,0.0,0.0,0.0,0.0,0.0,0.0,0.0,0.0,0.0,0.0,0.0,0.0,0.0,0.0,0.0,0.0,0.0,0.0,0.0,0.0,0.0,0.0,0.0,0.0,0.0,0.0,0.0,0.0,0.0,0.0,0.0,0.0,0.0,0.0,0.0,0.0,0.0,0.0,0.0,0.0,0.0,0.0,0.0,0.0,0.0,0.0,0.0,0.0,0.0,0.0,0.0,0.0,0.0,0.0,0.0,0.0,0.0,0.0,0.0,0.0,0.0,0.0,0.0,0.0,0.0,0.0,0.0,0.0,0.0,0.0,0.0,0.0,0.0,0.0,0.0,0.0,0.0,0.0,0.0,0.0,0.0,0.0,0.4852,0.4852,0.4931,0.5031,0.4999,0.4833,0.4735,0.458,0.4413,0.0,0.0,0.0,0.0,0.0,0.0,0.0,0.0,0.0,0.0,0.0,0.0,0.0,0.0,0.0,0.0,0.0,0.0,0.0,0.0,0.0,0.0,0.0,0.0,0.0,0.0,0.0,0.0,0.0,0.0,0.0,0.0,0.0,0.0,0.0,0.0,0.0,0.0,0.0,-0.2359,-0.2138,-0.2163,-0.2513,-0.2578,0.0,0.0,0.0,0.0,0.0,0.0,0.0,0.0,0.0,0.0,0.0,0.0,0.0,0.0,0.0,0.0,0.0,0.0,0.0,0.0,0.0,0.0,0.0,0.0,0.0,0.0,0.0,0.0,0.0,0.0,0.0,0.0,0.0,0.0,0.0,0.0,0.0,0.0,0.0,0.0,0.0,0.0,0.0,-0.0455,0.0835,0.0,0.0,0.0,0.0,0.0,0.0,0.0,0.0,0.0,0.0,0.0,0.0,0.0,0.4838,0.4894,0.4934,0.5123,0.5298,0.5056,0.5056,0.5298,0.5317,0.5322,0.532,0.5306,0.0,0.4603,0.4768,0.0,0.0,0.0,0.0,0.0,0.0,0.0,0.0,0.0,0.0,0.0,0.0,0.0,0.0,0.0,0.0,0.0,0.0,0.0,0.0,0.0,0.0,0.0,0.0,0.0,0.0,0.0,0.0,0.0,0.0,0.0,0.0,0.0,0.0,0.0,0.0,-0.2087,-0.2172,-0.2275,-0.2059,-0.2158,-0.2579,-0.2649,-0.272,-0.2797,-0.2828,0.0,0.0,0.0,0.0,0.0,0.0,0.0,0.0,0.0,0.0,0.0,0.0,0.0,0.0,0.0,0.0,0.0,0.0,0.0,0.0,0.0,0.0,0.0,0.0,0.0,0.0,0.0,0.0,0.0,0.0,0.0,0.0,0.0,0.0,0.0,0.0,0.0,0.0,0.0,-0.0651,-0.0298,-0.0227,0.0906,0.1429,0.0,0.0,0.0,0.0,0.0,0.0,0.0,0.0,0.0,0.4196,0.4723,0.4856,0.4644,0.4986,0.5204,0.5207,0.5204,0.5288,0.5368,0.5368,0.5407,0.5472,0.5472,0.527,0.4967,0.4986,0.4895,0.4631,0.0,0.0,0.0,0.0,0.3922,0.3828,0.0,0.0,0.0,0.0,0.0,0.0,0.0,0.0,0.0,0.0,0.0,0.0,0.0,0.0,0.0,-0.2987,0.0,0.0,0.0,0.0,0.0,0.0,0.0,0.0,0.0,0.0,0.0,0.0,-0.2169,-0.2192,-0.2222,-0.2083,-0.2191,-0.2622,-0.2657,-0.2886,-0.3165,-0.311,-0.3147,0.0,0.0,0.0,0.0,0.0,0.0,0.0,0.0,0.0,0.0,0.0,0.0,0.0,0.0,0.0,0.0,0.0,0.0,0.0,0.0,0.0,0.0,0.0,0.0,0.0,0.0,0.0,0.0,0.0,0.0,0.0,0.0,0.0,0.0,0.0,0.0,0.0,0.0,-0.0364,-0.0149,-0.0534,0.0759,0.1134,0.0,0.0,0.0,0.0,0.0,0.0,0.3924,0.4342,0.4554,0.4324,0.4852,0.4962,0.4475,0.5018,0.5208,0.5213,0.5295,0.5467,0.5553,0.5467,0.5515,0.5513,0.551,0.5403,0.5277,0.5132,0.5012,0.4829,0.4558,0.4372,0.425,0.4318,0.4268,0.4207,0.0,0.0,0.0,0.0,0.0,0.0,0.0,0.0,0.0,0.0,0.0,0.0,0.0,0.0,-0.1976,-0.1791,-0.1793,-0.1856,0.0,0.0,0.0,0.0,0.0,0.0,0.0,0.0,0.0,-0.2357,-0.2142,-0.2142,-0.2366,-0.226,-0.2307,-0.2627,-0.2757,-0.2857,-0.3025,-0.3326,-0.339,-0.3304,0.0,0.0,0.0,0.0,0.0,0.0,0.0,0.0,0.0,0.0,0.0,0.0,0.0,0.0,0.0,0.0,0.0,0.0,0.0,0.0,0.0,0.0,0.0,0.0,0.0,0.0,0.0,0.0,0.0,0.0,0.0,0.0,0.0,0.0,0.0,0.0,0.0,0.0,0.0,0.1017,0.0766,0.0,0.0,0.0,0.0,0.3742,0.3682,0.3681,0.3851,0.4367,0.4756,0.4776,0.5127,0.5225,0.5052,0.4964,0.5202,0.568,0.5393,0.5581,0.6051,0.5771,0.5682,0.5688,0.54,0.5342,0.5507,0.5285,0.5042,0.4684,0.4342,0.4221,0.4212,0.429,0.429,0.4304,0.0,0.0,0.0,0.0,0.0,0.0,0.0,0.0,0.0,0.0,0.0,0.0,0.0,-0.2372,-0.2671,-0.2668,-0.2604,-0.2671,-0.2931,0.0,0.0,0.0,0.0,0.0,0.0,0.0,-0.1999,-0.2144,-0.2163,-0.22,-0.2398,-0.2207,-0.232,-0.2752,-0.268,-0.2846,-0.333,-0.3435,-0.3478,-0.3467,-0.3423,-0.3411,0.0,0.0,0.0,0.0,0.0,0.0,0.0,0.0,0.0,0.0,0.0,0.0,0.0,0.0,0.0,0.0,0.0,0.0,0.0,0.0,0.0,0.0,0.0,0.0,0.0,0.0,0.0,0.0,0.0,0.0,0.0,0.0,0.0,0.0,0.0,0.0,0.0,0.072,0.2013,0.0,0.124,0.2838,0.3404,0.2257,0.2766,0.3162,0.3298,0.3664,0.4242,0.4883,0.5106,0.5141,0.4804,0.5025,0.5138,0.5232,0.5232,0.5424,0.5613,0.5519,0.5424,0.5424,0.5329,0.5211,0.5076,0.5005,0.5015,0.4974,0.4834,0.4635,0.4589,0.4653,0.4541,0.4335,0.0,0.0,0.0,0.0,0.0,0.0,0.0,0.0,0.0,0.0,0.0,-0.212,-0.225,-0.2579,-0.2822,-0.2885,-0.2755,-0.2822,-0.3088,0.0,0.0,0.0,0.0,0.0,0.0,-0.1774,-0.1892,-0.2034,-0.2142,-0.2262,-0.2391,-0.2264,-0.2456,-0.2826,-0.2824,-0.3086,-0.3612,-0.377,-0.3781,-0.3663,-0.3763,-0.3693,-0.3572,0.0,0.0,0.0,0.0,0.0,0.0,0.0,0.0,0.0,0.0,0.0,0.0,0.0,0.0,0.0,0.0,0.0,0.0,0.0,0.0,0.0,0.0,0.0,0.0,0.0,0.0,0.0,0.0,0.0,0.0,0.0,0.0,0.0,0.0,0.0,0.1203,0.0248,0.2694,0.3512,0.0963,0.2858,0.364,0.239,0.2748,0.2969,0.279,0.3544,0.4344,0.4947,0.5144,0.5079,0.4753,0.5014,0.5194,0.5094,0.516,0.5338,0.5432,0.5338,0.5241,0.5241,0.5144,0.5026,0.4995,0.4899,0.4955,0.5109,0.491,0.4806,0.4759,0.4824,0.4706,0.4388,0.0,0.0,0.0,0.0,0.0,0.0,0.0,0.0,0.0,0.0,-0.2543,-0.2497,-0.2576,-0.2454,-0.236,-0.2224,-0.2225,-0.2293,-0.2424,-0.1979,0.0,0.0,0.0,0.0,-0.1614,-0.1843,-0.1966,-0.2039,-0.2071,-0.2172,-0.2347,-0.252,-0.2651,-0.2836,-0.3212,-0.3524,-0.3693,-0.4191,-0.4166,-0.3826,-0.3795,-0.3849,-0.3902,0.0,0.0,0.0,0.0,0.0,0.0,0.0,0.0,0.0,0.0,0.0,0.0,0.0,0.0,0.0,0.0,0.0,0.0,0.0,0.0,0.0,0.0,0.0,0.0,0.0,0.0,0.0,0.0,0.0,0.0,0.0,0.0,0.0,0.0079,-0.0723,-0.0913,-0.0173,0.2703,0.3787,0.1613,0.332,0.4531,0.4352,0.3704,0.308,0.2572,0.4107,0.5063,0.4949,0.5153,0.5135,0.5106,0.5018,0.5079,0.5393,0.5293,0.5343,0.5541,0.5343,0.5144,0.514,0.4937,0.4885,0.5099,0.4808,0.4753,0.486,0.4672,0.4575,0.4573,0.4858,0.4672,0.4389,0.0,0.0,0.0,0.0,0.0,0.0,0.0,0.0,0.0,0.0,-0.2269,-0.2328,-0.2449,-0.2456,-0.2429,-0.2219,-0.2398,-0.2455,-0.243,0.0,0.0,0.0,0.0,0.0,-0.1918,-0.2196,-0.2328,-0.2154,-0.2407,-0.2534,-0.2529,-0.274,-0.2944,-0.2973,-0.3203,-0.3442,-0.3602,-0.3865,-0.3968,-0.4073,-0.4325,-0.4394,-0.4239,0.0,0.0,0.0,0.0,0.0,0.0,0.0,0.0,0.0,0.0,0.0,0.0,0.0,0.0,0.0,0.0,0.0,0.0,0.0,0.0,0.0,0.0,0.0,0.0,0.0,0.0,0.0,0.0,0.0,0.0,0.0,0.0,0.0502,-0.0745,-0.0086,0.0359,0.0091,0.1382,0.1779,0.0477,0.2264,0.3247,0.2907,0.3075,0.3295,0.361,0.3824,0.4154,0.4719,0.4822,0.4952,0.5108,0.4812,0.4696,0.4857,0.4977,0.4937,0.4834,0.4937,0.5001,0.4937,0.4834,0.482,0.4897,0.4602,0.4491,0.4561,0.4598,0.4534,0.43,0.452,0.4272,0.3877,0.0,0.0,0.0,0.0,0.0,0.0,0.0,0.0,0.0,0.0,-0.2492,-0.2557,-0.2544,-0.2551,-0.2512,-0.2208,-0.2377,-0.2493,-0.2387,0.0,0.0,0.0,0.0,-0.2219,-0.2136,-0.2339,-0.2387,-0.2348,-0.255,-0.2691,-0.2766,-0.2984,-0.3031,-0.3068,-0.331,-0.3558,-0.3725,-0.3758,-0.3822,-0.3904,-0.411,-0.4183,-0.4128,-0.4151,-0.3844,-0.3401,-0.3415,-0.3099,-0.2699,-0.2744,0.0,0.0,0.0,0.0,0.0,0.0,0.0,0.0,0.0,0.0,0.0,0.0,0.0,0.0,0.0,0.0,0.0,0.0,0.0,0.0,0.0,0.0,0.0,0.0,0.0432,0.0801,-0.0449,-0.0276,0.0094,0.0096,0.0585,0.1094,0.1418,0.2512,0.3238,0.3451,0.384,0.406,0.4252,0.415,0.4164,0.452,0.4625,0.4857,0.5004,0.4919,0.4796,0.4947,0.4966,0.4924,0.4719,0.482,0.4874,0.0,0.469,0.477,0.4734,0.4537,0.4438,0.0,0.0,0.0,0.0,0.0,0.391,0.3734,0.0,0.0,0.0,0.0,0.0,0.0,0.0,0.0,0.0,0.0,0.0,-0.2984,-0.2744,-0.2746,-0.2627,-0.2235,-0.236,-0.2397,0.0,0.0,0.0,-0.2863,-0.2538,-0.2363,-0.2495,-0.2336,-0.2371,-0.2602,-0.2726,-0.2789,-0.2799,-0.2995,-0.3053,-0.2974,-0.3285,-0.3575,-0.3753,-0.3739,-0.3646,-0.3556,-0.3399,-0.3512,-0.371,-0.368,-0.3358,-0.2954,-0.2888,-0.2712,-0.2551,-0.2567,0.0,0.0,0.0,0.0,0.0,0.0,0.0,0.0,0.0,0.0,0.0,0.0,0.0,0.0,0.0,0.0,0.0,0.0,0.0,0.0,0.0,0.0,0.0,0.0,0.0737,0.1732,0.059,-0.039,-0.0686,0.0302,0.0514,0.1255,0.3187,0.3298,0.3624,0.4708,0.5022,0.4914,0.4601,0.0,0.0,0.0,0.0,0.4854,0.4929,0.507,0.514,0.5148,0.5058,0.5016,0.491,0.4801,0.475,0.4971,0.4665,0.4616,0.4736,0.4437,0.4343,0.4248,0.4019,0.3879,0.3832,0.3526,0.3666,0.3833,0.0,0.0,0.0,0.0,0.0,0.0,0.0,0.0,0.0,-0.2633,-0.2604,-0.273,-0.2939,-0.2834,-0.2661,-0.2433,-0.2589,-0.2681,0.0,0.0,-0.2707,-0.2867,-0.2845,-0.2944,-0.3018,-0.3247,-0.3315,-0.3213,-0.3472,-0.3115,-0.2199,-0.2572,-0.2517,-0.21,-0.2216,-0.2711,-0.3409,-0.3172,-0.306,-0.306,-0.3217,-0.3306,-0.3475,-0.332,-0.3151,-0.3032,-0.3251,-0.29,-0.2399,-0.2615,-0.2276,-0.1619,-0.1197,0.0,0.0,0.0,0.0,0.0,0.0,0.0,0.0,0.0,0.0,0.0,0.0,0.0,0.0,0.0,0.0,0.0,0.0,0.0,0.0,0.0462,0.268,0.3851,0.2246,0.2097,0.2006,0.1652,0.1361,0.1485,0.2126,0.2552,0.2906,0.3099,0.4161,0.4593,0.3881,0.4773,0.5002,0.4458,0.4682,0.5025,0.5268,0.5068,0.4837,0.4681,0.0,0.0,0.4132,0.4351,0.4491,0.4562,0.4562,0.4515,0.4437,0.4236,0.3869,0.3494,0.3535,0.3627,0.3601,0.3297,0.3234,0.3331,0.0,0.0,0.0,0.0,0.0,0.0,0.0,0.0,0.0,0.0,-0.2724,-0.2789,-0.283,-0.2841,-0.2673,-0.2441,-0.2662,0.0,0.0,-0.3199,-0.3301,-0.3481,-0.3421,-0.3486,-0.3608,-0.3692,-0.3757,-0.3878,-0.4099,-0.3774,-0.2777,-0.3168,-0.3019,-0.2589,-0.2655,-0.2882,-0.3092,-0.3001,-0.2805,-0.2693,-0.2693,-0.271,-0.2808,-0.274,-0.25,-0.2152,-0.2442,-0.2336,-0.2159,-0.2081,-0.1645,-0.1193,-0.0933,-0.0389,0.0078,0.0,0.0,0.0,0.0,0.0,0.0,0.0,0.0,0.0,0.0,0.0,0.0,0.0,0.0,0.0163,0.0,0.0,0.1178,0.1178,0.2726,0.3613,0.297,0.3375,0.3396,0.2453,0.1729,0.1856,0.3056,0.3164,0.3297,0.3804,0.4446,0.4664,0.4032,0.4594,0.4707,0.4258,0.4594,0.4817,0.5156,0.4777,0.4664,0.4704,0.4664,0.4534,0.4205,0.4208,0.4259,0.4369,0.4261,0.4196,0.4191,0.395,0.3571,0.3309,0.3288,0.3416,0.3514,0.3285,0.3198,0.3275,0.0,0.0,0.0,0.0,0.0,0.0,0.0,0.0,0.0,0.0,-0.2828,-0.2892,-0.272,-0.2752,-0.2697,0.0,0.0,0.0,0.0,-0.374,-0.3932,-0.4222,-0.3997,-0.4008,-0.4263,-0.4201,-0.4258,-0.4519,-0.4751,-0.4548,-0.381,-0.3979,-0.3643,-0.3087,-0.3126,-0.3181,-0.3087,-0.2955,-0.2758,-0.2438,-0.2257,-0.2162,-0.223,-0.2179,-0.1883,-0.147,-0.1675,-0.1888,-0.1955,-0.1656,-0.12,-0.0729,-0.0724,-0.0406,-0.0081,-0.0151,-0.0152,0.0,0.0,0.0,0.0,0.0,0.0,0.0,0.0,0.0,0.1405,0.1576,0.16,0.1556,0.1485,0.1603,0.1742,0.1762,0.2543,0.3121,0.3285,0.3998,0.4012,0.2968,0.2221,0.2574,0.4369,0.403,0.403,0.4817,0.4929,0.4817,0.448,0.4592,0.4482,0.4148,0.4482,0.4706,0.4817,0.4704,0.4594,0.4707,0.4482,0.4369,0.4369,0.4036,0.4,0.4264,0.403,0.3951,0.4038,0.3676,0.3483,0.3316,0.3267,0.3322,0.3413,0.3279,0.3268,0.332,0.0,0.0,0.0,0.0,0.0,0.0,0.0,0.0,0.0,0.0,0.0,0.0,0.0,0.0,0.0,0.0,0.0,0.0,-0.402,-0.4154,-0.4372,-0.4613,-0.4462,-0.443,-0.4688,-0.4874,-0.5063,-0.5339,-0.5764,-0.5558,-0.4716,-0.4332,-0.3495,-0.2328,-0.249,-0.2946,-0.36,-0.2941,-0.2628,-0.2579,-0.2305,-0.2191,-0.2233,-0.2303,-0.2094,-0.1921,-0.2123,-0.2051,-0.1838,-0.2076,-0.2027,-0.1635,-0.1104,-0.0947,-0.0681,0.0318,0.0,0.0448,0.1377,0.1794,0.2022,0.2276,0.2325,0.2311,0.0,0.0,0.1998,0.149,0.1424,0.1356,0.1193,0.1925,0.2491,0.2589,0.3482,0.4058,0.3904,0.4032,0.3921,0.3578,0.3583,0.4035,0.4817,0.4258,0.4258,0.4817,0.4929,0.4817,0.448,0.5043,0.5043,0.448,0.5043,0.5043,0.4592,0.4706,0.4596,0.4148,0.4036,0.3924,0.3699,0.3699,0.3776,0.3932,0.3871,0.3802,0.373,0.3417,0.3315,0.332,0.3313,0.3383,0.3466,0.3294,0.3268,0.3313,0.0,0.0,0.0,0.0,0.0,0.0,0.0,0.0,0.0,0.0,0.0,0.0,0.0,0.0,0.0,0.0,0.0,0.0,-0.4018,-0.4725,-0.5049,-0.4919,-0.501,-0.5112,-0.5246,-0.5283,-0.5322,-0.5186,-0.5398,-0.5022,-0.4116,-0.4197,-0.3753,-0.3175,-0.3227,-0.3599,-0.4005,-0.3566,-0.333,-0.3236,-0.3145,-0.3086,-0.3164,-0.302,-0.2985,-0.2838,-0.2542,-0.2411,0.0,0.0,-0.2159,-0.204,-0.1462,-0.1406,-0.132,-0.0307,-0.0152,0.0,0.149,0.2031,0.2321,0.0,0.2765,0.2792,0.2825,0.2924,0.3044,0.2921,0.3071,0.3026,0.2729,0.3086,0.3343,0.0,0.3661,0.4004,0.4254,0.4001,0.3769,0.3808,0.3856,0.3949,0.4139,0.4372,0.4484,0.4372,0.4706,0.4706,0.4258,0.4819,0.4931,0.448,0.4706,0.4817,0.4706,0.437,0.4147,0.4038,0.3813,0.3699,0.3586,0.355,0.3612,0.3554,0.3528,0.3481,0.342,0.3282,0.3289,0.3322,0.3322,0.3373,0.3435,0.3324,0.3322,0.3365,0.0,0.0,0.0,0.0,0.0,0.0,0.0,0.0,0.0,0.0,0.0,0.0,0.0,0.0,0.0,0.0,0.0,0.0,0.0,-0.5161,-0.558,-0.5405,-0.5532,-0.5715,-0.5792,-0.5527,-0.5409,-0.528,-0.5258,-0.4914,-0.438,-0.447,-0.4522,-0.4355,-0.4281,-0.4268,-0.4355,-0.4101,-0.3943,-0.3821,-0.3709,-0.3701,-0.3727,-0.3574,-0.3553,-0.3467,-0.2962,-0.2673,0.0,0.0,-0.2398,-0.2286,-0.1905,-0.187,-0.1873,-0.1102,-0.0737,-0.0227,0.1304,0.0,0.0,0.2661,0.2889,0.3026,0.3261,0.3474,0.3749,0.4002,0.4262,0.432,0.396,0.3975,0.4088,0.4029,0.3813,0.3923,0.448,0.399,0.3649,0.4142,0.3949,0.3811,0.3778,0.4451,0.4682,0.4258,0.4707,0.4707,0.426,0.4594,0.4706,0.437,0.448,0.448,0.4594,0.4035,0.3813,0.3924,0.3699,0.3587,0.3586,0.3542,0.3499,0.3461,0.3461,0.3417,0.3343,0.3298,0.3288,0.3296,0.3296,0.3334,0.3382,0.3338,0.3349,0.3379,0.0,0.0,0.0,0.0,0.0,0.0,0.0,0.0,0.0,0.0,0.0,0.0,0.0,0.0,0.0,0.0,0.0,0.0,0.0,-0.5155,-0.5651,-0.624,-0.6017,-0.6018,-0.6261,-0.5604,-0.549,-0.5951,-0.5684,-0.5836,-0.6358,-0.5721,-0.5635,-0.5932,-0.5133,-0.473,-0.472,-0.4443,-0.4264,-0.4178,-0.3821,-0.361,-0.3535,-0.3551,-0.3557,-0.3475,-0.3251,0.0,0.0,0.0,-0.2828,-0.2593,-0.2442,-0.2265,0.0,-0.1699,-0.0827,0.0205,0.0,0.0,0.1926,0.2719,0.2955,0.3185,0.3568,0.3767,0.3854,0.3995,0.4246,0.4267,0.3775,0.4076,0.4365,0.4036,0.4038,0.4148,0.448,0.4032,0.3808,0.4369,0.4143,0.4118,0.0,0.4593,0.4843,0.4923,0.4929,0.4929,0.4929,0.4592,0.4369,0.4036,0.4369,0.4257,0.3699,0.3924,0.3813,0.3587,0.3587,0.3587,0.3587,0.3585,0.3583,0.3582,0.3582,0.3516,0.341,0.3407,0.3338,0.3233,0.3233,0.327,0.3324,0.3322,0.3323,0.3315,0.0,0.0,0.0,0.0,0.0,0.0,0.0,0.0,0.0,0.0,0.0,0.0,0.0,0.0,0.0,0.0,0.0,0.0,0.0,-0.4995,-0.5525,-0.5725,-0.5659,-0.578,-0.6105,-0.5234,-0.4813,-0.5002,-0.4648,-0.4613,-0.475,-0.464,-0.4729,-0.4953,-0.4919,-0.4848,-0.4848,-0.472,-0.4689,-0.4647,-0.4223,-0.406,-0.4044,-0.3855,-0.3724,-0.3666,0.0,0.0,0.0,0.0,0.0,0.0,-0.2596,0.0,-0.2417,-0.1862,-0.1285,-0.0772,-0.0527,0.0,0.1398,0.1967,0.255,0.3052,0.3462,0.3606,0.3752,0.373,0.386,0.3996,0.364,0.3955,0.4153,0.3833,0.4055,0.437,0.4479,0.4329,0.4299,0.4627,0.4538,0.0,0.0,0.0,0.0,0.4519,0.4739,0.465,0.4369,0.448,0.4369,0.4038,0.4148,0.4036,0.3813,0.3813,0.3699,0.3587,0.4147,0.4566,0.4735,0.4569,0.4536,0.4654,0.3837,0.3783,0.4078,0.3559,0.3612,0.4031,0.4031,0.3644,0.326,0.3867,0.3591,0.3007,0.0,0.0,0.0,0.0,0.0,0.0,0.0,0.0,0.0,0.0,0.0,0.0,0.0,0.0,0.0,0.0,0.0,0.0,0.0,0.0,-0.5332,-0.555,-0.5638,-0.5691,-0.5858,-0.4922,-0.4512,-0.4548,-0.4187,-0.3982,-0.3946,-0.4173,-0.4364,-0.4523,-0.4854,-0.4901,-0.4933,-0.4858,-0.4809,-0.4757,-0.4473,-0.4278,-0.4155,-0.3965,-0.3816,0.0,0.0,0.0,0.0,0.0,0.0,0.0,0.0,-0.2818,-0.2672,-0.2275,-0.1975,-0.1669,-0.1194,-0.0344,0.0644,0.166,0.2446,0.3159,0.3216,0.3549,0.3672,0.3516,0.3808,0.3883,0.3619,0.3998,0.4159,0.3827,0.4167,0.4513,0.4678,0.443,0.443,0.4951,0.4866,0.4691,0.0,0.0,0.0,0.444,0.468,0.4609,0.411,0.4246,0.4147,0.3813,0.3813,0.3813,0.3813,0.3699,0.3811,0.4035,0.4927,0.5343,0.5178,0.5016,0.4759,0.4552,0.3729,0.3783,0.4493,0.3561,0.3816,0.473,0.423,0.383,0.3636,0.3784,0.3509,0.311,0.0,0.0,0.0,0.0,0.0,0.0,0.0,0.0,0.0,0.0,0.0,0.0,0.0,0.0,0.0,0.0,0.0,0.0,0.0,0.0,0.0,-0.562,-0.578,-0.5734,-0.5672,-0.4809,-0.4476,-0.4674,-0.4158,-0.4022,-0.4292,-0.4552,-0.4709,-0.4732,-0.4901,-0.4957,-0.487,-0.4671,-0.4615,-0.4671,-0.4373,-0.4164,-0.3963,-0.4004,0.0,0.0,0.0,0.0,0.0,0.0,0.0,0.0,0.0,-0.325,-0.3009,-0.2932,-0.2891,-0.2492,-0.1271,-0.0811,-0.0283,0.1499,0.2704,0.3321,0.3161,0.3279,0.3507,0.3559,0.3856,0.392,0.0,0.0,0.4582,0.4113,0.4279,0.4499,0.4969,0.4475,0.4454,0.0,0.0,0.0,0.0,0.0,0.0,0.468,0.0,0.4695,0.4378,0.4114,0.3924,0.3587,0.3587,0.3587,0.3699,0.3698,0.4145,0.4923,0.5926,0.5926,0.5035,0.5039,0.4594,0.381,0.347,0.3844,0.4686,0.3621,0.4169,0.5543,0.4039,0.3835,0.4347,0.3462,0.3264,0.342,0.0,0.0,0.0,0.0,0.0,0.0,0.0,0.0,0.0,0.0,0.0,0.0,0.0,0.0,0.0,0.0,0.0,0.0,0.0,0.0,0.0,0.0,0.0,0.0,0.0,0.0,0.0,0.0,0.0,-0.3909,-0.425,-0.4509,-0.4597,-0.4652,-0.5028,-0.4971,-0.4772,-0.4857,-0.479,-0.4675,0.0,-0.3963,-0.3816,0.0,0.0,0.0,0.0,0.0,0.0,0.0,0.0,0.0,0.0,-0.422,-0.4125,-0.3773,-0.3565,-0.3389,-0.2556,-0.1937,-0.1222,-0.0318,0.1068,0.2248,0.2834,0.3032,0.3092,0.3023,0.3313,0.3477,0.0,0.0,0.0,0.3992,0.4558,0.0,0.4939,0.5056,0.0,0.5279,0.0,0.4796,0.4797,0.4786,0.0,0.0,0.4701,0.4766,0.4781,0.425,0.3924,0.3924,0.3699,0.4033,0.4925,0.559,0.5888,0.5707,0.6774,0.7323,0.7454,0.7326,0.7257,0.7143,0.6062,0.6002,0.6601,0.5554,0.5763,0.6669,0.6264,0.5804,0.5338,0.5691,0.5485,0.4942,0.0,0.0,0.0,0.0,0.0,0.0,0.0,0.0,0.0,0.0,0.0,0.0,0.0,0.0,0.0,0.0,0.0,0.0,0.0,0.0,0.0,0.0,0.0,0.0,0.0,0.0,0.0,0.0,0.0,0.0,0.0,-0.4503,-0.4665,-0.4769,-0.4981,-0.4947,-0.4856,-0.4795,0.0,0.0,0.0,0.0,0.0,0.0,0.0,0.0,0.0,0.0,0.0,0.0,0.0,-0.4143,-0.4317,-0.4265,-0.4117,-0.3745,0.0,-0.3678,-0.3689,-0.3345,-0.2506,-0.0859,0.0432,0.1503,0.2331,0.271,0.285,0.2841,0.3088,0.0,0.0,0.0,0.0,0.0,0.0,0.0,0.4966,0.5092,0.5226,0.0,0.5194,0.0,0.496,0.4951,0.4951,0.0,0.4843,0.4667,0.4652,0.4244,0.4148,0.4594,0.448,0.4925,0.5924,0.6702,0.7003,0.672,0.7892,0.8329,0.8141,0.7996,0.7922,0.77,0.0,0.666,0.7214,0.6184,0.6378,0.7449,0.6737,0.6292,0.6139,0.6186,0.5877,0.545,0.0,0.0,0.0,0.0,0.0,0.0,0.0,0.0,0.0,0.0,0.0,0.0,0.0,0.0,0.0,0.0,0.0,0.0,0.0,0.0,0.0,0.0,0.0,0.0,0.0,0.0,0.0,0.0,0.0,0.0,0.0,0.0,0.0,0.0,0.0,0.0,0.0,0.0,0.0,0.0,0.0,0.0,0.0,0.0,0.0,0.0,0.0,0.0,0.0,0.0,-0.3733,-0.3673,-0.3978,-0.3949,-0.3674,-0.3548,-0.3456,-0.3721,-0.4573,-0.4371,-0.3345,-0.053,0.0535,0.1064,0.1818,0.2256,0.2674,0.2843,0.0,0.3045,0.3348,0.39,0.4216,0.4318,0.0,0.499,0.5072,0.5008,0.5102,0.5353,0.5382,0.5238,0.516,0.5261,0.537,0.537,0.5259,0.5039,0.4607,0.4337,0.4704,0.5592,0.5815,0.6146,0.6811,0.759,0.7907,0.7764,0.8913,0.902,0.82,0.8235,0.7919,0.7033,0.6559,0.0,0.7346,0.6255,0.6752,0.7869,0.6461,0.6348,0.6845,0.5938,0.5674,0.5698,0.0,0.0,0.0,0.0,0.0,0.0,0.0,0.0,0.0,0.0,-0.3694,-0.3469,0.0,0.0,0.0,0.0,0.0,0.0,0.0,0.0,0.0,0.0,0.0,0.0,0.0,0.0,0.0,0.0,0.0,0.0,0.0,0.0,0.0,0.0,0.0,0.0,0.0,0.0,0.0,0.0,0.0,0.0,0.0,0.0,0.0,0.0,0.0,0.0,0.0,0.0,-0.3864,-0.3951,-0.4053,-0.3967,-0.3812,-0.3905,-0.4004,-0.4185,-0.4637,-0.3569,-0.1797,0.0628,0.1227,0.1486,0.1708,0.2009,0.0,0.0,0.2679,0.3016,0.297,0.353,0.4064,0.4215,0.0,0.0,0.0,0.0,0.5243,0.0,0.0,0.0,0.0,0.0,0.0,0.0,0.0,0.6901,0.6352,0.5806,0.5922,0.6808,0.7808,0.8143,0.7808,0.9144,0.9461,0.8676,0.9359,0.9675,0.9523,0.9794,0.9699,0.9244,0.8883,0.0,0.8438,0.7988,0.7968,0.8231,0.7922,0.7847,0.7739,0.7563,0.7648,0.7741,0.0,0.0,0.0,0.0,0.0,0.0,0.0,-0.3565,-0.3685,-0.3803,-0.3762,-0.3635,-0.3357,-0.3074,0.0,0.0,0.0,0.0,0.0,0.0,0.0,0.0,0.0,0.0,0.0,0.0,0.0,0.0,0.0,0.0,0.0,0.0,0.0,0.0,0.0,0.0,0.0,0.0,0.0,0.0,0.0,0.0,0.0,0.0,0.0,0.0,0.0,0.0,0.0,0.0,-0.3097,-0.3387,-0.3581,-0.3522,-0.3348,-0.3238,-0.3016,-0.2867,-0.3188,-0.1671,0.0104,0.1118,0.1394,0.1539,0.177,0.0,0.0,0.0,0.2691,0.2994,0.3197,0.0,0.0,0.0,0.0,0.0,0.0,0.0,0.0,0.0,0.0,0.0,0.0,0.0,0.0,0.0,0.0,0.7482,0.7152,0.7368,0.7587,0.8029,0.9034,0.9475,0.9251,0.9809,0.9847,0.937,0.9632,0.9843,0.9804,0.9855,0.9706,0.9588,0.9222,0.0,0.8581,0.8438,0.8289,0.815,0.815,0.8106,0.8038,0.8038,0.7885,0.7733,0.0,0.0,0.0,0.0,0.0,0.0,0.0,-0.3386,-0.353,-0.3556,-0.3718,-0.3799,-0.3694,-0.3299,-0.291,0.0,0.0,0.0,0.0,0.0,0.0,0.0,0.0,0.0,0.0,0.0,0.0,-0.3341,0.0,0.0,0.0,0.0,0.0,0.0,0.0,0.0,0.0,0.0,0.0,0.0,0.0,0.0,0.0,0.0,0.0,0.0,0.0,0.0,0.0,0.0,-0.1819,-0.2186,-0.2329,-0.2613,-0.2759,-0.2046,-0.1511,-0.115,-0.1209,0.0205,0.1628,0.1469,0.145,0.1592,0.1996,0.1959,0.0,0.0,0.2718,0.2963,0.3444,0.0,0.412,0.0,0.0,0.0,0.0,0.0,0.0,0.0,0.0,0.0,0.0,0.0,0.0,0.0,0.0,0.0,0.7925,0.8809,0.9254,0.9254,1.0029,1.0366,1.0257,1.0002,0.9855,0.9817,0.9821,0.9821,0.9817,0.9607,0.9406,0.9322,0.904,0.0,0.0,0.8401,0.8248,0.8038,0.8038,0.8038,0.8035,0.8004,0.771,0.7428,0.0,0.0,0.0,0.0,0.0,0.0,0.0,-0.3156,-0.3374,-0.3481,-0.3661,-0.3852,-0.3968,-0.358,-0.3249,0.0,0.0,0.0,0.0,0.0,0.0,0.0,0.0,0.0,0.0,0.0,0.0,-0.2442,-0.2693,0.0,0.0,0.0,0.0,0.0,0.0,0.0,0.0,0.0,0.0,0.0,0.0,0.0,0.0,0.0,0.0,0.0,0.0,0.0,0.0,0.0,0.0,-0.02,0.0489,-0.0806,-0.2204,-0.0362,0.0,0.0,0.0478,0.1169,0.1957,0.188,0.1652,0.1503,0.2093,0.0,0.0,0.2492,0.283,0.3057,0.3435,0.3696,0.3848,0.0,0.0,0.4263,0.0,0.0,0.0,0.0,0.0,0.0,0.0,0.0,0.0,0.0,0.0,0.0,0.8809,0.9915,1.0582,1.0582,1.0582,1.0582,1.0257,1.0321,1.0162,0.9684,1.0003,0.9999,0.9684,0.9793,0.9561,0.9147,0.8863,0.0,0.0,0.814,0.8065,0.8038,0.8038,0.8038,0.8021,0.7882,0.7821,0.7902,0.0,0.0,0.0,0.0,0.0,0.0,-0.3222,-0.345,-0.3522,-0.3289,-0.3448,-0.3525,-0.3358,-0.3141,-0.2971,0.0,0.0,0.0,0.0,0.0,0.0,0.0,0.0,0.0,0.0,0.0,0.0,-0.1673,-0.2057,0.0,0.0,0.0,0.0,0.0,0.0,-0.2532,0.0,0.0,0.0,0.0,0.0,0.0,0.0,0.0,0.0,0.0,0.0,0.0,0.0,0.0,0.0,0.0,0.1266,0.1178,0.0,0.0,0.24,0.2029,0.2032,0.2184,0.2296,0.2204,0.1949,0.1869,0.2309,0.0,0.2328,0.2857,0.316,0.3317,0.353,0.3726,0.3787,0.0,0.0,0.0,0.0,0.0,0.0,0.0,0.0,0.0,0.0,0.0,0.0,0.0,0.0,0.0,1.0029,1.0468,1.0692,1.0692,1.0692,1.0692,1.0582,1.0518,1.0446,1.0266,1.005,0.9835,0.973,0.9406,0.9172,0.8918,0.8796,0.0,0.0,0.8204,0.8123,0.8038,0.8038,0.7984,0.7906,0.7936,0.7774,0.7475,0.0,0.0,0.0,0.0,0.0,-0.3423,-0.3178,-0.3412,-0.3479,-0.3123,-0.3294,-0.3348,-0.3026,-0.2831,-0.2736,-0.2773,0.0,0.0,0.0,0.0,0.0,0.0,0.0,0.0,0.0,0.0,-0.2143,-0.1271,-0.1588,-0.1333,0.0,0.0,-0.1054,-0.1159,0.0,0.0,0.0,0.0,0.0,0.0,0.0,0.0,0.0,0.0,0.0,0.0,0.0,0.0,0.0,0.0,0.0,0.0,0.0,0.0,0.0,0.0,0.397,0.3703,0.3212,0.3052,0.2905,0.2534,0.2357,0.2266,0.0,0.0,0.2658,0.3185,0.3353,0.3507,0.3603,0.372,0.3763,0.0,0.0,0.4175,0.0,0.0,0.0,0.0,0.0,0.0,0.0,0.0,0.0,0.0,0.0,0.0,1.0692,1.0692,1.0692,1.0692,1.0692,1.0692,1.0692,1.0639,1.0615,1.0502,1.0019,0.9697,0.9632,0.9152,0.8855,0.8638,0.8598,0.0,0.0,0.8153,0.8072,0.7872,0.7828,0.7771,0.7724,0.7885,0.7704,0.7374,0.0,0.0,0.0,0.0,0.0,0.0,-0.26,-0.2898,-0.3161,-0.3116,-0.3292,-0.3348,-0.3295,-0.2987,-0.2681,-0.234,0.0,0.0,0.0,0.0,0.0,0.0,0.0,0.0,0.0,0.0,-0.1623,-0.1232,-0.1232,-0.0432,0.0989,0.0955,0.0923,0.0843,0.0,0.0,0.0,0.0,0.0,0.0,0.0,0.0,0.0,0.0,0.0,0.0,0.0,0.0,0.0,0.0,0.0,0.0,0.0,0.0,0.0,0.0,0.4838,0.5575,0.4112,0.4022,0.4038,0.3151,0.2824,0.2835,0.0,0.3029,0.2884,0.3347,0.3469,0.3526,0.3763,0.3763,0.3763,0.3763,0.3765,0.0,0.0,0.0,0.0,0.0,0.0,0.0,0.0,0.0,0.0,0.0,0.0,0.0,1.0692,1.0692,1.0692,1.0692,1.0692,1.0692,1.0692,1.0521,1.0218,0.9992,0.9828,0.9519,0.9133,0.8987,0.8703,0.0,0.0,0.0,0.0,0.7879,0.7721,0.7517,0.7567,0.7597,0.7514,0.7563,0.7692,0.7767,0.0,0.0,0.0,0.0,0.0,0.0,0.0,-0.3315,-0.33,-0.2775,-0.2921,-0.2938,-0.2569,-0.2384,-0.2297,-0.2422,0.0,0.0,0.0,0.0,0.0,0.0,0.0,0.0,0.0,0.0,-0.1678,-0.117,-0.117,-0.0801,-0.0,-0.0064,0.0369,0.118,0.0929,0.0,0.0,0.0,0.0,0.0,0.0,0.0,0.0,0.0,0.0,0.0,0.0,0.0,0.0,0.0,0.0,0.0,0.0,0.0,0.0,0.0,0.0,0.0,0.547,0.5236,0.4741,0.3947,0.3748,0.3645,0.3489,0.331,0.3302,0.3639,0.3667,0.3763,0.3763,0.3763,0.3763,0.3763,0.3921,0.0,0.0,0.0,0.0,0.0,0.0,0.0,0.0,0.0,0.0,0.0,0.0,0.0,1.0692,1.0692,1.0692,1.0692,1.0692,1.0582,1.0476,1.0311,1.0175,0.9843,0.9577,0.9472,0.9297,0.8925,0.869,0.0,0.0,0.0,0.0,0.7684,0.768,0.7845,0.7502,0.7435,0.758,0.7726,0.7645,0.7512,0.0,0.0,0.0,0.0,0.0,0.0,0.0,-0.336,-0.3278,-0.2737,-0.2825,-0.2773,-0.2291,-0.2159,-0.2129,-0.2227,0.0,0.0,0.0,0.0,0.0,0.0,0.0,0.0,0.0,-0.1759,-0.158,-0.125,-0.125,-0.1079,-0.0668,-0.0625,-0.0122,0.0802,0.1301,0.0,0.0,0.0,0.0,0.0,0.0,0.0,0.2294,0.0,0.0,0.0,0.0,0.0,0.0,0.0,0.0,0.0,0.0,0.0,0.0,0.0,0.468,0.0,0.0,0.5769,0.5465,0.4656,0.4398,0.0,0.0,0.3761,0.3621,0.3752,0.3763,0.3763,0.3763,0.3763,0.3763,0.3763,0.3999,0.0,0.0,0.0,0.0,0.0,0.0,0.0,0.0,0.0,0.0,0.0,0.0,0.0,1.0599,1.066,1.0664,1.0599,1.055,1.0476,1.0257,1.0147,0.9896,0.9614,0.946,0.9347,0.9177,0.8862,0.8625,0.0,0.0,0.0,0.0,0.7504,0.7465,0.7475,0.7143,0.7184,0.7439,0.7678,0.758,0.7394,0.0,0.0,0.0,0.0,0.0,0.0,0.0,0.0,-0.3105,-0.3003,-0.2961,-0.2775,-0.2338,-0.2257,-0.2115,-0.1839,0.0,0.0,0.0,0.0,0.0,0.0,0.0,0.0,0.0,-0.1385,-0.1355,-0.1403,-0.1403,-0.1258,-0.1006,-0.0853,-0.0486,-0.0,0.1277,0.1541,0.117,0.2025,0.2461,0.2544,0.2547,0.2553,0.0,0.0,0.0,0.0,0.0,0.0,0.0,0.0,0.0,0.0,0.0,0.0,0.0,0.0,0.0,0.0,0.0,0.0,0.0,0.0,0.0,0.0,0.0,0.4231,0.0,0.3841,0.3841,0.3763,0.3763,0.3763,0.3763,0.3763,0.0,0.0,0.0,0.0,0.0,0.0,0.0,0.0,0.0,0.0,0.0,0.0,0.0,0.0,1.0444,1.0586,1.0599,1.044,1.0264,1.0237,1.0237,0.9908,0.9614,0.914,0.929,0.917,0.8696,0.8682,0.8601,0.0,0.0,0.0,0.0,0.7263,0.7034,0.6731,0.6764,0.6889,0.704,0.7443,0.7499,0.7407,0.0,0.0,0.0,0.0,0.0,0.0,0.0,0.0,0.0,0.0,-0.267,-0.2533,-0.2201,-0.2219,-0.2179,0.0,0.0,0.0,0.0,0.0,0.0,0.0,0.0,0.0,0.0,-0.1546,-0.1573,-0.1347,-0.1403,-0.1446,-0.1284,-0.1291,-0.0983,-0.0367,-0.0123,0.0247,0.0615,0.0997,0.1077,0.1018,0.1566,0.1735,0.0,0.0,0.0,0.0,0.2822,0.2956,0.0,0.0,0.0,0.0,0.0,0.0,0.0,0.0,0.3574,0.4009,0.4537,0.0,0.6222,0.6044,0.5921,0.5799,0.0,0.0,0.4465,0.0,0.0,0.0,0.3763,0.0,0.0,0.0,0.0,0.0,0.0,0.0,0.0,0.0,0.0,0.0,0.0,0.0,0.0,0.0,0.0,1.0477,1.0436,1.0473,1.0477,1.0436,1.0038,0.973,0.9727,0.9622,0.928,0.8817,0.8855,0.879,0.853,0.8425,0.8353,0.0,0.0,0.0,0.7697,0.7253,0.7194,0.7333,0.6982,0.7041,0.7443,0.7455,0.7478,0.7536,0.0,0.0,0.0,0.0,0.0,0.0,0.0,0.0,0.0,0.0,0.0,0.0,0.0,0.0,0.0,0.0,0.0,0.0,0.0,0.0,0.0,0.0,0.0,0.0,-0.1299,-0.1532,-0.1442,-0.1177,-0.1105,-0.1152,-0.1331,-0.1287,-0.1049,-0.0741,-0.0438,-0.0,0.0628,0.0718,0.0669,0.0578,0.0936,0.0,0.0,0.0,0.0,0.0,0.2624,0.2758,0.0,0.2822,0.2824,0.2825,0.0,0.0,0.0,0.0,0.3224,0.3558,0.4159,0.5132,0.596,0.6261,0.618,0.6012,0.0,0.0,0.0,0.0,0.0,0.0,0.0,0.0,0.0,0.0,0.0,0.0,0.0,0.0,0.0,0.0,0.0,0.0,0.0,0.0,0.0,0.0,0.0,1.0359,1.0193,1.0343,1.0355,1.0188,0.9945,0.9773,0.9455,0.9208,0.8959,0.8509,0.8645,0.8598,0.8381,0.8306,0.8272,0.0,0.0,0.0,0.7505,0.7166,0.7165,0.7194,0.6943,0.7068,0.7387,0.7377,0.738,0.7387,0.0,0.0,0.0,0.0,0.0,0.0,0.0,0.0,0.0,0.0,0.0,0.0,0.0,0.0,0.0,0.0,0.0,0.0,0.0,0.0,0.0,0.0,0.0,-0.1767,-0.1312,-0.136,-0.1207,-0.0916,-0.0757,-0.0852,-0.118,-0.103,-0.0986,-0.0996,-0.0381,0.0129,0.0582,0.0563,0.0503,0.0453,0.044,0.0,0.0,0.0,0.0,0.0,0.0,0.0,0.0,0.2688,0.2622,0.2557,0.2688,0.0,0.0,0.0,0.0,0.0,0.3761,0.4703,0.5659,0.6222,0.6117,0.5981,0.0,0.0,0.0,0.0,0.0,0.0,0.0,0.0,0.0,0.0,0.0,0.0,0.0,0.0,0.0,0.0,0.0,0.0,0.0,0.0,0.0,0.0,0.0,1.0245,0.9904,1.018,1.0209,0.9896,0.9935,0.9796,0.9253,0.8885,0.8635,0.8306,0.8533,0.8499,0.8235,0.8235,0.8235,0.8225,0.0,0.0,0.7211,0.7166,0.7008,0.6881,0.6881,0.6982,0.7187,0.7295,0.7268,0.719,0.0,0.0,0.0,0.0,0.0,0.0,0.0,0.0,0.0,0.0,0.0,0.0,0.0,0.0,0.0,0.0,0.0,0.0,0.0,0.0,0.0,0.0,-0.1843,-0.1666,-0.1413,-0.136,-0.1062,-0.0581,-0.0747,-0.0887,-0.1002,-0.0947,-0.0916,-0.1026,-0.0879,-0.083,-0.0799,-0.0758,-0.0765,-0.0735,-0.013,0.0,0.0,0.0,0.0,0.0,0.0,0.0,0.0,0.2956,0.3025,0.3025,0.2753,0.0,0.0,0.0,0.0,0.0,0.3625,0.4498,0.5362,0.605,0.6588,0.6962,0.0,0.0,0.0,0.0,0.0,0.0,0.0,0.0,0.0,0.0,0.0,0.0,0.0,0.0,0.0,0.0,0.0,0.0,0.0,0.0,0.0,0.0,0.0,1.0111,0.9896,0.9937,0.9945,0.9888,0.9509,0.9146,0.8903,0.8965,0.8888,0.8448,0.8374,0.8245,0.8075,0.8075,0.8075,0.8058,0.0,0.7641,0.7483,0.7225,0.7094,0.7054,0.7054,0.7221,0.7322,0.7214,0.7244,0.7319,0.0,0.0,0.0,0.0,0.0,0.0,0.0,0.0,0.0,0.0,0.0,0.0,0.0,0.0,0.0,0.0,0.0,0.0,0.0,0.0,0.0,-0.1752,-0.1761,-0.1767,-0.1616,-0.1601,-0.1358,-0.0958,-0.1051,-0.103,-0.0943,-0.0943,-0.0906,-0.1008,-0.0977,-0.0997,-0.1049,-0.0804,-0.0819,-0.1075,0.0,0.0,0.0,0.0,0.0,0.0,0.0,0.0,0.0,0.0,0.2956,0.2889,0.2753,0.0,0.0,0.0,0.0,0.0,0.3357,0.4107,0.4987,0.5759,0.6572,0.7277,0.7468,0.0,0.0,0.0,0.0,0.0,0.0,0.0,0.0,0.0,0.0,0.0,0.0,0.0,0.0,0.0,0.0,0.0,0.0,0.0,0.0,0.0,0.0,0.0,0.9896,0.9884,0.9843,0.975,0.9637,0.9341,0.8963,0.8948,0.8679,0.8241,0.8262,0.8187,0.8038,0.8038,0.7994,0.7909,0.0,0.7624,0.7465,0.7322,0.7214,0.7139,0.7139,0.7183,0.7238,0.7166,0.7183,0.7238,0.0,0.0,0.0,0.0,0.0,0.0,0.0,0.0,0.0,0.0,0.0,0.0,0.0,0.0,0.0,0.0,0.0,0.0,0.0,0.0,-0.1792,-0.1569,-0.1792,-0.1868,-0.1767,-0.179,-0.1657,-0.1332,-0.1236,-0.1103,-0.0884,-0.0877,-0.0956,-0.0997,-0.102,-0.0912,-0.0765,-0.0429,-0.0502,-0.0732,0.0,0.0,0.0,0.0,0.0,0.0,0.0,0.0,0.0,0.0,0.0,0.0,0.0,0.0,0.0,0.3023,0.3023,0.2956,0.3226,0.3973,0.4781,0.5405,0.0,0.7253,0.777,0.0,0.0,0.0,0.0,0.0,0.0,0.0,0.0,0.0,0.0,0.0,0.0,0.0,0.0,0.0,0.0,0.0,0.0,0.0,0.0,0.0,0.0,0.0,0.9839,0.9823,0.9766,0.9632,0.9654,0.9524,0.9019,0.8788,0.845,0.8096,0.8177,0.8153,0.8038,0.8001,0.7923,0.7807,0.7736,0.758,0.7366,0.7333,0.7248,0.7139,0.7139,0.7139,0.7139,0.7139,0.7139,0.7139,0.0,0.0,0.0,0.0,0.0,0.0,0.0,0.0,0.0,0.0,0.0,0.0,0.0,0.0,0.0,0.0,0.0,0.0,0.0,0.0,-0.1876,-0.1433,-0.1982,-0.2066,-0.1616,-0.1734,-0.1712,-0.1493,-0.1071,-0.0832,-0.0883,-0.0914,-0.0947,-0.1092,-0.0969,-0.066,-0.0186,-0.0064,0.0064,0.0195,-0.0,0.0,0.0,0.0,0.0,0.0,0.0,0.0,0.0,0.0,0.0,0.0,0.0,0.0,0.282,0.3558,0.3627,0.3496,0.3692,0.4246,0.4853,0.5048,0.0,0.0,0.788,0.0,0.0,0.0,0.0,0.0,0.0,0.0,0.0,0.0,0.0,0.0,0.0,0.0,0.0,0.0,0.0,0.0,0.0,0.0,0.0,0.0,0.0,0.0,0.9665,0.9648,0.964,0.9628,0.9347,0.9149,0.8844,0.8535,0.8407,0.8252,0.8119,0.8052,0.8035,0.7892,0.7821,0.7794,0.7522,0.739,0.736,0.7217,0.7149,0.7139,0.7139,0.7139,0.7139,0.7139,0.7139,0.7139,0.0,0.0,0.0,0.0,0.0,0.0,0.0,0.0,0.0,0.0,0.0,0.0,0.0,0.0,0.0,0.0,0.0,0.0,0.0,0.0,-0.2146,-0.1967,-0.208,-0.2093,-0.1994,-0.2407,-0.2399,-0.2007,-0.1263,-0.0864,-0.0721,-0.0628,-0.0525,-0.0415,-0.0354,-0.03,-0.0247,0.0367,0.0694,0.0796,0.0659,0.0664,0.0,0.0,0.0,0.0,0.0,0.0,0.0,0.0,0.3092,0.3023,0.0,0.3025,0.3023,0.3625,0.3627,0.3565,0.3758,0.4314,0.4902,0.5431,0.0,0.0,0.0,0.0,0.0,0.0,0.0,0.0,0.0,0.0,0.0,0.0,0.0,0.0,0.0,0.0,0.0,0.0,0.0,0.0,0.0,0.0,0.0,0.0,0.0,0.0,0.9786,0.9579,0.9413,0.9327,0.9236,0.9034,0.8528,0.8432,0.8265,0.8126,0.8069,0.7991,0.7896,0.7838,0.7712,0.7533,0.7421,0.7316,0.7224,0.7166,0.7139,0.7139,0.7139,0.7139,0.7139,0.7139,0.7139,0.7139,0.0,0.0,0.0,0.0,0.0,0.0,0.0,0.0,0.0,0.0,0.0,0.0,0.0,0.0,0.0,0.0,0.0,0.0,0.0,-0.2743,-0.2326,-0.2148,-0.2145,-0.219,-0.228,-0.2916,-0.2856,-0.2128,-0.1353,-0.091,-0.0759,-0.0406,-0.0178,-0.0,0.0178,0.0182,0.0062,0.061,0.0945,0.1064,0.1052,0.106,0.0,0.0,0.0,0.0,0.0,0.0,0.0,0.0,0.3023,0.2956,0.0,0.0,0.3159,0.3761,0.3785,0.361,0.3878,0.4343,0.4908,0.0,0.0,0.0,0.0,0.0,0.0,0.0,0.0,0.0,0.0,0.0,0.0,0.0,0.0,0.0,0.0,0.0,0.0,0.0,0.0,0.0,0.0,0.0,0.0,0.0,0.0,0.0,0.0,0.9571,0.9377,0.9151,0.9249,0.8928,0.8286,0.8384,0.8188,0.7899,0.7899,0.7868,0.7811,0.7767,0.7607,0.7366,0.7319,0.7238,0.7139,0.7139,0.7139,0.7139,0.7139,0.7139,0.7139,0.7139,0.7139,0.7139,0.0,0.0,0.0,0.0,0.0,0.0,0.0,0.0,0.0,0.0,0.0,0.0,0.0,0.0,0.0,0.0,0.0,0.0,-0.3325,-0.293,-0.2417,-0.1839,-0.2236,-0.2472,-0.2425,-0.3155,-0.297,-0.1716,-0.1234,-0.103,-0.1068,-0.03,0.0063,0.0064,0.0626,0.0927,0.099,0.0638,0.0711,0.1036,0.1065,0.1077,0.1214,0.0,0.0,0.0,0.0,0.0,0.0,0.0,0.2889,0.282,0.0,0.0,0.0,0.41,0.4039,0.3846,0.4127,0.4405,0.0,0.0,0.0,0.0,0.0,0.0,0.0,0.0,0.0,0.0,0.0,0.0,0.0,0.0,0.0,0.0,0.0,0.0,0.0,0.0,0.0,0.0,0.0,0.0,0.0,0.0,0.0,0.0,0.0,0.9624,0.9445,0.8975,0.926,0.8985,0.7973,0.8247,0.8059,0.76,0.76,0.7672,0.7801,0.7662,0.7512,0.736,0.7207,0.7139,0.7139,0.7139,0.7139,0.7139,0.7139,0.7139,0.7139,0.7139,0.7139,0.7139,0.0,0.0,0.0,0.0,0.0,0.0,0.0,0.0,0.0,0.0,0.0,0.0,0.0,0.0,0.0,0.0,0.0,0.0,-0.3469,-0.3069,-0.2732,-0.2462,-0.2449,-0.2546,-0.2758,-0.2365,-0.2219,-0.2285,-0.1542,-0.0934,-0.0407,-0.0062,0.0317,0.0689,0.0888,0.0892,0.0765,0.0836,0.0915,0.1067,0.1074,0.1078,0.1144,0.0,0.0,0.0,0.0,0.0,0.0,0.0,0.0,0.0,0.0,0.0,0.0,0.3828,0.3917,0.3941,0.3941,0.0,0.0,0.0,0.0,0.0,0.0,0.0,0.0,0.0,0.0,0.0,0.0,0.0,0.0,0.0,0.0,0.0,0.0,0.0,0.0,0.0,0.0,0.0,0.0,0.0,0.0,0.0,0.0,0.0,0.0,0.9437,0.9256,0.8792,0.9001,0.8794,0.8247,0.8243,0.8247,0.8059,0.7875,0.775,0.7499,0.7458,0.7356,0.7207,0.716,0.7231,0.7415,0.7415,0.7234,0.7139,0.7139,0.7139,0.7139,0.7139,0.7139,0.7139,0.0,0.0,0.0,0.0,0.0,0.0,0.0,0.0,0.0,0.0,0.0,0.0,0.0,0.0,0.0,0.0,0.0,0.0,0.0,0.0,-0.2687,-0.2509,-0.242,-0.2495,-0.2745,-0.2041,-0.1425,-0.0994,-0.0845,-0.0615,-0.0354,0.0188,0.0644,0.1025,0.1044,0.0985,0.0854,0.0985,0.1062,0.1079,0.1078,0.1078,0.1144,0.0,0.0,0.0,0.0,0.0,0.0,0.0,0.0,0.0,0.0,0.0,0.0,0.3603,0.3755,0.3714,0.3834,0.0,0.0,0.0,0.0,0.0,0.0,0.0,0.0,0.0,0.0,0.0,0.0,0.0,0.0,0.0,0.0,0.0,0.0,0.0,0.0,0.0,0.0,0.0,0.0,0.0,0.0,0.0,0.0,0.0,0.0,0.9356,0.9176,0.8715,0.8839,0.8683,0.8147,0.8234,0.8234,0.8147,0.7964,0.7702,0.7375,0.7406,0.7285,0.7139,0.7231,0.7323,0.7507,0.7507,0.7415,0.7234,0.7143,0.7139,0.7139,0.7139,0.7139,0.7139,0.0,0.0,0.0,0.0,0.0,0.0,0.0,0.0,0.0,0.0,0.0,0.0,0.0,0.0,0.0,0.0,0.0,0.0,0.0,0.0,-0.2422,-0.2256,-0.2312,-0.2413,-0.2468,-0.1977,-0.0746,0.1124,0.0442,-0.0114,-0.0476,0.0504,0.105,0.1079,0.1079,0.1078,0.1076,0.1078,0.1079,0.1079,0.1077,0.1077,0.1146,0.1615,0.0,0.0,0.0,0.0,0.0,0.0,0.0,0.0,0.2688,0.2822,0.3038,0.3457,0.3422,0.3418,0.0,0.0,0.0,0.0,0.0,0.0,0.0,0.0,0.0,0.0,0.0,0.0,0.0,0.0,0.0,0.0,0.0,0.0,0.0,0.0,0.0,0.0,0.0,0.0,0.0,0.0,0.0,0.0,0.0,0.0,0.0,0.9295,0.9127,0.8668,0.8802,0.8547,0.7921,0.8089,0.8089,0.7918,0.7903,0.7654,0.7361,0.7385,0.7244,0.7102,0.7401,0.7499,0.7485,0.7499,0.7503,0.7415,0.7231,0.7139,0.7139,0.7139,0.7139,0.7139,0.0,0.0,0.0,0.0,0.0,0.0,0.0,0.0,0.0,0.0,0.0,0.0,0.0,0.0,0.0,0.0,0.0,0.0,0.0,0.0,-0.2359,-0.2439,-0.2686,-0.2666,-0.2364,-0.1943,-0.1132,-0.0055,0.0056,0.0352,0.0888,0.0963,0.1049,0.1076,0.1078,0.1079,0.1078,0.1079,0.1079,0.1079,0.1078,0.1078,0.1144,0.1211,0.1681,0.0,0.0,0.0,0.0,0.0,0.0,0.0,0.3023,0.2956,0.2824,0.3181,0.3305,0.3377,0.0,0.0,0.0,0.0,0.0,0.0,0.0,0.0,0.0,0.0,0.0,0.0,0.0,0.0,0.0,0.0,0.0,0.0,0.0,0.0,0.0,0.0,0.0,0.0,0.0,0.0,0.0,0.0,0.0,0.0,0.8747,0.8861,0.8857,0.8593,0.8771,0.8577,0.8181,0.8263,0.8263,0.0,0.7701,0.7517,0.7521,0.7418,0.7107,0.681,0.765,0.769,0.7073,0.7629,0.7588,0.7143,0.7139,0.7139,0.7139,0.7139,0.7139,0.7139,0.0,0.0,0.0,0.0,0.0,0.0,0.0,0.0,0.0,0.0,0.0,0.0,0.0,0.0,0.0,0.0,0.0,0.0,0.0,0.0,0.0,-0.2686,-0.2633,-0.255,-0.2446,-0.2108,-0.1429,-0.0393,-0.0505,0.0059,0.0,0.0,0.1035,0.1078,0.1078,0.1079,0.1079,0.0944,0.1012,0.1079,0.1079,0.1078,0.1144,0.1345,0.1412,0.148,0.2285,0.0,0.0,0.0,0.0,0.0,0.0,0.0,0.276,0.2936,0.3088,0.3265,0.0,0.0,0.0,0.0,0.0,0.0,0.0,0.0,0.0,0.0,0.0,0.0,0.0,0.0,0.0,0.0,0.0,0.0,0.0,0.0,0.0,0.0,0.0,0.0,0.0,0.0,0.0,0.0,0.0,0.8747,0.8576,0.8568,0.8528,0.8438,0.8434,0.8345,0.8158,0.8158,0.8203,0.8288,0.7946,0.7735,0.7655,0.7399,0.7222,0.7073,0.7827,0.7975,0.7559,0.7903,0.7848,0.758,0.7496,0.7408,0.7323,0.7323,0.7231,0.7139,0.0,0.0,0.0,0.0,0.0,0.0,0.0,0.0,0.0,0.0,0.0,0.0,0.0,0.0,0.0,0.0,0.0,0.0,0.0,0.0,0.0,-0.2821,-0.2467,-0.2361,-0.2632,-0.2251,-0.1503,-0.0449,-0.0781,0.0,0.0,0.0,0.0,0.1078,0.1079,0.1079,0.1012,0.0674,0.0742,0.0944,0.0944,0.0944,0.0944,0.1413,0.1076,0.0605,0.1947,0.2149,0.1879,0.2418,0.0,0.0,0.0,0.0,0.2698,0.2761,0.2883,0.3036,0.0,0.0,0.0,0.0,0.0,0.0,0.0,0.0,0.0,0.0,0.0,0.0,0.0,0.0,0.0,0.0,0.0,0.0,0.0,0.0,0.0,0.0,0.0,0.0,0.0,0.0,0.0,0.0,0.0,0.867,0.8528,0.8345,0.8256,0.8292,0.8109,0.8,0.7967,0.7967,0.8044,0.8199,0.8199,0.7935,0.7527,0.7362,0.7253,0.7238,0.7853,0.8111,0.8028,0.8146,0.8086,0.8025,0.794,0.7768,0.7591,0.7591,0.7411,0.7228,0.0,0.0,0.0,0.0,0.0,0.0,0.0,0.0,0.0,0.0,0.0,0.0,0.0,0.0,0.0,0.0,0.0,0.0,-0.2199,0.0,0.0,-0.262,-0.2527,-0.2504,-0.2672,-0.1847,-0.1143,-0.0673,0.0,0.0,0.0,0.0,0.0,0.1076,0.0,0.0944,0.0742,0.027,0.027,0.0472,0.0269,0.0134,0.0202,0.0472,0.0606,0.0605,0.0201,0.0672,0.1412,0.121,0.1612,0.0,0.0,0.0,0.2688,0.2698,0.2672,0.2724,0.0,0.0,0.0,0.0,0.0,0.0,0.0,0.0,0.0,0.0,0.0,0.0,0.0,0.0,0.0,0.0,0.0,0.0,0.0,0.0,0.0,0.0,0.0,0.0,0.0,0.0,0.0,0.0,0.8361,0.8353,0.8329,0.815,0.8126,0.8284,0.8109,0.7943,0.7797,0.7793,0.7805,0.7829,0.766,0.7327,0.7013,0.7259,0.7255,0.698,0.7694,0.767,0.7181,0.775,0.7816,0.7591,0.7856,0.7856,0.7856,0.7856,0.7852,0.7764,0.0,0.0,0.0,0.0,0.0,0.0,0.0,0.0,0.0,0.0,0.0,0.0,0.0,0.0,0.0,-0.2548,-0.2458,-0.2528,-0.2728,-0.2624,-0.2567,-0.2777,-0.2646,-0.2635,-0.2691,-0.1876,-0.1269,-0.0839,0.0,0.0,0.0,0.1069,0.1101,0.0,0.0,0.0,0.0,0.053,0.0527,0.0329,0.0517,0.0582,0.0655,0.1162,0.1178,0.0939,0.0792,0.0398,0.0067,0.047,0.0873,0.1276,0.1277,0.0,0.0,0.0,0.0,0.0,0.0,0.0,0.0,0.0,0.0,0.0,0.0,0.0,0.0,0.0,0.0,0.0,0.0,0.0,0.0,0.0,0.0,0.0,0.0,0.0,0.0,0.0,0.0,0.0,0.0,0.0,0.0,0.0,0.8431,0.8373,0.8458,0.8197,0.8086,0.8156,0.7996,0.7784,0.7606,0.7606,0.7659,0.776,0.7676,0.7553,0.7399,0.7454,0.7375,0.725,0.774,0.7847,0.76,0.7753,0.7793,0.7697,0.778,0.778,0.7625,0.7716,0.7807,0.7711,0.0,0.0,0.0,0.0,0.0,0.0,0.0,0.0,0.0,0.0,0.0,0.0,0.0,0.0,0.0,0.0,-0.2716,-0.2855,-0.3017,-0.2778,-0.2666,-0.2756,-0.2619,-0.2577,-0.2691,-0.1792,-0.1174,0.0,0.0,0.0,0.0989,0.1083,0.1115,0.0,0.1078,0.0,0.0,0.0,0.0,0.0,0.0628,0.0762,0.0781,0.1538,0.1316,0.0547,0.1056,0.0199,-0.1017,-0.0134,0.0134,0.0134,0.0336,0.1277,0.0,0.0,0.0,0.0,0.0,0.0,0.0,0.0,0.0,0.0,0.0,0.0,0.0,0.0,0.0,0.0,0.0,0.0,0.0,0.0,0.0,0.0,0.0,0.0,0.0,0.0,0.0,0.0,0.0,0.0,0.0,0.0,0.8607,0.8529,0.8614,0.8266,0.8106,0.8137,0.7885,0.7695,0.7557,0.7504,0.7553,0.7691,0.7691,0.7691,0.7687,0.7545,0.7475,0.7446,0.7737,0.7797,0.7789,0.774,0.7691,0.7616,0.774,0.768,0.7545,0.771,0.7685,0.7624,0.0,0.0,0.0,0.0,0.0,0.0,0.0,0.0,0.0,0.0,0.0,0.0,-0.2623,-0.2847,-0.2998,-0.2998,-0.309,-0.3013,-0.2664,-0.2672,-0.2569,-0.2342,-0.2146,0.0,-0.2691,-0.1232,0.0,0.0,0.0,0.0,0.0989,0.1083,0.1115,0.1079,0.1079,0.1063,0.0971,0.0,0.0,0.0,0.0,0.0,0.0,0.0,0.0,0.0,0.0,-0.0479,-0.111,-0.0593,-0.0724,-0.0941,-0.0672,0.0336,0.1472,0.0,0.0,0.0,0.0,0.0,0.0,0.0,0.0,0.0,0.0,0.0,0.0,0.0,0.0,0.0,0.0,0.0,0.0,0.0,0.0,0.0,0.0,0.0,0.0,0.0,0.0,0.0,0.0,0.0,0.0,0.0,0.8903,0.8811,0.864,0.8377,0.8272,0.8264,0.7935,0.7756,0.7744,0.7569,0.7488,0.7496,0.7496,0.7496,0.7496,0.7488,0.7488,0.7496,0.7504,0.7358,0.7126,0.7423,0.7346,0.7208,0.7612,0.776,0.778,0.7951,0.7855,0.7623,0.0,0.0,0.0,0.0,0.0,0.0,0.0,0.0,0.0,0.0,0.0,0.0,0.0,-0.3139,-0.325,-0.3431,-0.3527,-0.3579,-0.3604,-0.3154,-0.2755,-0.2417,-0.2169,-0.2127,-0.2352,-0.1008,0.0,0.0,0.0,0.1139,0.1174,0.1187,0.1199,0.1213,0.1107,0.0913,0.0709,0.0496,0.0,0.0,0.0,0.0,0.0,0.0,0.0,0.0,0.0,0.0,0.0,-0.0067,0.0132,0.0131,-0.0385,0.0382,0.1527,0.2012,0.0,0.0,0.0,0.0,0.0,0.0,0.0,0.0,0.0,0.0,0.0,0.0,0.0,0.0,0.0,0.0,0.0,0.0,0.0,0.0,0.0,0.0,0.0,0.0,0.0,0.0,0.0,0.0,0.0,0.0,0.0,0.874,0.8828,0.8591,0.8447,0.838,0.8074,0.7813,0.7586,0.7516,0.7484,0.7484,0.7484,0.7484,0.748,0.737,0.7317,0.7313,0.7196,0.7138,0.7159,0.7192,0.7074,0.6829,0.7037,0.7062,0.7041,0.7206,0.7175,0.6877,0.0,0.0,0.0,0.0,0.0,0.0,0.0,0.0,0.0,0.0,0.0,0.0,0.0,0.0,-0.3717,-0.3897,-0.3854,-0.3849,-0.3936,-0.3423,-0.2915,-0.2573,-0.2296,-0.2252,-0.2391,-0.1183,-0.0687,0.0,0.0,0.0,0.0,0.1174,0.1174,0.1174,0.1061,0.0878,0.0,0.0,0.0,0.0532,0.0,0.0,0.2034,0.0,0.0,0.0,0.0,0.0,0.0,0.0,0.0737,0.0792,0.0,0.0,0.0,0.0,0.0,0.0,0.0,0.0,0.0,0.0,0.0,0.0,0.0,0.0,0.0,0.0,0.0,0.0,0.0,0.0,0.0,0.0,0.0,0.0,0.0,0.0,0.0,0.0,0.0,0.0,0.0,0.0,0.0,0.0,0.0,0.0,0.8731,0.8558,0.8398,0.8196,0.8012,0.7784,0.7484,0.7484,0.7484,0.7484,0.7484,0.7484,0.748,0.7366,0.7313,0.7301,0.7123,0.7045,0.7037,0.6915,0.6757,0.6595,0.666,0.6654,0.6618,0.6853,0.6605,0.625,0.0,0.0,0.0,0.0,0.0,0.0,0.0,0.0,0.0,0.0,0.0,0.0,0.0,0.0,0.0,-0.4296,-0.4088,-0.3815,-0.3562,-0.3384,-0.3133,-0.2742,-0.2577,-0.2561,-0.2763,-0.1826,-0.1216,0.0,0.0,0.0,0.0,0.0,0.0986,0.0984,0.1015,0.1,0.1,0.0,0.0942,0.1007,0.0,0.1779,0.2792,0.0,0.0,0.0,0.0142,-0.0214,0.0,0.055,0.0,0.0,0.0,0.0,0.0,0.0,0.0,0.0,0.0,0.0,0.0,0.0,0.0,0.0,0.0,0.0,0.0,0.0,0.0,0.0,0.0,0.0,0.0,0.0,0.0,0.0,0.0,0.0,0.0,0.0,0.0,0.0,0.0,0.0,0.0,0.0,0.9082,0.8736,0.83,0.828,0.8117,0.7772,0.7756,0.7667,0.7484,0.7484,0.7484,0.7484,0.7484,0.7484,0.7484,0.748,0.7476,0.7464,0.7293,0.7021,0.67,0.6696,0.6587,0.6436,0.6623,0.6658,0.661,0.6776,0.6388,0.5663,0.0,0.0,0.0,0.0,0.0,0.0,0.0,0.0,0.0,0.0,0.0,0.0,-0.484,-0.465,-0.4573,-0.4741,-0.4291,-0.4117,-0.4211,-0.3531,-0.2969,-0.2687,-0.241,-0.2363,-0.2556,-0.1856,-0.1428,-0.1309,0.0,0.0,0.0,0.0,0.0,0.0,0.0914,0.091,0.091,0.1024,0.0,0.0,0.1871,0.1963,0.0,0.0,0.0,0.0,0.0,0.0368,-0.0145,0.0,0.0543,0.0917,0.0,0.0,0.0,0.0,0.0,0.0,0.278,0.0,0.0,0.0,0.0,0.0,0.0,0.0,0.0,0.0,0.0,0.0,0.0,0.0,0.0,0.0,0.0,0.0,0.0,0.0,0.0,0.0,0.0,0.0,0.0,0.0,0.0,0.0,0.8784,0.8426,0.8292,0.8044,0.7862,0.7844,0.763,0.7533,0.7484,0.7484,0.7484,0.7484,0.7484,0.7484,0.748,0.7354,0.7297,0.7285,0.7106,0.6972,0.6871,0.6737,0.6578,0.6436,0.6479,0.6229,0.5867,0.5882,0.5359,0.4559,0.0,0.0,0.0,0.0,0.0,0.0,0.0,0.0,0.0,0.0,0.0,0.0,-0.551,-0.5256,-0.5047,-0.5052,-0.4684,-0.4392,-0.4304,-0.3641,-0.312,-0.28,-0.2631,-0.2593,-0.2632,-0.2255,-0.1891,-0.1618,0.0,0.0,0.0,0.0,0.0,0.0,0.0,0.0,0.0,0.0,0.0,0.0,0.1756,0.0,0.0,0.278,0.2107,0.0,0.0,0.0,0.0074,-0.0647,-0.0271,0.0,0.0,0.0,0.0,0.0,0.0,0.0,0.0,0.0,0.0,0.0,0.0,0.0,0.4342,0.4947,0.0,0.0,0.0,0.0,0.0,0.0,0.0,0.0,0.0,0.0,0.0,0.0,0.0,0.0,0.0,0.0,0.0,0.8831,0.8533,0.8879,0.8276,0.7975,0.8073,0.7801,0.7646,0.7646,0.7537,0.7484,0.7484,0.7484,0.7484,0.7484,0.7484,0.7484,0.748,0.7378,0.7334,0.7322,0.7143,0.7025,0.7007,0.6684,0.6527,0.6439,0.6333,0.5967,0.5544,0.549,0.4908,0.4018,0.0,0.0,0.0,0.0,0.0,0.0,0.0,0.0,0.0,0.0,-0.5849,-0.5868,-0.5918,-0.5814,-0.5611,-0.5358,-0.511,-0.4733,-0.421,-0.3842,-0.3463,-0.3081,-0.3132,-0.3062,-0.287,-0.2847,-0.2537,-0.1951,0.0,0.0,0.0,0.0,0.0,0.0,0.0,0.0,0.0,0.0,0.0,0.0891,0.1162,0.1004,0.0,0.0,0.08,0.051,0.0439,0.0371,0.0075,-0.1616,-0.1367,0.0,0.0,0.0,0.0,0.0,0.0755,0.0,0.0,0.0,0.0,0.0,0.0,0.0,0.4287,0.4466,0.4985,0.0,0.0,0.0,0.0,0.0,0.0,0.0,0.0,0.0,0.0,0.0,0.0,0.0,0.0,0.0,0.8632,0.8045,0.7862,0.8207,0.7681,0.7419,0.7577,0.7496,0.7403,0.7403,0.748,0.7484,0.7484,0.7484,0.7484,0.7484,0.7484,0.7484,0.7484,0.7484,0.7484,0.7476,0.7322,0.7151,0.6968,0.6511,0.6437,0.6459,0.6121,0.5727,0.5334,0.5347,0.47,0.3913,-0.6823,0.0,0.0,0.0,0.0,0.0,0.0,0.0,0.0,0.0,0.0,-0.6255,-0.6144,-0.6042,-0.5935,-0.5979,-0.5533,-0.5283,-0.5446,-0.4601,-0.4067,-0.4116,-0.3849,-0.3588,-0.3449,-0.3429,-0.3044,-0.2284,0.0,0.0,0.0,0.0,0.0,0.0,0.0,0.0,0.0,0.0,0.0,0.0532,0.105,0.0,0.0609,0.007,-0.0072,0.0146,0.0075,-0.0372,-0.1101,-0.1973,-0.1774,-0.1091,0.0,0.0,0.0,0.0,0.0,0.0,0.0,0.0,0.0,0.0,0.0,0.0,0.3186,0.3173,0.3412,0.0,0.0,0.0,0.0,0.0,0.0,0.0,0.0,0.0,0.0,0.0,0.0,0.0,0.0,0.0,0.8532,0.8045,0.7773,0.7773,0.708,0.6607,0.6528,0.6802,0.7019,0.7019,0.7326,0.7484,0.7484,0.7484,0.7484,0.7484,0.7484,0.7484,0.7484,0.7484,0.7484,0.748,0.7447,0.7183,0.6714,0.6183,0.5912,0.5787,0.5545,0.4977,0.4308,0.4266,0.3882,0.3322,-0.6836,0.0,0.0,0.0,0.0,0.0,0.0,0.0,0.0,0.0,0.0,0.0,0.0,0.0,0.0,-0.6218,-0.5946,-0.5668,-0.5449,-0.4846,-0.4346,-0.4119,-0.3959,-0.3799,-0.3527,-0.358,-0.3355,-0.2912,0.0,0.0,0.0,0.0,0.0,0.0,0.0,0.0,0.0,0.0,0.0453,0.0405,0.0986,0.0,0.0406,-0.0069,-0.0215,-0.0223,-0.0223,-0.0817,-0.171,-0.2232,-0.2011,0.0,0.0,-0.074,-0.0262,0.0,-0.0129,-0.0525,0.0,0.0,0.0,0.1298,0.0,0.0,0.0,0.238,0.2786,0.3773,0.0,0.0,0.0,0.0,0.0,0.0,0.0,0.0,0.0,0.0,0.0,0.0,0.0,0.0,0.7495,0.7119,0.675,0.6675,0.661,0.6485,0.6405,0.671,0.6865,0.6791,0.6945,0.7019,0.6861,0.7096,0.7173,0.7173,0.7407,0.7407,0.7173,0.7407,0.7249,0.6861,0.7096,0.6798,0.6054,0.5761,0.5278,0.4837,0.4903,0.4502,0.3983,0.3968,0.3646,0.3226,-0.7041,0.0,0.0,0.0,0.0,0.0,0.0,0.0,0.0,0.0,0.0,0.0,0.0,0.0,0.0,0.0,0.0,-0.5987,0.0,0.0,0.0,-0.4146,-0.4061,-0.3858,-0.3635,-0.363,-0.3574,-0.3469,0.0,0.0,0.0,0.0,0.0,0.0,0.0,0.0,0.0,0.0,0.0,0.023,0.0,0.065,0.0133,-0.0,-0.0212,-0.0444,-0.0585,-0.1186,-0.2047,-0.2351,-0.2109,-0.1656,-0.1606,-0.1232,0.0,0.0,0.0,0.0,0.0,0.0,0.0,0.0,0.0,0.1196,0.0,0.0,0.0,0.3136,0.0,0.0,0.0,0.0,0.0,0.0,0.0,0.0,0.0,0.0,0.0,0.0,0.0,0.0,0.6223,0.6056,0.5778,0.5491,0.6022,0.6328,0.6328,0.6556,0.6633,0.6563,0.6637,0.6556,0.6472,0.6678,0.6893,0.7046,0.7279,0.7279,0.7046,0.7234,0.7,0.6276,0.6587,0.6254,0.5393,0.5259,0.47,0.3969,0.4261,0.4161,0.3818,0.3818,0.3562,0.3226,-0.7963,-0.7708,0.0,0.0,0.0,0.0,0.0,0.0,0.0,0.0,0.0,0.0,0.0,0.0,0.0,0.0,0.0,0.0,-0.5996,0.0,0.0,-0.5322,-0.4446,-0.4132,-0.4353,-0.3962,-0.3796,-0.3741,0.0,0.0,0.0,0.0,0.0,0.0,-0.0579,0.0,0.0,0.0,-0.0,0.0,-0.0062,-0.0,0.0,-0.0251,-0.039,-0.0548,-0.1149,-0.1557,-0.1818,0.0,-0.2183,-0.2298,0.0,-0.2236,-0.2279,-0.2122,0.0,0.0,0.0,0.0,0.0,0.0,-0.0629,0.0,0.0,0.0,0.1097,0.1211,0.0,0.0,0.0,0.0,0.0,0.0,0.0,0.0,0.0,0.0,0.0,0.0,0.0,0.0,0.0,0.5842,0.5698,0.5101,0.5323,0.5476,0.5476,0.5783,0.6096,0.6338,0.6714,0.7019,0.7326,0.6878,0.7025,0.7686,0.7244,0.7174,0.7401,0.7102,0.6863,0.6656,0.6357,0.5812,0.5114,0.4911,0.4414,0.3825,0.3837,0.3643,0.3309,0.3309,0.3236,0.3226,-0.7854,-0.7614,0.0,0.0,0.0,0.0,0.0,0.0,0.0,0.0,0.0,0.0,0.0,0.0,0.0,0.0,0.0,-0.6173,0.0,0.0,0.0,0.0,-0.4618,-0.4464,-0.4604,-0.4237,-0.4026,-0.4026,-0.3727,0.0,0.0,0.0,0.0,0.0,-0.1217,0.0,-0.0636,0.0,-0.0483,0.0,0.0,0.0,0.0,-0.077,-0.08,-0.09,-0.1223,-0.1469,-0.1634,0.0,-0.2005,0.0,0.0,0.0,0.0,0.0,0.0,0.0,0.0,0.0,0.0,0.0,0.0,0.0,-0.0912,0.0,-0.0428,0.0,0.0,0.0,0.0,0.0,0.0,0.0,0.1599,0.0,0.0,0.0,0.0,0.0,0.0,0.0,0.0,0.0,0.0,0.0,0.5481,0.5549,0.5476,0.5867,0.6025,0.5873,0.6173,0.6283,0.6273,0.6286,0.6352,0.6622,0.6574,0.657,0.6485,0.6428,0.6115,0.5682,0.5609,0.5206,0.4544,0.4477,0.4198,0.3825,0.3825,0.3558,0.3226,0.3226,0.3226,0.3226,-0.7839,0.0,0.0,0.0,0.0,0.0,0.0,0.0,0.0,0.0,0.0,0.0,-0.6874,-0.682,0.0,0.0,-0.6012,-0.5788,0.0,0.0,-0.5016,-0.4908,-0.484,0.0,0.0,0.0,-0.4398,-0.4398,-0.3918,0.0,0.0,0.0,0.0,0.0,0.0,-0.1353,-0.0945,0.0,0.0,-0.0727,-0.093,-0.1005,-0.1017,-0.1061,-0.1091,-0.1112,-0.1143,-0.1298,-0.152,-0.1696,-0.1891,0.0,-0.2327,0.0,0.0,0.0,0.0,0.0,-0.2062,0.0,0.0,0.0,0.0,0.0,0.0,0.0,0.0,0.0,0.0,0.0,0.0,0.0,0.0,0.0,0.0,0.1225,0.0,0.0,0.0,0.0,0.0,0.0,0.0,0.0,0.0,0.5484,0.5635,0.5711,0.5705,0.6025,0.6103,0.5792,0.5944,0.595,0.5732,0.5841,0.5985,0.609,0.6158,0.6158,0.6022,0.5991,0.5669,0.5036,0.5104,0.4818,0.4222,0.4222,0.4104,0.3825,0.3825,0.3625,0.336,0.3293,0.3295,0.3295,-0.8344,-0.8349,0.0,0.0,0.0,0.0,0.0,0.0,0.0,0.0,0.0,0.0,0.0,0.0,0.0,0.0,0.0,-0.5517,-0.5305,0.0,-0.5066,-0.5462,-0.5174,-0.5108,0.0,0.0,-0.4958,-0.4958,-0.434,-0.3751,0.0,0.0,0.0,0.0,0.0,-0.1353,-0.1004,-0.1097,-0.1067,-0.1095,-0.1096,-0.1114,-0.1073,0.0,-0.1076,-0.1081,-0.1112,0.0,0.0,-0.1615,-0.1858,0.0,0.0,0.0,0.0,0.0,0.0,0.0,0.0,0.0,0.0,-0.2166,0.0,0.0,0.0,0.0,-0.1783,0.0,0.0,0.0,0.0,0.0,0.0,0.0,0.0,0.0,0.0,0.0,0.0,0.0,0.0,0.0,0.0,0.0,0.521,0.5121,0.5501,0.5786,0.5854,0.5941,0.6022,0.6261,0.6261,0.6339,0.6555,0.6026,0.6165,0.6877,0.6224,0.6161,0.6527,0.6025,0.5657,0.5385,0.4896,0.4551,0.4306,0.4306,0.4169,0.3961,0.3961,0.3892,0.3758,0.3563,0.3498,0.3431,0.0,0.0,0.0,0.0,0.0,0.0,0.0,-0.7359,0.0,0.0,0.0,0.0,0.0,-0.7139,-0.6958,0.0,0.0,-0.578,-0.5292,-0.5135,0.0,0.0,0.0,-0.557,0.0,0.0,-0.5248,-0.5248,-0.4392,-0.3931,0.0,0.0,0.0,0.0,0.0,-0.2347,0.0,0.0,0.0,0.0,0.0,-0.1039,-0.105,0.0,-0.1076,-0.1077,-0.1087,-0.1228,0.0,-0.1603,-0.1834,-0.2071,-0.2269,-0.2334,-0.2315,-0.2373,-0.2349,0.0,0.0,0.0,-0.2219,-0.188,0.0,0.0,0.0,0.0,0.0,0.0,0.0,0.0,0.0,0.0,0.0,0.0,0.0,0.0,0.0,0.0,0.0,0.0,0.0,0.0,0.0,0.0,0.0,0.5352,0.5586,0.5795,0.5786,0.6046,0.6099,0.6022,0.618,0.6183,0.6023,0.5976,0.5923,0.5863,0.5708,0.5724,0.5787,0.5408,0.5164,0.4965,0.476,0.4535,0.43,0.43,0.4233,0.4231,0.4231,0.4164,0.4097,0.3828,0.3694,0.3694,-0.8105,0.0,0.0,0.0,0.0,0.0,0.0,0.0,0.0,0.0,-0.7467,0.0,-0.7257,0.0,-0.7067,0.0,-0.6221,-0.5916,-0.537,-0.5393,0.0,-0.5405,-0.588,0.0,0.0,0.0,0.0,-0.5642,-0.4706,-0.4213,0.0,0.0,0.0,0.0,0.0,0.0,-0.1828,0.0,-0.1643,0.0,0.0,-0.1049,0.0,0.0,-0.1069,-0.1062,0.0,-0.121,-0.1349,-0.1648,-0.189,-0.2075,-0.2291,-0.2367,-0.2279,-0.2126,-0.2023,-0.1829,-0.1254,-0.133,0.0,-0.1144,-0.135,0.0,-0.2128,0.0,0.0,0.0,0.0,0.0,0.0,0.0,0.0,0.0,0.0,0.0,0.0,0.0634,0.0,0.0,0.0,0.0,0.0,0.0,0.5011,0.5419,0.5587,0.5741,0.0,0.61,0.6257,0.6022,0.618,0.6106,0.5725,0.5825,0.5709,0.538,0.5444,0.5438,0.5443,0.5164,0.4934,0.4758,0.4593,0.4387,0.4235,0.4235,0.4235,0.424,0.4284,0.43,0.4233,0.3961,0.3825,0.3758,0.0,0.0,0.0,0.0,-0.793,0.0,0.0,0.0,-0.7741,0.0,-0.7317,-0.7257,-0.7139,-0.702,-0.6723,-0.6251,-0.6105,-0.5916,-0.5588,-0.5789,0.0,0.0,-0.6741,-0.6876,-0.6929,0.0,0.0,0.0,0.0,0.0,0.0,0.0,0.0,0.0,-0.3186,0.0,-0.1821,-0.1881,-0.1441,-0.0712,-0.0998,-0.1076,-0.1074,-0.1075,-0.1058,-0.1037,-0.1198,-0.1277,-0.1345,-0.1748,-0.1954,-0.2117,-0.2189,-0.2338,-0.2349,-0.1724,-0.1488,-0.1324,-0.061,-0.0455,-0.0377,-0.0147,-0.0219,0.0,0.0,0.0,-0.1806,0.0,0.0,0.0,0.0,0.0,0.0,0.0,0.0,0.0,0.0,0.0,0.0,0.0,0.0,0.0,0.0,0.4135,0.4652,0.5251,0.5431,0.0,0.0,0.6159,0.6244,0.6261,0.6338,0.611,0.5735,0.5822,0.5748,0.5519,0.545,0.5521,0.5569,0.5274,0.5026,0.4815,0.4546,0.4317,0.4118,0.4118,0.4118,0.4129,0.4254,0.43,0.43,0.4097,0.3961,0.3825,-0.818,-0.7948,-0.786,0.0,-0.8072,-0.7619,0.0,0.0,0.0,0.0,-0.7634,-0.7741,-0.7681,-0.7563,-0.7263,-0.6773,-0.6346,0.0,0.0,0.0,0.0,-0.6039,-0.6603,-0.6872,-0.6926,-0.6604,0.0,-0.6459,0.0,0.0,-0.4915,0.0,0.0,0.0,0.0,0.0,-0.2439,-0.2167,-0.1596,-0.0905,-0.0977,-0.1045,0.0,0.0,-0.1123,-0.1229,-0.1264,-0.1412,-0.148,-0.121,-0.1605,-0.2042,-0.0948,-0.1042,-0.1377,-0.0623,-0.0387,-0.0229,0.0387,0.0233,-0.0077,0.0226,-0.0,-0.0372,0.0,0.0,0.0,0.0,0.0,0.0,0.0,0.0,0.0,0.0,0.0,0.0,0.0,0.0,0.0,0.0176,0.0,0.0,0.0,0.3993,0.4298,0.4721,0.5223,0.0,0.0,0.0,0.6023,0.6254,0.6338,0.616,0.5883,0.6083,0.5956,0.5519,0.622,0.6149,0.5483,0.5855,0.5577,0.4821,0.4647,0.4402,0.4118,0.4118,0.4118,0.4129,0.4254,0.43,0.43,0.4233,0.4231,0.4164,-0.8819,0.0,0.0,-0.844,0.0,0.0,-0.7894,0.0,0.0,-0.7827,-0.7859,0.0,-0.7901,-0.7996,-0.7771,-0.6961,-0.6696,0.0,-0.5352,0.0,0.0,-0.6091,-0.6625,-0.6953,-0.7163,-0.6827,0.0,-0.6582,0.0,0.0,-0.5095,0.0,0.0,0.0,0.0,-0.3965,0.0,-0.2349,-0.1604,-0.1035,-0.1047,-0.1052,0.0,-0.1069,-0.1198,-0.1315,-0.1403,-0.1547,-0.1681,-0.1412,-0.1523,-0.1653,-0.0653,-0.0518,-0.0607,0.0156,0.0388,0.0616,0.1172,0.1098,0.086,0.1002,0.0846,0.0382,-0.0223,-0.0366,-0.0435,0.0,-0.0775,-0.0893,0.0,0.0,0.0,0.0,0.0,0.0,0.0,0.0,0.0,0.0,0.0288,0.0,0.0,0.3322,0.3971,0.4287,0.4919,0.0,0.0,0.0,0.5881,0.6054,0.619,0.618,0.5941,0.6046,0.5902,0.5519,0.6025,0.5931,0.5425,0.5676,0.5448,0.4798,0.4537,0.4268,0.4025,0.4015,0.4037,0.4056,0.4232,0.43,0.43,0.43,0.43,0.4233,-0.9658,0.0,0.0,0.0,0.0,0.0,0.0,-0.8288,0.0,-0.8249,0.0,-0.7955,-0.8002,-0.8315,-0.809,-0.7015,0.0,-0.6544,-0.5352,-0.5693,-0.6043,-0.6327,-0.6643,-0.7016,-0.7371,-0.6993,-0.6687,0.0,0.0,0.0,0.0,0.0,0.0,0.0,0.0,0.0,0.0,-0.2388,-0.1497,-0.103,-0.1059,-0.1072,-0.1143,-0.1143,-0.121,-0.1345,-0.1547,-0.1748,-0.1884,-0.1681,-0.1438,-0.1126,-0.0578,-0.0148,0.0228,0.0933,0.1097,0.1254,0.1806,0.1964,0.1964,0.1887,0.1807,0.1406,0.0687,0.0379,0.0226,0.0222,-0.0144,-0.0213,0.0,0.0,0.0,0.0,0.0,0.0,0.0,0.0,0.0,0.0,0.0,0.0,0.0,0.0,0.0,0.0,0.0,0.0,0.0,0.0,0.5749,0.583,0.6091,0.615,0.5912,0.5889,0.5741,0.549,0.5515,0.5512,0.5422,0.5284,0.5152,0.4871,0.4423,0.4185,0.4001,0.3947,0.3952,0.4004,0.4219,0.43,0.43,0.43,0.43,0.4233,0.0,0.0,0.0,0.0,0.0,-0.9528,-0.9343,-0.8846,-0.8515,-0.8664,-0.8486,-0.8368,-0.8474,-0.8374,-0.7949,-0.7133,-0.6707,0.0,0.0,0.0,0.0,-0.5959,-0.6322,-0.6558,-0.6768,-0.6283,-0.6169,0.0,0.0,0.0,0.0,0.0,0.0,0.0,0.0,0.0,-0.2854,-0.1982,0.0,-0.0999,-0.1029,-0.1121,-0.1277,-0.1277,-0.1412,-0.1547,-0.1614,-0.1748,-0.1748,-0.0672,-0.0753,-0.0845,0.1157,0.1408,0.1138,0.1946,0.2196,0.2275,0.2354,0.2433,0.2276,0.1964,0.1887,0.1727,0.125,0.1076,0.0989,0.1083,0.0973,0.073,0.0374,0.0,0.0,0.0,0.0,0.0,0.0,0.0,0.0,0.0,0.0,0.0953,0.0,0.0,0.0,0.0,0.0,0.0,0.0,0.0,0.5477,0.0,0.6044,0.0,0.0,0.0,0.5867,0.5557,0.6116,0.6015,0.5428,0.5913,0.5697,0.4877,0.4706,0.4386,0.4001,0.4131,0.4184,0.424,0.4284,0.43,0.43,0.43,0.4164,0.4028,0.0,0.0,0.0,0.0,0.0,0.0,0.0,-0.9427,0.0,-0.9061,-0.8738,-0.8527,-0.8474,-0.848,-0.8109,-0.7192,-0.6869,-0.6327,-0.5352,-0.5489,-0.5697,-0.5908,-0.6056,0.0,-0.6762,-0.6289,-0.6187,-0.6587,0.0,0.0,0.0,0.0,0.0,0.0,0.0,-0.4068,0.0,0.0,0.0,-0.152,-0.1174,-0.1263,-0.1614,-0.1412,-0.1412,-0.1614,-0.1748,-0.1547,-0.121,-0.047,-0.0136,0.0207,0.1417,0.1802,0.1759,0.221,0.2312,0.2241,0.2192,0.2199,0.212,0.1807,0.1729,0.165,0.1336,0.1246,0.1239,0.1254,0.1221,0.0963,0.0292,-0.0214,0.0,0.0,0.0,0.0,0.0,0.0,0.0,0.0,0.0,0.0,0.0,0.0,0.0,0.0,0.0,0.0,0.0,0.0,0.5038,0.0,0.0,0.0,0.5911,0.0,0.5732,0.5589,0.5841,0.5762,0.5428,0.5752,0.5492,0.4899,0.4761,0.4527,0.4238,0.4265,0.4333,0.43,0.43,0.43,0.43,0.43,0.4097,0.3892,0.0,-1.0829,0.0,0.0,-0.9791,0.0,-1.0268,-0.988,-0.9512,-0.944,-0.8932,-0.8573,-0.848,-0.8699,-0.8374,-0.7348,-0.7192,-0.6652,-0.5626,-0.5444,-0.557,-0.5848,-0.5948,-0.6208,-0.6716,-0.629,-0.6227,0.0,0.0,0.0,0.0,0.0,0.0,0.0,0.0,0.0,0.0,0.0,-0.2359,-0.2049,-0.145,-0.1533,-0.1868,-0.1543,-0.1547,-0.1681,-0.1817,-0.1344,-0.0538,-0.0403,0.0336,0.1149,0.1459,0.1893,0.2195,0.2152,0.2106,0.2039,0.1925,0.1858,0.186,0.1636,0.156,0.1562,0.1334,0.1335,0.1334,0.1249,0.1228,0.0973,0.0287,0.0215,0.0,0.0,0.0,0.0,0.0,0.0,0.0,0.0,0.0,0.0,0.0901,0.0,0.0,0.0,0.0,0.0,0.3769,0.0,0.0,0.0,0.0,0.5637,0.5708,0.0,0.5576,0.5542,0.542,0.5428,0.5428,0.5428,0.5199,0.4918,0.4793,0.4667,0.4516,0.4377,0.4364,0.4367,0.43,0.43,0.43,0.4233,0.4028,0.3825,0.0,0.0,0.0,0.0,0.0,0.0,-1.006,-0.9814,-0.9744,-0.9853,-0.9103,-0.8633,-0.8752,-0.8804,-0.8533,-0.7871,-0.7402,-0.6869,-0.6327,-0.601,-0.5819,-0.583,-0.5984,-0.6067,-0.6091,-0.589,-0.5974,0.0,0.0,-0.6101,0.0,0.0,0.0,0.0,0.0,0.0,0.0,-0.3015,-0.2348,-0.1986,-0.1726,-0.1811,-0.2013,-0.1866,-0.1884,-0.1884,-0.1884,-0.1008,0.0202,0.0202,0.0605,0.1216,0.1878,0.2174,0.2187,0.2105,0.2124,0.2051,0.1836,0.1837,0.1772,0.1587,0.152,0.1453,0.1329,0.1335,0.1249,0.1221,0.1214,0.0983,0.0226,0.0689,0.0912,0.0,0.0,0.0,0.0,0.0,0.105,0.0,0.0,0.0,0.0,0.1066,0.0,0.0,0.212,0.0,0.0,0.0,0.0,0.4568,0.4722,0.5001,0.5403,0.5528,0.5518,0.5449,0.5435,0.5428,0.5428,0.5428,0.5199,0.4918,0.4857,0.4786,0.4588,0.4314,0.4345,0.4561,0.4367,0.43,0.43,0.4097,0.3961,0.3758,0.0,0.0,0.0,0.0,0.0,0.0,0.0,-1.0109,-0.9907,-0.9665,-0.9112,-0.8745,-0.8804,-0.8804,-0.848,-0.761,-0.7343,-0.6864,-0.6114,-0.5921,-0.5819,-0.58,-0.5865,-0.6032,-0.636,-0.6133,-0.6289,0.0,0.0,0.0,0.0,0.0,0.0,0.0,0.0,-0.4381,-0.3992,-0.2884,-0.2443,-0.2407,-0.1874,-0.1902,-0.2196,-0.2025,-0.1855,-0.1749,-0.2018,-0.1076,0.0269,0.0134,0.0874,0.182,0.2115,0.2121,0.1996,0.1909,0.1781,0.1644,0.1453,0.1459,0.1389,0.1329,0.1333,0.1342,0.1223,0.123,0.1226,0.1214,0.1212,0.0984,0.0151,0.0763,0.1066,0.0221,0.0,0.0,0.0,0.0,0.0,0.0,0.0,0.0,0.0,0.0,0.0,0.0,0.0,0.0,0.0,0.0,0.0,0.4041,0.0,0.5027,0.4894,0.5289,0.542,0.5428,0.5428,0.5428,0.5428,0.5428,0.5199,0.4914,0.4823,0.471,0.4613,0.4513,0.4528,0.4561,0.4364,0.43,0.43,0.4097,0.3892,0.3758,-1.2038,0.0,-1.1305,0.0,-1.1247,-1.1127,-1.0671,-1.0448,-1.0201,-0.9715,-0.9354,-0.9061,-0.8804,-0.8804,-0.8533,-0.7777,-0.745,-0.7025,-0.6337,-0.6069,-0.5967,-0.5905,-0.5958,0.0,-0.6483,-0.6235,-0.6415,-0.7069,-0.6529,0.0,0.0,0.0,0.0,0.0,-0.5199,-0.4566,-0.4111,-0.3055,-0.2682,-0.2711,-0.2196,-0.2168,-0.242,-0.2227,-0.2063,-0.1837,-0.2101,-0.112,0.0266,0.0199,0.1135,0.2221,0.2154,0.2018,0.1891,0.1653,0.1454,0.1321,0.1205,0.1211,0.1211,0.1211,0.1147,0.1086,0.1032,0.0968,0.0899,0.0974,0.0819,0.0595,0.0227,0.053,0.0755,0.015,0.0,0.0,0.0,0.02,0.0,0.0,0.0541,0.0815,0.09,0.1132,0.0,0.0,0.0,0.0,0.0,0.0,0.0,0.0,0.0,0.0,0.4501,0.5074,0.5428,0.5428,0.5428,0.5428,0.5425,0.527,0.5118,0.4911,0.4758,0.4654,0.4616,0.4634,0.464,0.4558,0.4431,0.4364,0.43,0.4097,0.3961,0.3825,-1.1932,-1.1835,-1.1713,-1.137,-1.1553,-1.1621,-1.1046,-1.0901,-1.0632,-1.0141,-1.0023,-0.9666,-0.891,-0.8804,-0.8804,-0.8804,-0.7883,-0.7348,-0.7467,-0.6753,-0.6276,0.0,0.0,-0.6379,-0.6187,-0.6182,-0.6384,-0.6796,0.0,0.0,-0.7207,0.0,-0.6598,-0.6542,-0.5687,-0.5079,-0.4645,-0.369,-0.3173,-0.2946,-0.2684,-0.2641,-0.2716,-0.2593,-0.2532,-0.2345,-0.2097,-0.1068,0.0129,0.0451,0.1379,0.2357,0.2018,0.1884,0.1817,0.1412,0.1278,0.1278,0.1144,0.1212,0.1279,0.1144,0.1031,0.0841,0.0631,0.0358,0.0219,0.0437,-0.0,-0.0214,0.03,0.0151,-0.0,-0.0,0.0,0.0,0.0,0.0,0.0,0.0248,0.036,0.0523,0.0844,0.1156,0.0,0.0,0.0,0.0,0.0,0.0,0.0,0.2405,0.3042,0.0,0.4301,0.5019,0.5428,0.5428,0.5428,0.5428,0.5418,0.506,0.4921,0.4911,0.4758,0.4654,0.4616,0.4826,0.4773,0.4625,0.4625,0.4495,0.43,0.4097,0.4028,0.3961,-1.2361,-1.2263,-1.2112,-1.1973,-1.2305,-1.2224,-1.1163,-1.1161,-1.094,-0.9992,-0.9977,-0.9865,-0.951,-0.9309,-0.9001,0.0,-0.7788,-0.7354,0.0,-0.6564,-0.6243,-0.6178,-0.6239,-0.6304,-0.6379,-0.6379,-0.6515,-0.6791,0.0,0.0,0.0,-0.6199,-0.618,-0.6426,-0.5574,-0.4906,-0.4392,-0.3595,-0.3036,-0.2655,-0.2573,-0.2497,-0.245,-0.2569,-0.2483,-0.228,-0.2282,-0.1256,0.0129,0.0129,0.1116,0.2288,0.1817,0.1681,0.1614,0.1345,0.1277,0.1277,0.1143,0.1277,0.148,0.1277,0.1015,0.0822,0.0837,0.0423,-0.0,-0.0,-0.0141,-0.0352,-0.0788,-0.0437,-0.0366,-0.1069,-0.0629,0.0,-0.0854,0.0,-0.0302,-0.0239,-0.0,0.0227,0.0505,0.0736,0.0,0.0,0.0,0.0,0.0,0.0,0.0,0.0,0.3325,0.0,0.4096,0.4935,0.5425,0.5554,0.5425,0.5428,0.5418,0.5053,0.4918,0.4911,0.4758,0.4654,0.4616,0.4697,0.4705,0.4694,0.4498,0.4431,0.4495,0.4095,0.4028,0.3961,-1.2744,-1.2683,-1.2683,-1.2552,-1.2744,-1.2578,-1.1518,-1.1495,-1.1198,-1.0311,-1.0387,-1.0387,-1.0087,-0.9932,0.0,-0.8738,-0.7943,-0.7413,-0.7144,-0.6554,-0.6178,-0.6178,-0.6178,-0.6234,-0.636,-0.636,0.0,-0.6674,-0.6618,-0.6595,-0.6483,-0.6249,-0.6217,-0.6261,-0.5783,-0.5034,-0.4143,-0.3743,-0.3213,-0.2624,-0.2591,-0.2516,-0.2527,-0.2673,-0.2576,-0.2381,-0.2322,-0.1456,-0.0187,-0.0,0.084,0.1791,0.1743,0.1547,0.1277,0.121,0.1277,0.1275,0.1129,0.1391,0.1646,0.1483,0.1173,0.0801,0.0274,-0.0138,-0.0414,-0.0553,-0.0553,-0.0692,-0.1189,-0.0845,-0.0774,-0.1384,-0.1012,-0.0787,-0.1146,0.0,-0.0648,0.0,0.0,0.0,0.0,0.0624,0.0919,0.0,0.0,0.0,0.0,0.0,0.0,0.1636,0.2792,0.3467,0.3495,0.4463,0.5061,0.5202,0.5332,0.5428,0.5418,0.5053,0.4918,0.4914,0.4756,0.4587,0.4559,0.4623,0.462,0.4631,0.4431,0.4431,0.4428,0.4228,0.4097,0.4161,-1.2928,-1.3119,-1.3172,0.0,-1.2839,0.0,-1.2081,-1.1793,-1.1442,-1.0971,-1.1124,-1.1124,-1.0624,-1.0624,-1.036,-0.9569,0.0,0.0,0.0,-0.6717,-0.6232,-0.6178,-0.6178,-0.6178,-0.6178,-0.6178,-0.6267,-0.6454,-0.6651,-0.6749,-0.6749,-0.6749,-0.6524,-0.6054,-0.6173,-0.5389,-0.4021,-0.3956,-0.3524,-0.2811,-0.2725,-0.2742,-0.2809,-0.2839,-0.2805,-0.2635,-0.2352,-0.1603,-0.0651,0.0061,0.0628,0.1037,0.166,0.1339,0.0805,0.1008,0.121,0.127,0.1107,0.142,0.1717,0.1561,0.13,0.0651,-0.0802,-0.1078,-0.1079,-0.1079,-0.1079,-0.1087,-0.1113,-0.1093,-0.1139,-0.1139,-0.1047,-0.1018,-0.0989,-0.0959,-0.094,0.0,0.0,0.0,-0.0336,0.0577,0.1012,0.0,0.0,0.0,0.0,0.0,0.1309,0.134,0.1808,0.2309,0.2629,0.3755,0.4421,0.4574,0.516,0.5428,0.5418,0.5064,0.4928,0.4918,0.4732,0.4543,0.4439,0.4705,0.4622,0.4367,0.4495,0.4495,0.43,0.43,0.43,0.4364,0.0,0.0,-1.2838,-1.2679,-1.2672,-1.2512,-1.191,-1.1794,-1.1599,-1.1124,-1.1226,-1.1217,-1.0972,-1.082,-1.0616,-1.0403,-0.9295,-0.8349,-0.767,-0.7192,-0.6657,-0.6232,-0.6178,-0.6178,-0.6178,-0.6178,-0.6201,-0.6248,-0.6235,-0.6202,-0.6202,-0.6095,-0.5961,-0.5861,-0.5409,-0.4823,-0.4125,-0.3741,-0.3205,-0.2721,-0.2699,-0.2703,-0.2721,-0.2755,-0.2747,-0.2691,-0.2635,-0.18,-0.0668,-0.0418,0.0375,0.1323,0.1467,0.1153,0.0786,0.1003,0.1008,0.0935,0.1042,0.1161,0.1213,0.0863,0.0503,-0.0,-0.0868,-0.1076,-0.1077,-0.1079,-0.1212,-0.128,-0.1289,-0.1261,-0.1237,-0.1237,-0.106,-0.0902,-0.0895,-0.0928,-0.0909,0.0,-0.0845,-0.0673,-0.0393,-0.017,0.0173,0.0,0.0,0.0,0.1364,0.1321,0.1323,0.1433,0.1949,0.2434,0.2925,0.3967,0.4705,0.5176,0.5345,0.5428,0.5422,0.5165,0.502,0.4918,0.4857,0.4668,0.443,0.4601,0.4602,0.4495,0.4431,0.4431,0.4495,0.4161,0.4097,0.4161,-1.2802,-1.2987,-1.3047,-1.2739,-1.2645,-1.2397,-1.1873,-1.1696,-1.1456,-1.1201,-1.1267,-1.1267,-1.1226,-1.1074,-1.0922,-1.082,-0.971,-0.8666,-0.7925,-0.7402,-0.682,-0.6232,-0.6178,-0.6178,-0.6178,-0.6178,-0.6178,-0.6178,-0.6119,-0.6114,-0.6114,-0.6014,-0.5955,-0.59,-0.5618,-0.5011,-0.4177,-0.3962,-0.3411,-0.2691,-0.2691,-0.2691,-0.2691,-0.2691,-0.2691,-0.2691,-0.2691,-0.212,-0.1356,-0.0941,-0.0426,0.0126,0.0808,0.0625,0.0254,0.0709,0.0906,0.0965,0.1062,0.1363,0.1362,0.0309,-0.0253,-0.0586,-0.1003,-0.1076,-0.1144,-0.1212,-0.1199,-0.1189,-0.1319,-0.1211,-0.1114,-0.1114,-0.1012,-0.0922,-0.0922,-0.0908,-0.0898,-0.0898,-0.0898,-0.0785,-0.0449,-0.0561,-0.0284,0.0529,0.0599,0.0,0.135,0.1438,0.144,0.1482,0.1802,0.2081,0.2355,0.3537,0.4408,0.4997,0.5262,0.5428,0.5422,0.5203,0.5053,0.4918,0.4732,0.4543,0.443,0.4379,0.4381,0.4431,0.4367,0.4367,0.4431,0.4231,0.4295,0.4558,-1.2855,-1.305,-1.3127,-1.2888,-1.2513,-1.2146,-1.1839,-1.1524,-1.1326,-1.1326,-1.1326,-1.1326,-1.1326,-1.1326,-1.1226,-1.0972,-0.9917,-0.8974,-0.8178,-0.7605,-0.6977,-0.6232,-0.6178,-0.6178,-0.6178,-0.6178,-0.6178,-0.6178,-0.6178,-0.6178,-0.6178,-0.6178,-0.6119,-0.6005,-0.595,-0.5289,-0.4233,-0.4239,-0.3633,-0.2691,-0.2691,-0.2691,-0.2691,-0.2691,-0.2691,-0.2691,-0.2691,-0.2529,-0.2151,-0.1447,-0.1411,-0.1371,0.0061,-0.0,-0.0429,0.0305,0.0731,0.1031,0.1067,0.1415,0.1307,-0.0184,-0.0821,-0.1106,-0.1069,-0.1076,-0.1141,-0.1204,-0.1116,-0.1031,-0.1217,-0.1041,-0.0884,-0.0884,-0.0917,-0.0898,-0.0898,0.0,-0.0898,-0.0898,-0.0898,-0.0785,-0.0505,-0.0673,-0.0455,0.0294,0.0589,0.0847,0.122,0.1481,0.1611,0.1611,0.1539,0.1624,0.1899,0.311,0.4018,0.4653,0.5166,0.5415,0.5321,0.5189,0.504,0.4823,0.4572,0.4391,0.4339,0.4267,0.4263,0.4378,0.4397,0.4403,0.4406,0.4292,0.4628,0.5219,-1.2388,-1.2118,-1.1866,-1.2099,-1.1792,-1.1589,-1.1797,-1.1524,-1.1326,-1.1326,-1.1326,-1.1326,-1.1326,-1.1326,-1.1276,-1.1226,-1.0863,-0.9917,-0.8383,-0.8171,-0.7545,-0.6228,-0.6178,-0.6178,-0.6178,-0.6178,-0.6178,-0.6178,-0.6178,-0.6178,-0.6178,-0.6178,-0.6178,-0.6119,-0.5179,-0.4629,-0.4405,-0.3411,-0.2856,-0.2691,-0.2691,-0.2691,-0.2691,-0.2691,-0.2691,-0.2691,-0.2691,-0.2683,-0.2505,-0.1876,-0.1758,-0.1582,-0.0058,-0.0232,-0.0827,0.023,0.057,0.0687,0.0996,0.0294,-0.0653,-0.0919,-0.1075,-0.1106,-0.1069,-0.1076,-0.1069,-0.1045,-0.1037,-0.1026,-0.1062,-0.0967,-0.0884,-0.0884,-0.0917,-0.0898,-0.0898,0.0,-0.0898,-0.0898,-0.0898,-0.0898,-0.0842,-0.0561,-0.0341,-0.0294,-0.0,0.0424,0.1091,0.1417,0.174,0.1998,0.1761,0.222,0.3297,0.4023,0.4659,0.5262,0.5348,0.5291,0.5165,0.5142,0.4982,0.4724,0.4546,0.437,0.4259,0.4624,0.4777,0.4739,0.4861,0.4906,0.4794,0.4257,0.4492,0.5153,-1.2413,-1.2339,-1.2239,-1.1948,-1.1747,-1.1614,-1.1515,-1.1387,-1.1326,-1.1326,-1.1326,-1.1326,-1.1326,-1.1326,-1.1326,-1.1326,-1.1175,-1.0379,-0.8633,-0.8376,-0.7753,-0.6544,-0.6282,-0.6178,-0.6178,-0.6178,-0.6178,-0.6178,-0.6178,-0.6178,-0.6178,-0.6178,-0.6178,-0.6178,-0.5285,-0.4791,-0.4463,-0.3574,-0.3021,-0.2691,-0.2691,-0.2691,-0.2691,-0.2691,-0.2747,-0.2805,-0.2805,-0.2832,-0.2748,-0.2422,-0.2291,-0.2047,-0.034,-0.0397,-0.0915,-0.0056,0.0224,0.017,-0.0,-0.0294,-0.0594,-0.0981,-0.1075,-0.1097,-0.1029,-0.1042,-0.1045,-0.1143,-0.1059,-0.0981,-0.1087,-0.0998,-0.0918,-0.0918,-0.0907,0.0,-0.0898,-0.0898,-0.0898,-0.0898,-0.0898,-0.0842,-0.0673,-0.0617,-0.0508,-0.0229,-0.0058,0.0358,0.1104,0.1773,0.2109,0.2078,0.2233,0.2828,0.3867,0.4301,0.4656,0.5045,0.5256,0.5281,0.5131,0.5131,0.4969,0.4691,0.4458,0.4458,0.4687,0.4742,0.4942,0.5268,0.5283,0.5253,0.5271,0.5044,0.5243,0.5694,-1.2163,-1.2265,-1.2265,-1.1766,-1.1659,-1.154,-1.1439,-1.1327,-1.1326,-1.1326,-1.1326,-1.1326,-1.1326,-1.1326,-1.1326,-1.1326,-1.1326,-1.0685,-0.9214,-0.8849,-0.8072,-0.6652,-0.6337,-0.6178,-0.6178,-0.6178,-0.6178,-0.6178,-0.6178,-0.6178,-0.6178,-0.6178,-0.6178,-0.6173,-0.5449,-0.4897,-0.4463,-0.3683,-0.3132,-0.2691,-0.2691,-0.2691,-0.2691,-0.2691,-0.2802,-0.2916,-0.286,-0.286,-0.286,-0.2747,-0.2581,-0.2193,-0.101,-0.0729,-0.0785,-0.0336,-0.0224,-0.0282,-0.0752,-0.0527,-0.0356,-0.0729,-0.1001,-0.1081,-0.0994,-0.1006,-0.1014,-0.1169,-0.1019,-0.0882,-0.0934,-0.0799,-0.0673,-0.0673,0.0,-0.056,-0.0842,-0.0673,-0.056,-0.0842,-0.0673,-0.0392,0.0056,-0.0224,-0.0336,0.0112,0.0057,0.0409,0.1353,0.2168,0.2665,0.2702,0.2933,0.3475,0.4276,0.4598,0.4797,0.4929,0.5202,0.523,0.5081,0.5043,0.4887,0.4636,0.4352,0.4521,0.5034,0.4923,0.5219,0.5801,0.5731,0.5688,0.5648,0.5697,0.5924,0.6198,-1.1304,-1.0946,-1.0825,-1.1321,-1.1187,-1.1174,-1.1703,-1.1499,-1.1326,-1.1326,-1.1326,-1.1326,-1.1326,-1.1326,-1.1326,-1.1326,-1.1326,-1.1015,-1.0344,-1.002,-0.881,-0.6337,-0.6228,-0.6178,-0.6178,-0.6178,-0.6178,-0.6178,-0.6178,-0.6178,-0.6178,-0.6178,-0.6178,-0.6178,-0.5069,-0.4519,-0.4408,-0.3244,-0.2747,-0.2691,-0.2691,-0.2691,-0.2691,-0.2691,-0.2802,-0.286,-0.2747,-0.2805,-0.286,-0.2747,-0.213,-0.1515,-0.2249,-0.1403,-0.0168,-0.0673,-0.0842,-0.0729,-0.0225,-0.0518,-0.0825,-0.0532,-0.0727,-0.0991,-0.0988,-0.099,-0.0983,-0.0953,-0.0885,-0.0759,-0.017,-0.0056,-0.0056,-0.0056,0.0,0.0,-0.0729,0.0056,0.0335,-0.0785,-0.0056,0.0783,0.1572,0.1122,0.0729,0.0561,-0.0,0.0342,0.2049,0.2488,0.3355,0.4851,0.4156,0.4163,0.4921,0.5322,0.5533,0.5529,0.527,0.5074,0.4928,0.4789,0.4633,0.448,0.4317,0.448,0.4971,0.5364,0.5753,0.616,0.6299,0.6257,0.6103,0.5704,0.582,0.6289,-1.1358,-1.1202,-1.108,-1.1197,-1.1115,-1.1124,-1.1464,-1.137,-1.1326,-1.1326,-1.1326,-1.1276,-1.1175,-1.1267,-1.1276,-1.1175,-1.1267,-1.0913,-0.9976,-0.9821,-0.8922,-0.7074,-0.6495,-0.6178,-0.6178,-0.6178,-0.6178,-0.6178,-0.6178,-0.6178,-0.6178,-0.6178,-0.6178,-0.6178,-0.5014,-0.4519,-0.4405,-0.3188,-0.2691,-0.2691,-0.2691,-0.2691,-0.2691,-0.2802,-0.2914,-0.3023,-0.3135,-0.3193,-0.3193,-0.3079,-0.2294,-0.1288,-0.1065,-0.0561,-0.0112,-0.0729,-0.0898,-0.0842,-0.0617,-0.0566,-0.0632,-0.0704,-0.0833,-0.1015,-0.0937,-0.0947,-0.0952,-0.0921,-0.0915,-0.0854,-0.0618,-0.0224,0.0224,0.0842,0.0,0.0504,0.0336,0.0672,0.0896,0.0783,0.0783,0.1286,0.2469,0.2581,0.2244,0.14,0.1599,0.2129,0.3022,0.3294,0.4134,0.5535,0.5117,0.5137,0.5856,0.5625,0.5539,0.5664,0.5192,0.4921,0.4775,0.4718,0.4606,0.4519,0.4677,0.5007,0.55,0.5932,0.6372,0.6761,0.6634,0.6553,0.6517,0.6333,0.6276,0.6246,-1.1194,-1.1145,-1.1116,-1.1014,-1.1023,-1.1124,-1.1226,-1.1267,-1.1326,-1.1326,-1.1276,-1.1226,-1.1175,-1.1226,-1.1226,-1.1175,-1.1226,-1.0863,-0.9984,-0.9614,-0.8817,-0.7444,-0.6815,-0.6391,-0.6178,-0.6178,-0.6178,-0.6178,-0.6178,-0.6178,-0.6178,-0.6178,-0.6178,-0.6178,-0.5014,-0.4519,-0.4405,-0.3188,-0.2691,-0.2691,-0.2691,-0.2747,-0.2747,-0.286,-0.3026,-0.3188,-0.3299,-0.3357,-0.3413,-0.3304,-0.2687,-0.1623,-0.0392,-0.0,-0.0056,-0.0505,-0.0729,-0.0898,-0.0785,-0.0561,-0.0507,-0.0808,-0.0928,-0.0981,-0.0902,-0.0913,-0.0922,-0.0902,-0.0898,-0.0898,-0.0898,-0.028,0.056,0.1685,0.1402,0.1064,0.1063,0.1288,0.1681,0.2296,0.1846,0.1958,0.314,0.3426,0.3198,0.2406,0.2921,0.3465,0.3928,0.4243,0.4832,0.5751,0.5656,0.578,0.6254,0.5857,0.5668,0.5685,0.5272,0.4956,0.4803,0.4754,0.4674,0.4574,0.5062,0.5441,0.5828,0.6258,0.6696,0.7085,0.6918,0.6756,0.6722,0.6764,0.6512,0.6251,-1.0522,-1.0616,-1.0718,-1.0718,-1.0922,-1.1124,-1.1124,-1.1217,-1.1326,-1.1326,-1.1175,-1.1175,-1.1276,-1.1175,-1.1175,-1.1276,-1.1175,-1.0972,-1.0718,-0.9614,-0.8455,-0.7139,-0.7085,-0.6815,-0.6232,-0.6178,-0.6178,-0.6178,-0.6178,-0.6178,-0.6178,-0.6178,-0.6178,-0.6123,-0.5014,-0.4519,-0.4405,-0.3188,-0.2691,-0.2691,-0.2691,-0.2802,-0.2916,-0.2916,-0.3081,-0.3357,-0.3188,-0.3244,-0.3416,-0.3312,-0.32,-0.2749,-0.0672,-0.0,-0.0,-0.0,-0.0449,-0.0842,-0.0505,-0.0393,-0.0505,-0.0842,-0.0898,-0.0898,-0.0898,-0.0898,-0.0898,-0.0898,-0.0898,-0.0898,-0.0898,-0.0056,0.1063,0.2473,0.2695,0.2298,0.1065,0.1962,0.2916,0.354,0.32,0.3084,0.353,0.3421,0.3368,0.3585,0.3593,0.3931,0.4759,0.5311,0.557,0.557,0.5806,0.588,0.5888,0.6101,0.5969,0.557,0.5457,0.5311,0.5085,0.4975,0.4849,0.4743,0.5348,0.5673,0.5828,0.6372,0.681,0.7085,0.7085,0.6923,0.6701,0.6701,0.649,0.6232,-1.1259,-1.1065,-1.0871,-1.0972,-1.1074,-1.1124,-1.1226,-1.1267,-1.1326,-1.1326,-1.1276,-1.1226,-1.1175,-1.1226,-1.1226,-1.1175,-1.1226,-1.1074,-1.0573,-0.9658,-0.8712,-0.7717,-0.7295,-0.6815,-0.6232,-0.6178,-0.6178,-0.6178,-0.6178,-0.6178,-0.6178,-0.6178,-0.5955,-0.5559,-0.4846,-0.4239,-0.3793,-0.3021,-0.2747,-0.286,-0.286,-0.2914,-0.3077,-0.319,-0.3304,-0.3413,-0.3413,-0.3471,-0.3527,-0.353,-0.3479,-0.303,-0.0728,-0.0,-0.0,-0.0,-0.0112,-0.028,-0.0393,-0.0393,-0.0505,-0.0842,-0.0898,-0.0898,-0.0898,-0.0898,-0.0842,-0.0617,-0.0561,-0.0617,-0.0842,-0.0448,0.0504,0.2419,0.2699,0.2583,0.2186,0.2693,0.3198,0.3418,0.3418,0.3471,0.3583,0.353,0.353,0.3585,0.3971,0.4324,0.4591,0.5251,0.5572,0.5572,0.5808,0.582,0.5697,0.5684,0.5564,0.5463,0.5163,0.5024,0.4971,0.4923,0.4849,0.4746,0.5727,0.6,0.5882,0.6864,0.7192,0.7085,0.6982,0.6928,0.682,0.6761,0.6652,0.6544,-1.151,-1.1167,-1.082,-1.0871,-1.0972,-1.1023,-1.1074,-1.1124,-1.1175,-1.1217,-1.1175,-1.1124,-1.1124,-1.1124,-1.1124,-1.1023,-1.1023,-1.082,-1.047,-0.9614,-0.8764,-0.7925,-0.7402,-0.6815,-0.6232,-0.6178,-0.6178,-0.6178,-0.6178,-0.6178,-0.6178,-0.6178,-0.5896,-0.5391,-0.4842,-0.4291,-0.3741,-0.3132,-0.2912,-0.297,-0.297,-0.3079,-0.3244,-0.3357,-0.3413,-0.3471,-0.3583,-0.3585,-0.3585,-0.3585,-0.3593,-0.3205,-0.0785,-0.0,-0.0056,-0.028,-0.0168,-0.0056,-0.0224,-0.0224,-0.028,-0.0505,-0.0617,-0.0729,-0.0729,-0.0785,-0.0842,-0.0617,-0.0393,-0.028,-0.0505,-0.0393,0.0393,0.2361,0.2585,0.2527,0.2805,0.3028,0.3251,0.3413,0.3471,0.3527,0.3585,0.3585,0.3585,0.3585,0.4135,0.4519,0.4519,0.5174,0.5579,0.5454,0.5685,0.5693,0.551,0.5401,0.5349,0.5345,0.5241,0.5131,0.5069,0.5069,0.5069,0.5179,0.6105,0.6322,0.6209,0.7139,0.7354,0.7085,0.7036,0.6933,0.6879,0.682,0.6761,0.6701,-1.1401,-1.1065,-1.0667,-1.0573,-1.0718,-1.0871,-1.0718,-1.082,-1.0922,-1.1074,-1.0972,-1.0972,-1.1074,-1.0972,-1.0922,-1.0922,-1.0718,-1.0522,-1.0368,-0.9458,-0.8659,-0.7978,-0.7343,-0.6761,-0.6232,-0.6178,-0.6178,-0.6178,-0.6178,-0.6178,-0.6178,-0.6178,-0.5955,-0.5508,-0.4948,-0.4401,-0.391,-0.3352,-0.313,-0.313,-0.313,-0.3244,-0.3413,-0.3413,-0.3471,-0.3585,-0.3585,-0.3585,-0.3583,-0.3527,-0.337,-0.2871,-0.0673,-0.0,-0.0112,-0.0673,-0.0449,-0.0056,-0.0,-0.0,-0.0,-0.0,-0.0168,-0.0336,-0.0336,-0.0617,-0.0785,-0.0729,-0.028,0.0056,0.0056,-0.0,0.0561,0.2193,0.23,0.2354,0.2919,0.3081,0.3188,0.3357,0.3413,0.3471,0.3583,0.3585,0.3585,0.3585,0.4135,0.4519,0.4463,0.5159,0.5458,0.5301,0.545,0.551,0.5301,0.5297,0.5297,0.5301,0.5515,0.5506,0.5352,0.5352,0.5567,0.5882,0.6426,0.6642,0.6696,0.7246,0.7354,0.7139,0.7139,0.7036,0.6933,0.6933,0.682,0.6756,-1.1551,-1.1167,-1.0871,-1.082,-1.0871,-1.0871,-1.0871,-1.0871,-1.0922,-1.0922,-1.1023,-1.1074,-1.1124,-1.1074,-1.1124,-1.1226,-1.1175,-1.1023,-1.0769,-0.9436,-0.8488,-0.8231,-0.6961,-0.6223,-0.6178,-0.6178,-0.6178,-0.6178,-0.6178,-0.6178,-0.6178,-0.6178,-0.5727,-0.4893,-0.4783,-0.4177,-0.3297,-0.313,-0.3188,-0.3357,-0.3357,-0.3413,-0.3583,-0.3583,-0.3583,-0.3585,-0.3585,-0.3585,-0.3527,-0.285,-0.1846,-0.0673,-0.0168,-0.0,-0.0,-0.0168,-0.0449,-0.0617,-0.0112,-0.0,-0.0,-0.0,-0.0056,-0.0112,-0.0112,-0.0168,-0.0056,0.0393,0.0617,0.0617,0.0336,0.0168,0.0112,0.0505,0.1684,0.2699,0.3039,0.3084,0.313,0.3188,0.3413,0.3583,0.3585,0.3585,0.3585,0.3585,0.4135,0.4408,0.4249,0.4945,0.5278,0.5128,0.5278,0.5337,0.5297,0.5297,0.5297,0.5297,0.5337,0.555,0.5841,0.5841,0.6,0.6327,0.6912,0.7015,0.6853,0.7456,0.7515,0.7257,0.7257,0.7198,0.7031,0.7031,0.7031,0.7031,-1.1392,-1.1006,-1.0667,-1.0514,-1.0565,-1.0616,-1.0616,-1.0616,-1.0667,-1.0769,-1.0871,-1.0922,-1.0922,-1.0922,-1.0972,-1.1124,-1.1175,-1.1124,-1.0922,-0.9592,-0.8692,-0.833,-0.7015,-0.6273,-0.6178,-0.6178,-0.6178,-0.6178,-0.6178,-0.6178,-0.6178,-0.6178,-0.5841,-0.5117,-0.4838,-0.4288,-0.3627,-0.3241,-0.3244,-0.3471,-0.3302,-0.3357,-0.3527,-0.3527,-0.3527,-0.3527,-0.3583,-0.3585,-0.3527,-0.313,-0.1902,-0.0561,-0.0112,-0.0,-0.0,-0.0,-0.0224,-0.0449,-0.0449,-0.0224,-0.0,-0.0,-0.0,-0.0,-0.0,-0.0,0.0112,0.0393,0.0673,0.0842,0.0673,0.0505,0.0505,0.0784,0.1625,0.2525,0.3144,0.3307,0.3357,0.3357,0.3471,0.3585,0.3585,0.3581,0.3589,0.3588,0.4138,0.4426,0.4359,0.4967,0.5242,0.5183,0.5242,0.5297,0.5297,0.5297,0.5341,0.5369,0.561,0.5837,0.6105,0.6322,0.6647,0.7025,0.7235,0.7343,0.7402,0.7563,0.7467,0.7317,0.7317,0.7203,0.7085,0.7198,0.709,0.6982,-1.1032,-1.0694,-1.0316,-1.0051,-1.0162,-1.0316,-1.0316,-1.0316,-1.0419,-1.0675,-1.0718,-1.0718,-1.0769,-1.0769,-1.082,-1.0922,-1.1074,-1.1074,-1.0972,-0.9858,-0.8967,-0.8488,-0.7283,-0.6544,-0.6282,-0.6232,-0.6178,-0.6178,-0.6178,-0.6178,-0.6178,-0.6178,-0.6009,-0.5563,-0.4952,-0.4508,-0.4125,-0.3408,-0.3299,-0.3527,-0.3244,-0.3244,-0.3413,-0.3413,-0.3413,-0.3469,-0.3583,-0.3585,-0.3585,-0.3583,-0.2689,-0.1458,-0.0448,-0.0,0.0056,0.0056,0.0056,-0.0112,-0.0617,-0.0393,-0.0,-0.0,-0.0,-0.0,0.0112,0.0056,-0.0,-0.0,0.0393,0.0785,0.0785,0.0842,0.1068,0.1579,0.1909,0.2411,0.3329,0.3485,0.3535,0.3554,0.3556,0.3559,0.3559,0.3532,0.3498,0.3537,0.4019,0.432,0.432,0.4882,0.5206,0.5175,0.529,0.5345,0.5345,0.5345,0.5321,0.5432,0.601,0.6298,0.6315,0.6766,0.7289,0.7783,0.7563,0.7616,0.7955,0.7681,0.7467,0.7311,0.7365,0.7252,0.7139,0.7203,0.7149,0.6928,-1.0146,-1.0095,-1.0051,-0.9999,-1.0162,-1.0316,-1.0316,-1.0419,-1.0522,-1.0667,-1.082,-1.0922,-1.1023,-1.1175,-1.1175,-1.1074,-1.1226,-1.1276,-1.1226,-0.9865,-0.9026,-0.9072,-0.7391,-0.649,-0.6652,-0.6337,-0.6178,-0.6178,-0.6178,-0.6178,-0.6178,-0.6178,-0.6009,-0.5563,-0.4952,-0.4457,-0.3965,-0.3352,-0.3244,-0.3413,-0.3188,-0.3299,-0.3583,-0.3469,-0.3471,-0.3583,-0.3583,-0.3585,-0.3583,-0.3471,-0.3251,-0.2749,-0.1062,-0.0112,0.0336,0.0336,0.0168,-0.0,-0.0112,-0.0056,-0.0,-0.0,-0.0,0.0112,0.0673,0.0393,-0.0,-0.0,0.0056,0.0168,0.0449,0.0729,0.0906,0.0991,0.2343,0.3403,0.3563,0.3483,0.3393,0.3374,0.3445,0.3505,0.3505,0.3518,0.3502,0.3401,0.3719,0.384,0.3701,0.4429,0.4796,0.4718,0.5124,0.5415,0.5415,0.5415,0.5385,0.543,0.6415,0.6774,0.6643,0.7176,0.7681,0.8109,0.8109,0.8109,0.8168,0.7955,0.7681,0.7467,0.7622,0.7408,0.7085,0.7139,0.7085,0.7085,-0.9999,-0.9947,-0.9947,-0.9784,-0.9895,-1.0058,-1.011,-1.0265,-1.047,-1.0667,-1.0769,-1.082,-1.0972,-1.1124,-1.1175,-1.1124,-1.1175,-1.1226,-1.1326,-0.9976,-0.9242,-0.9176,-0.7818,-0.6977,-0.6918,-0.6652,-0.6495,-0.6495,-0.6282,-0.6178,-0.6178,-0.6178,-0.6123,-0.59,-0.5011,-0.457,-0.446,-0.3411,-0.3135,-0.3357,-0.3079,-0.3135,-0.3302,-0.3244,-0.3357,-0.3471,-0.3471,-0.3471,-0.3471,-0.3299,-0.2965,-0.2521,-0.2071,-0.0728,0.0673,0.0673,0.0617,0.0505,0.0505,0.028,-0.0,-0.0,-0.0,0.0168,0.0785,0.0673,0.0393,0.0056,-0.0,0.0056,0.0168,0.0285,0.0405,0.0411,0.1592,0.2736,0.344,0.3461,0.3387,0.3373,0.338,0.3442,0.3442,0.3435,0.3402,0.339,0.3626,0.3753,0.3691,0.4238,0.454,0.4516,0.4706,0.4831,0.4861,0.5011,0.5076,0.5102,0.6285,0.6837,0.6852,0.7605,0.8142,0.8421,0.8168,0.8162,0.8268,0.7949,0.7729,0.7622,0.767,0.7563,0.73,0.7139,0.7031,0.6982]},{"header":{"parameterUnit":"m.s-1","parameterCategory":1,"la1":30.6,"la2":28.766,"lo1":-90.7593,"lo2":-88.6598,"dy":0.0162,"dx":0.0183,"nx":116,"ny":114,"refTime":"2023-08-02T18:00:00:Z","depth":0,"parameterNumber":3,"parameterNumberName":"V-component_of_WINDS"},"data":[0.0,0.0,0.0,0.0,0.0,0.0,0.0,0.0,0.0,0.0,0.0,0.0,0.0,0.0,0.0,0.0,0.0,0.0,0.0,0.0,0.0,0.0,0.0,0.0,0.0,0.0,0.0,0.0,0.0,0.0,0.0,0.0,0.0,0.0,0.0,0.0,0.0,0.0,0.0,0.0,0.0,0.0,0.0,0.0,0.0,0.0,0.0,0.0,0.0,0.0,0.0,0.0,0.0,0.0,0.0,0.0,0.0,0.0,0.0,0.0,0.0,0.0,0.0,0.0,0.0,0.0,0.0,0.0,0.0,0.0,0.0,0.0,0.0,0.0,0.0,0.0,0.0,0.0,0.0,0.0,0.0,0.0,0.0,0.0,0.0,0.0,0.0,0.0,0.0,0.0,0.0,0.0,0.0,0.0,0.0,0.0,0.0,0.0,0.0,0.0,0.0,0.0,0.0,0.0,0.0,0.0,0.0,0.0,0.0,0.0,0.0,0.0,0.0,0.0,0.0,0.0,0.0,0.0,0.0,0.0,0.0,0.0,0.0,0.0,0.0,0.0,0.0,0.0,0.0,0.0,0.0,0.0,0.0,0.0,0.0,0.0,0.0,0.0,0.0,0.0,0.0,0.0,0.0,0.0,0.0,0.0,0.0,0.0,0.0,0.0,0.0,0.0,0.0,0.0,0.0,0.0,0.0,0.0,0.0,0.0,0.0,0.0,0.0,0.0,0.0,0.0,0.0,0.0,0.0,0.0,0.0,0.0,0.0,0.0,0.0,0.0,0.0,0.0,0.0,0.0,0.0,0.0,0.0,0.0,0.0,0.0,0.0,0.0,0.0,0.0,0.0,0.0,0.0,0.0,0.0,0.0,0.0,0.0,0.0,0.0,0.0,0.0,0.0,0.0,0.0,0.0,0.0,0.0,0.0,0.0,0.0,0.0,0.0,0.0,0.0,0.0,0.0,0.0,0.0,0.0,0.0,0.0,0.0,0.0,0.0,0.0,0.0,0.0,0.0,0.0,0.0,0.0,0.0,0.0,0.0,0.0,0.0,0.0,0.0,0.0,0.0,0.0,0.0,0.0,0.0,0.0,0.0,0.0,0.0,0.0,0.0,0.0,0.0,0.0,0.0,0.0,0.0,0.0,0.0,0.0,0.0,0.0,0.0,0.0,0.0,0.0,0.0,0.0,0.0,0.0,0.0,0.0,0.0,0.0,0.0,0.0,0.0,0.0,0.0,0.0,0.0,0.0,0.0,0.0,0.0,0.0,0.0,0.0,0.0,0.0,0.0,0.0,0.0,0.0,0.0,0.0,0.0,0.0,0.0,0.0,0.0,0.0,0.0,0.0,0.0,0.0,0.0,0.0,0.0,0.0,0.0,0.0,0.0,0.0,0.0,0.0,0.0,0.0,0.0,0.0,0.0,0.0,0.0,0.0,0.0,0.0,0.0,0.0,0.0,0.0,0.0,0.0,0.0,0.0,0.0,0.0,0.0,0.0,0.0,0.0,0.0,0.0,0.0,0.0,0.0,0.0,0.0,0.0,0.0,0.0,0.0,0.0,0.0,0.0,0.0,0.0,0.0,0.0,0.0,0.0,0.0,0.0,0.0,0.0,0.0,0.0,0.0,0.0,0.0,0.0,0.0,0.0,0.0,0.0,0.0,0.0,0.0,0.0,0.0,0.0,0.0,0.0,0.0,0.0,0.0,0.0,0.0,0.0,0.0,0.0,0.0,0.0,0.0,0.0,0.0,0.0,0.0,0.0,0.0,0.0,0.0,0.0,0.0,0.0,0.0,0.0,0.0,0.0,0.0,0.0,0.0,0.0,0.0,0.0,0.0,0.0,0.0,0.0,0.0,0.0,0.0,0.0,0.0,0.0,0.0,0.0,0.0,0.0,0.0,0.0,0.0,0.0,0.0,0.0,0.0,0.0,0.0,0.0,0.0,0.0,0.0,0.0,0.0,0.0,0.0,0.0,0.0,0.0,0.0,0.0,0.0,0.0,0.0,0.0,0.0,0.0,0.0,0.0,0.0,0.0,0.0,0.0,0.0,0.0,0.0,0.0,0.0,0.0,0.0,0.0,0.0,0.0,0.0,0.0,0.0,0.0,0.0,0.0,0.0,0.0,0.0,0.0,0.0,0.0,0.0,0.0,0.0,0.0,0.0,0.0,0.0,0.0,0.0,0.0,0.0,0.0,0.0,0.0,0.0,0.0,0.0,0.0,0.0,0.0,0.0,0.0,0.0,0.0,0.0,0.0,0.0,0.0,0.0,0.0,0.0,0.0,0.0,0.0,0.0,0.0,0.0,0.0,0.0,0.0,0.0,0.0,0.0,0.0,0.0,0.0,0.0,0.0,0.0,0.0,0.0,0.0,0.0,0.0,0.0,0.0,0.0,0.0,0.0,0.0,0.0,0.0,0.0,0.0,0.0,0.0,0.0,0.0,0.0,0.0,0.0,0.0,0.0,0.0,0.0,0.0,0.0,0.0,0.0,0.0,0.0,0.0,0.0,0.0,0.0,0.0,0.0,0.0,0.0,0.0,0.0,0.0,0.0,0.0,0.0,0.0,0.0,0.0,0.0,0.0,0.0,0.0,0.0,0.0,0.0,0.0,0.0,0.0,0.0,0.0,0.0,0.0,0.0,0.0,0.0,0.0,0.0,0.0,0.0,0.0,0.0,0.0,0.0,0.0,0.0,0.0,0.0,0.0,0.0,0.0,0.0,0.0,0.0,0.0,0.0,0.0,0.0,0.0,0.0,0.0,0.0,0.0,0.0,0.0,0.0,0.0,0.0,0.0,0.0,0.0,0.0,0.0,0.0,0.0,0.0,0.0,0.0,0.0,0.0,0.0,0.0,0.0,0.0,0.0,0.0,0.0,0.0,0.0,0.0,0.0,0.0,0.0,0.0,0.0,0.0,0.0,0.0,0.0,0.0,0.0,0.0,0.0,0.0,0.0,0.0,0.0,0.0,0.0,0.0,0.0,0.0,0.0,0.0,0.0,0.0,0.0,0.0,0.0,0.0,0.0,0.0,0.0,0.0,0.0,0.0,0.0,0.0,0.0,0.0,0.0,0.0,0.0,0.0,0.0,0.0,0.0,0.0,0.0,0.0,0.0,0.0,0.0,0.0,0.0,0.0,0.0,0.0,0.0,0.0,0.0,0.0,0.0,0.0,0.0,0.0,0.0,0.0,0.0,0.0,0.0,0.0,0.0,0.0,0.0,0.0,0.0,0.0,0.0,0.0,0.0,0.0,0.0,0.0,0.0,0.0,0.0,0.0,0.0,0.0,0.0,0.0,0.0,0.0,0.0,0.0,0.0,0.0,0.0,0.0,0.0,0.0,0.0,0.0,0.0,0.0,0.0,0.0,0.0,0.0,0.0,0.0,0.0,0.0,0.0,0.0,0.0,0.0,0.0,0.0,0.0,0.0,0.0,0.0,0.0,0.0,0.0,0.0,0.0,0.0,0.0,0.0,0.0,0.0,0.0,0.0,0.0,0.0,0.0,0.0,0.0,0.0,0.0,0.0,0.0,0.0,0.0,0.0,0.0,0.0,0.0,0.0,0.0,0.0,0.0,0.0,0.0,0.0,0.0,0.0,0.0,0.0,0.0,0.0,0.0,0.0,0.0,0.0,0.0,0.0,0.0,0.0,0.0,0.0,0.0,0.0,0.0,0.0,0.0,0.0,0.0,0.0,0.0,0.0,0.0,0.0,0.0,0.0,0.0,0.0,0.0,0.0,0.0,0.0,0.0,0.0,0.0,0.0,0.0,0.0,0.0,0.0,0.0,0.0,0.0,0.0,0.0,0.0,0.0,0.0,0.0,0.0,0.0,0.0,0.0,0.0,0.0,0.0,0.0,0.0,0.0,0.0,0.0,0.0,0.0,0.0,0.0,0.0,0.0,0.0,0.0,0.0,0.0,0.0,0.0,0.0,0.0,0.0,0.0,0.0,0.0,0.0,0.0,0.0,0.0,0.0,0.0,0.0,0.0,0.0,0.0,0.0,0.0,0.0,0.0,0.0,0.0,0.0,0.0,0.0,0.0,0.0,0.0,0.0,0.0,0.0,0.0,0.0,0.0,0.0,0.0,0.0,0.0,0.0,0.0,0.0,0.0,0.0,0.0,0.0,0.0,0.0,0.0,0.0,0.0,0.0,0.0,0.0,0.0,0.0,0.0,0.0,0.0,0.0,0.0,0.0,0.0,0.0,0.0,0.0,0.0,0.0,0.0,0.0,0.0,0.0,0.0,0.0,0.0,0.0,0.0,0.0,0.0,0.0,0.0,0.0,0.0,0.0,0.0,0.0,0.0,0.0,0.0,0.0,0.0,0.0,0.0,0.0,0.0,0.0,0.0,0.0,0.0,0.0,0.0,0.0,0.0,0.0,0.0,0.0,0.0,0.0,0.0,0.0,0.0,0.0,0.0,0.0,0.0,0.0,0.0,0.0,0.0,0.0,0.0,0.0,0.0,0.0,0.0,0.0,0.0,0.0,0.0,0.0,0.0,0.0,0.0,0.0,0.0,0.0,0.0,0.0,0.0,0.0,0.0,0.0,0.0,0.0,0.0,0.0,0.0,0.0,0.0,0.0,0.0,0.0,0.0,0.0,0.0,0.0,0.0,0.0,0.0,0.0,0.0,0.0,0.0,0.0,0.0,0.0,0.0,0.0,0.0,0.0,0.0,0.0,0.0,0.0,0.0,0.0,0.0,0.0,0.0,0.0,0.0,0.0,0.0,0.0,0.0,0.0,0.0,0.0,0.0,0.0,0.0,0.0,0.0,0.0,0.0,0.0,0.0,0.0,0.0,0.0,0.0,0.0,0.0,0.0,0.0,0.0,0.0,0.0,0.0,0.0,0.0,0.0,0.0,0.0,0.0,0.0,0.0,0.0,0.0,0.0,0.0,0.0,0.0,0.0,0.0,0.0,0.0,0.0,0.0,0.0,0.0,0.0,0.0,0.0,0.0,0.0,0.0,0.0,0.0,0.0,0.0,0.0,0.0,0.0,0.0,0.0,0.0,0.0,0.0,0.0,0.0,0.0,0.0,0.0,0.0,0.0,0.0,0.0,0.0,0.0,0.0,0.0,0.0,0.0,0.0,0.0,0.0,0.0,0.0,0.0,0.0,0.0,0.0,0.0,0.0,0.0,0.0,0.0,0.0,0.0,0.0,0.0,0.0,0.0,0.0,0.0,0.0,0.0,0.0,0.0,0.0,0.0,0.0,0.0,0.0,0.0,0.0,0.0,0.0,0.0,0.0,0.0,0.0,0.0,0.0,0.0,0.0,0.0,0.0,0.0,0.0,0.0,0.0,0.0,0.0,0.0,0.0,0.0,0.0,0.0,0.0,0.0,0.0,0.0,0.0,0.0,0.0,0.0,0.0,0.0,0.0,0.0,0.0,0.0,0.0,0.0,0.0,0.0,0.0,0.0,0.0,0.0,0.0,0.0,0.0,0.0,0.0,0.0,0.0,0.0,0.0,0.0,0.0,0.0,0.0,0.0,0.0,0.0,0.0,0.0,0.0,0.0,0.0,0.0,0.0,0.0,0.0,0.0,0.0,0.0,0.0,0.0,0.0,0.0,0.0,0.0,0.0,0.0,0.0,0.0,0.0,0.0,0.0,0.0,0.0,0.0,0.0,0.0,0.0,0.0,0.0,0.0,0.0,0.0,0.0,0.0,0.0,0.0,0.0,0.0,0.0,0.0,0.0,0.0,0.0,0.0,0.0,0.0,0.0,0.0,0.0,0.0,0.0,0.0,0.0,0.0,0.0,0.0,0.0,0.0,0.0,0.0,0.0,0.0,0.0,0.0,0.0,0.0,0.0,0.0,0.0,0.0,0.0,0.0,0.0,0.0,0.0,0.0,0.0,0.0,0.0,0.0,0.0,0.0,0.0,0.0,0.0,0.0,0.0,0.0,0.0,0.0,0.0,0.0,0.0,0.0,0.0,0.0,0.0,0.0,0.0,0.0,0.0,0.0,0.0,0.0,0.0,0.0,0.0,0.0,0.0,0.0,0.0,0.0,0.0,0.0,0.0,0.0,0.0,0.0,0.0,0.0,0.0,0.0,0.0,0.0,0.0,0.0,0.0,0.0,0.0,0.0,0.0,-3.4206,0.0,0.0,0.0,0.0,0.0,0.0,0.0,0.0,0.0,0.0,0.0,0.0,0.0,0.0,0.0,0.0,0.0,0.0,0.0,0.0,0.0,0.0,0.0,0.0,0.0,0.0,0.0,0.0,0.0,0.0,0.0,0.0,0.0,0.0,0.0,0.0,0.0,0.0,0.0,0.0,0.0,0.0,0.0,0.0,0.0,0.0,0.0,0.0,0.0,0.0,0.0,0.0,0.0,0.0,0.0,0.0,0.0,0.0,0.0,0.0,0.0,0.0,0.0,0.0,0.0,0.0,0.0,0.0,0.0,0.0,0.0,0.0,0.0,0.0,0.0,0.0,0.0,0.0,0.0,0.0,0.0,0.0,0.0,0.0,0.0,0.0,0.0,0.0,0.0,0.0,0.0,0.0,0.0,0.0,0.0,0.0,0.0,0.0,0.0,0.0,0.0,0.0,0.0,0.0,0.0,0.0,0.0,0.0,0.0,0.0,0.0,0.0,0.0,0.0,0.0,0.0,-3.5321,0.0,0.0,0.0,0.0,0.0,0.0,0.0,0.0,0.0,0.0,0.0,0.0,0.0,0.0,0.0,0.0,0.0,0.0,0.0,0.0,0.0,0.0,0.0,0.0,0.0,0.0,0.0,0.0,0.0,0.0,0.0,0.0,0.0,0.0,0.0,0.0,0.0,0.0,0.0,0.0,0.0,0.0,0.0,0.0,0.0,0.0,0.0,0.0,0.0,0.0,0.0,0.0,0.0,0.0,0.0,0.0,0.0,0.0,0.0,0.0,0.0,0.0,0.0,0.0,0.0,0.0,0.0,0.0,0.0,0.0,0.0,0.0,0.0,0.0,0.0,0.0,0.0,0.0,0.0,0.0,0.0,0.0,0.0,0.0,0.0,0.0,0.0,0.0,0.0,0.0,0.0,0.0,0.0,0.0,0.0,0.0,0.0,0.0,0.0,0.0,0.0,0.0,0.0,0.0,0.0,0.0,0.0,0.0,-3.5076,-3.5076,-3.5085,-3.58,-3.614,-3.6104,-3.5368,-3.5388,-3.5941,0.0,0.0,0.0,0.0,0.0,0.0,0.0,0.0,0.0,0.0,0.0,0.0,0.0,0.0,0.0,0.0,0.0,0.0,0.0,0.0,0.0,0.0,0.0,0.0,0.0,0.0,0.0,0.0,0.0,0.0,0.0,0.0,0.0,0.0,0.0,0.0,0.0,0.0,0.0,-3.0828,-3.1568,-3.1938,-3.1932,-3.1868,0.0,0.0,0.0,0.0,0.0,0.0,0.0,0.0,0.0,0.0,0.0,0.0,0.0,0.0,0.0,0.0,0.0,0.0,0.0,0.0,0.0,0.0,0.0,0.0,0.0,0.0,0.0,0.0,0.0,0.0,0.0,0.0,0.0,0.0,0.0,0.0,0.0,0.0,0.0,0.0,0.0,0.0,0.0,-3.4724,-3.4775,0.0,0.0,0.0,0.0,0.0,0.0,0.0,0.0,0.0,0.0,0.0,0.0,0.0,-3.6142,-3.5386,-3.6859,-3.7641,-3.7696,-3.7768,-3.7768,-3.7696,-3.7831,-3.787,-3.7851,-3.7754,0.0,-3.6823,-3.6841,0.0,0.0,0.0,0.0,0.0,0.0,0.0,0.0,0.0,0.0,0.0,0.0,0.0,0.0,0.0,0.0,0.0,0.0,0.0,0.0,0.0,0.0,0.0,0.0,0.0,0.0,0.0,0.0,0.0,0.0,0.0,0.0,0.0,0.0,0.0,0.0,-3.0808,-3.1057,-3.1539,-3.1417,-3.1861,-3.277,-3.2745,-3.2739,-3.2791,-3.3161,0.0,0.0,0.0,0.0,0.0,0.0,0.0,0.0,0.0,0.0,0.0,0.0,0.0,0.0,0.0,0.0,0.0,0.0,0.0,0.0,0.0,0.0,0.0,0.0,0.0,0.0,0.0,0.0,0.0,0.0,0.0,0.0,0.0,0.0,0.0,0.0,0.0,0.0,0.0,-3.3158,-3.41,-3.4609,-3.4617,-3.4462,0.0,0.0,0.0,0.0,0.0,0.0,0.0,0.0,0.0,-3.6124,-3.7123,-3.7519,-3.7152,-3.7876,-3.8241,-3.826,-3.8241,-3.823,-3.8199,-3.8199,-3.847,-3.8934,-3.8934,-3.8725,-3.8371,-3.7876,-3.7179,-3.6406,0.0,0.0,0.0,0.0,-3.4426,-3.4259,0.0,0.0,0.0,0.0,0.0,0.0,0.0,0.0,0.0,0.0,0.0,0.0,0.0,0.0,0.0,-2.9026,0.0,0.0,0.0,0.0,0.0,0.0,0.0,0.0,0.0,0.0,0.0,0.0,-3.1018,-3.1349,-3.1778,-3.1787,-3.2348,-3.3315,-3.3763,-3.3842,-3.364,-3.3842,-3.3446,0.0,0.0,0.0,0.0,0.0,0.0,0.0,0.0,0.0,0.0,0.0,0.0,0.0,0.0,0.0,0.0,0.0,0.0,0.0,0.0,0.0,0.0,0.0,0.0,0.0,0.0,0.0,0.0,0.0,0.0,0.0,0.0,0.0,0.0,0.0,0.0,0.0,0.0,-3.3338,-3.4238,-3.4937,-3.4777,-3.463,0.0,0.0,0.0,0.0,0.0,0.0,-3.7333,-3.7385,-3.7773,-3.8704,-3.8819,-3.9002,-3.9277,-3.9448,-3.9561,-3.96,-3.9549,-3.9526,-3.9514,-3.9526,-3.9874,-4.0505,-4.0486,-4.0362,-4.0084,-3.898,-3.807,-3.7306,-3.7123,-3.6261,-3.5252,-3.5815,-3.6057,-3.6221,0.0,0.0,0.0,0.0,0.0,0.0,0.0,0.0,0.0,0.0,0.0,0.0,0.0,0.0,-2.8251,-2.8264,-2.8303,-2.8318,0.0,0.0,0.0,0.0,0.0,0.0,0.0,0.0,0.0,-3.0808,-3.1627,-3.1627,-3.0925,-3.3361,-3.4062,-3.3373,-3.5028,-3.5314,-3.4575,-3.5352,-3.5208,-3.4314,0.0,0.0,0.0,0.0,0.0,0.0,0.0,0.0,0.0,0.0,0.0,0.0,0.0,0.0,0.0,0.0,0.0,0.0,0.0,0.0,0.0,0.0,0.0,0.0,0.0,0.0,0.0,0.0,0.0,0.0,0.0,0.0,0.0,0.0,0.0,0.0,0.0,0.0,0.0,-3.5845,-3.5109,0.0,0.0,0.0,0.0,-3.5605,-3.5788,-3.6553,-3.8244,-3.8326,-3.8732,-3.9615,-4.03,-4.1075,-4.1903,-4.274,-4.3144,-4.3143,-4.3141,-4.3117,-4.3053,-4.3111,-4.3163,-4.3201,-4.3199,-4.2734,-4.1826,-4.0142,-3.8952,-3.8151,-3.7385,-3.7045,-3.6968,-3.6939,-3.6939,-3.7055,0.0,0.0,0.0,0.0,0.0,0.0,0.0,0.0,0.0,0.0,0.0,0.0,0.0,-2.9318,-2.9783,-2.9744,-2.9769,-2.9783,-2.9758,0.0,0.0,0.0,0.0,0.0,0.0,0.0,-3.0501,-3.1646,-3.1938,-3.2484,-3.3253,-3.3678,-3.4257,-3.497,-3.5034,-3.5178,-3.539,-3.5675,-3.5317,-3.4435,-3.3262,-3.2458,0.0,0.0,0.0,0.0,0.0,0.0,0.0,0.0,0.0,0.0,0.0,0.0,0.0,0.0,0.0,0.0,0.0,0.0,0.0,0.0,0.0,0.0,0.0,0.0,0.0,0.0,0.0,0.0,0.0,0.0,0.0,0.0,0.0,0.0,0.0,0.0,0.0,-3.6673,-3.6879,0.0,-3.787,-3.7099,-3.7051,-3.8273,-3.8357,-3.9091,-4.0765,-4.0852,-4.1228,-4.2042,-4.2349,-4.264,-4.2994,-4.3264,-4.3408,-4.3397,-4.3397,-4.3393,-4.3369,-4.3381,-4.3393,-4.3393,-4.3404,-4.3222,-4.2884,-4.2283,-4.0846,-3.9099,-3.9372,-3.916,-3.8772,-3.9315,-3.9859,-4.0393,0.0,0.0,0.0,0.0,0.0,0.0,0.0,0.0,0.0,0.0,0.0,-2.8535,-2.9406,-3.0242,-3.071,-3.0665,-3.0716,-3.071,-3.0665,0.0,0.0,0.0,0.0,0.0,0.0,-3.0084,-3.0938,-3.2104,-3.2684,-3.34,-3.4194,-3.4535,-3.5129,-3.5905,-3.5885,-3.6177,-3.6678,-3.6642,-3.5974,-3.4847,-3.3677,-3.3056,-3.2617,0.0,0.0,0.0,0.0,0.0,0.0,0.0,0.0,0.0,0.0,0.0,0.0,0.0,0.0,0.0,0.0,0.0,0.0,0.0,0.0,0.0,0.0,0.0,0.0,0.0,0.0,0.0,0.0,0.0,0.0,0.0,0.0,0.0,0.0,0.0,-3.6758,-3.7948,-3.8519,-3.9159,-4.0106,-3.9624,-3.9618,-4.0535,-4.0571,-4.1163,-4.2565,-4.2646,-4.3141,-4.4275,-4.4292,-4.4575,-4.522,-4.4877,-4.4719,-4.4711,-4.4428,-4.4269,-4.4238,-4.4269,-4.4281,-4.4281,-4.4292,-4.4109,-4.3837,-4.3848,-4.2662,-4.0873,-4.1488,-4.1382,-4.0974,-4.1537,-4.2121,-4.2646,0.0,0.0,0.0,0.0,0.0,0.0,0.0,0.0,0.0,0.0,-2.7676,-2.8543,-2.9438,-3.0331,-3.0847,-3.0838,-3.0857,-3.0852,-3.0803,-2.921,0.0,0.0,0.0,0.0,-2.9565,-3.1254,-3.2147,-3.2182,-3.3862,-3.4287,-3.357,-3.6045,-3.676,-3.6041,-3.7656,-3.8354,-3.8358,-3.8267,-3.7287,-3.5655,-3.3968,-3.3785,-3.4251,0.0,0.0,0.0,0.0,0.0,0.0,0.0,0.0,0.0,0.0,0.0,0.0,0.0,0.0,0.0,0.0,0.0,0.0,0.0,0.0,0.0,0.0,0.0,0.0,0.0,0.0,0.0,0.0,0.0,0.0,0.0,0.0,0.0,-3.6211,-3.6829,-3.8055,-3.9687,-3.9908,-4.0252,-4.1042,-4.1038,-4.1374,-4.2296,-4.2338,-4.2701,-4.3616,-4.3655,-4.4439,-4.6122,-4.6119,-4.6888,-4.858,-4.7745,-4.7326,-4.733,-4.6457,-4.5999,-4.5956,-4.5999,-4.6042,-4.6003,-4.6005,-4.552,-4.4749,-4.4801,-4.4296,-4.3499,-4.3539,-4.353,-4.351,-4.3479,-4.3539,-4.3588,0.0,0.0,0.0,0.0,0.0,0.0,0.0,0.0,0.0,0.0,-2.8053,-2.8773,-3.0272,-3.1212,-3.1743,-3.1739,-3.2274,-3.2094,-3.0881,0.0,0.0,0.0,0.0,0.0,-3.1367,-3.2426,-3.3298,-3.3994,-3.4428,-3.5143,-3.6162,-3.6871,-3.7404,-3.7774,-3.7559,-3.7459,-3.7405,-3.677,-3.6229,-3.5745,-3.5224,-3.5156,-3.5155,0.0,0.0,0.0,0.0,0.0,0.0,0.0,0.0,0.0,0.0,0.0,0.0,0.0,0.0,0.0,0.0,0.0,0.0,0.0,0.0,0.0,0.0,0.0,0.0,0.0,0.0,0.0,0.0,0.0,0.0,0.0,0.0,-3.8336,-3.7922,-3.9629,-4.1112,-4.1621,-4.2204,-4.2893,-4.3747,-4.3202,-4.3688,-4.5884,-4.5404,-4.5682,-4.7186,-4.7267,-4.7475,-4.7913,-4.7883,-4.8125,-4.8599,-4.7786,-4.7679,-4.8233,-4.7356,-4.6968,-4.6978,-4.6968,-4.6607,-4.6005,-4.5997,-4.5861,-4.5636,-4.5706,-4.56,-4.5298,-4.4686,-4.4064,-4.3656,-4.489,-4.5405,-4.546,0.0,0.0,0.0,0.0,0.0,0.0,0.0,0.0,0.0,0.0,-2.8485,-2.9224,-3.0617,-3.1538,-3.1913,-3.1583,-3.1982,-3.1679,-3.0336,0.0,0.0,0.0,0.0,-3.1739,-3.2586,-3.3453,-3.4135,-3.4667,-3.5357,-3.6209,-3.7221,-3.791,-3.8514,-3.8981,-3.8804,-3.8723,-3.8688,-3.8155,-3.7953,-3.7944,-3.7529,-3.6716,-3.5542,-3.3809,-3.3098,-3.3048,-3.3184,-3.294,-3.2486,-3.2168,0.0,0.0,0.0,0.0,0.0,0.0,0.0,0.0,0.0,0.0,0.0,0.0,0.0,0.0,0.0,0.0,0.0,0.0,0.0,0.0,0.0,0.0,0.0,0.0,-3.9646,-4.0773,-4.1189,-4.2186,-4.3164,-4.3906,-4.4723,-4.5573,-4.6404,-4.6006,-4.6313,-4.7844,-4.7462,-4.7601,-4.8603,-4.8651,-4.8827,-4.9187,-4.9158,-4.9312,-4.969,-4.8854,-4.869,-4.9126,-4.8261,-4.7853,-4.7913,-4.7863,-4.7367,0.0,-4.6581,-4.6357,-4.6007,-4.6066,-4.6095,0.0,0.0,0.0,0.0,0.0,-4.5849,-4.6158,0.0,0.0,0.0,0.0,0.0,0.0,0.0,0.0,0.0,0.0,0.0,-2.9635,-3.06,-3.1384,-3.161,-3.0994,-3.0847,-3.0453,0.0,0.0,0.0,-3.1923,-3.2244,-3.2766,-3.3579,-3.4491,-3.4998,-3.5021,-3.6676,-3.7533,-3.7669,-3.9143,-3.9903,-4.0026,-4.0609,-4.0859,-4.0843,-4.0688,-4.0657,-4.0645,-3.9855,-3.8218,-3.606,-3.4295,-3.4093,-3.464,-3.3861,-3.3523,-3.334,-3.2614,0.0,0.0,0.0,0.0,0.0,0.0,0.0,0.0,0.0,0.0,0.0,0.0,0.0,0.0,0.0,0.0,0.0,0.0,0.0,0.0,0.0,0.0,0.0,0.0,-4.2201,-4.4087,-4.5055,-4.4744,-4.4897,-4.6171,-4.7106,-4.7913,-4.8626,-4.8697,-4.8772,-4.8895,-4.8805,-4.8796,-4.8905,0.0,0.0,0.0,0.0,-5.0411,-5.1189,-5.0351,-4.9951,-5.0029,-4.9154,-4.8746,-4.8757,-4.8748,-4.8224,-4.7298,-4.7368,-4.6863,-4.6026,-4.6076,-4.6163,-4.6231,-4.5938,-4.5479,-4.4934,-4.4803,-4.5321,-4.613,0.0,0.0,0.0,0.0,0.0,0.0,0.0,0.0,0.0,-2.7982,-2.8338,-2.9012,-3.0523,-3.0847,-3.1195,-3.1802,-3.1162,-3.0645,0.0,0.0,-3.0936,-3.1961,-3.3355,-3.4523,-3.5379,-3.6202,-3.6961,-3.7676,-3.8712,-3.9585,-4.0272,-4.0602,-4.1153,-4.1822,-4.0584,-4.0025,-3.9972,-3.9208,-3.8884,-3.8884,-3.8714,-3.8765,-3.8751,-3.7019,-3.6015,-3.5554,-3.5378,-3.4899,-3.4311,-3.4177,-3.473,-3.5314,-3.4276,0.0,0.0,0.0,0.0,0.0,0.0,0.0,0.0,0.0,0.0,0.0,0.0,0.0,0.0,0.0,0.0,0.0,0.0,0.0,0.0,-4.2322,-4.3824,-4.5148,-4.6762,-4.8021,-4.8376,-4.7295,-4.7988,-4.859,-4.8684,-4.8703,-4.927,-5.0667,-5.0081,-4.9985,-5.0731,-5.0733,-5.0789,-5.0958,-5.0957,-5.1023,-5.1194,-5.0331,-5.0236,-5.0938,0.0,0.0,-4.9731,-4.9732,-4.8876,-4.7378,-4.7378,-4.6892,-4.6076,-4.6095,-4.6558,-4.7019,-4.492,-4.4834,-4.5757,-4.437,-4.4844,-4.6189,0.0,0.0,0.0,0.0,0.0,0.0,0.0,0.0,0.0,0.0,-2.8287,-2.8968,-2.9395,-3.0199,-3.0547,-3.0175,-2.9685,0.0,0.0,-3.1086,-3.2077,-3.3825,-3.4734,-3.5395,-3.5834,-3.667,-3.7311,-3.7692,-3.9004,-4.0116,-4.1,-4.1402,-4.1864,-4.2323,-4.1908,-4.1208,-4.0409,-4.0377,-4.0117,-3.9753,-3.9753,-4.0006,-4.0156,-3.7987,-3.6908,-3.6499,-3.605,-3.5646,-3.5305,-3.529,-3.588,-3.6445,-3.5613,-3.5642,-3.5664,0.0,0.0,0.0,0.0,0.0,0.0,0.0,0.0,0.0,0.0,0.0,0.0,0.0,0.0,-3.7265,0.0,0.0,-4.1526,-4.4984,-4.6228,-4.7225,-4.8561,-4.9827,-5.0139,-4.8845,-4.9501,-5.0024,-4.9965,-4.9939,-5.0302,-5.1187,-5.0821,-5.0763,-5.1228,-5.122,-5.1229,-5.1249,-5.122,-5.12,-5.1206,-5.0772,-5.0763,-5.119,-5.0763,-5.0559,-5.0607,-5.0646,-4.9936,-4.8711,-4.8701,-4.7961,-4.6726,-4.6316,-4.668,-4.7326,-4.5585,-4.5967,-4.7291,-4.5546,-4.5728,-4.6839,0.0,0.0,0.0,0.0,0.0,0.0,0.0,0.0,0.0,0.0,-2.8081,-2.8722,-2.8248,-2.9246,-2.9349,0.0,0.0,0.0,0.0,-3.1596,-3.3225,-3.5669,-3.5773,-3.587,-3.6018,-3.6871,-3.7375,-3.7482,-3.9402,-4.0704,-4.1466,-4.2294,-4.2716,-4.2799,-4.3344,-4.2812,-4.1546,-4.226,-4.2078,-4.1334,-4.1345,-4.1252,-4.0838,-3.8376,-3.7492,-3.7412,-3.6544,-3.6025,-3.5806,-3.6114,-3.666,-3.7141,-3.6848,-3.7224,-3.7265,-3.4668,-3.4785,0.0,0.0,0.0,0.0,0.0,0.0,0.0,0.0,0.0,-3.5754,-3.7995,-3.858,-3.9598,-4.2513,-4.3193,-4.4341,-4.7487,-4.8527,-4.9257,-5.0127,-5.08,-5.0975,-5.0323,-5.0869,-5.1263,-5.122,-5.1209,-5.1209,-5.12,-5.1189,-5.12,-5.1211,-5.1201,-5.123,-5.1278,-5.123,-5.121,-5.12,-5.119,-5.122,-5.1229,-5.123,-5.122,-5.122,-5.1287,-5.0819,-4.9994,-4.9818,-4.8844,-4.7348,-4.6711,-4.6863,-4.7423,-4.6722,-4.7501,-4.8806,-4.6897,-4.6741,-4.7482,0.0,0.0,0.0,0.0,0.0,0.0,0.0,0.0,0.0,0.0,0.0,0.0,0.0,0.0,0.0,0.0,0.0,0.0,-3.0537,-3.2095,-3.3781,-3.564,-3.5699,-3.6077,-3.6851,-3.7655,-3.8457,-3.9228,-4.1673,-4.2942,-4.3063,-4.3986,-4.4413,-4.4412,-4.3855,-4.3494,-4.3327,-4.3416,-4.2966,-4.2167,-4.2222,-4.1798,-4.0896,-3.9053,-3.8361,-3.8252,-3.7381,-3.6114,-3.5069,-3.6562,-3.7132,-3.7445,-3.893,-3.9442,-3.9017,-3.6463,0.0,-3.4255,-3.1532,-3.159,-3.3063,-3.5924,-3.6704,-3.7781,0.0,0.0,-4.1593,-4.2669,-4.3492,-4.4393,-4.5551,-4.6405,-4.7532,-4.9405,-4.98,-5.0168,-5.1023,-5.1228,-5.1256,-5.1164,-5.1242,-5.1267,-5.12,-5.1249,-5.1249,-5.12,-5.1189,-5.12,-5.1211,-5.1197,-5.1197,-5.1211,-5.1197,-5.1197,-5.1201,-5.121,-5.124,-5.1278,-5.1287,-5.1295,-5.1292,-5.1292,-5.0817,-4.9963,-4.9184,-4.8308,-4.7392,-4.7377,-4.7404,-4.7482,-4.7384,-4.8378,-4.9566,-4.7111,-4.6741,-4.7384,0.0,0.0,0.0,0.0,0.0,0.0,0.0,0.0,0.0,0.0,0.0,0.0,0.0,0.0,0.0,0.0,0.0,0.0,-3.0518,-3.2095,-3.3785,-3.556,-3.5646,-3.5809,-3.6184,-3.7007,-3.787,-3.8736,-4.0324,-4.1651,-4.2751,-4.3587,-4.4,-4.4026,-4.4747,-4.4483,-4.3586,-4.4075,-4.3525,-4.2298,-4.2325,-4.1526,-4.0208,-3.9474,-3.793,-3.606,-3.524,-3.4486,0.0,0.0,-3.5305,-3.5919,-3.7198,-3.7904,-3.7789,-3.5233,-3.4941,0.0,-3.4128,-3.4432,-3.5412,0.0,-3.8338,-3.9922,-4.1701,-4.1812,-4.2214,-4.4572,-4.5345,-4.617,-4.8067,-4.8711,-4.9359,0.0,-5.0766,-5.0878,-5.1191,-5.0839,-5.0719,-5.1245,-5.0399,-5.0177,-5.1161,-5.1259,-5.1249,-5.1259,-5.121,-5.121,-5.1249,-5.1219,-5.1208,-5.1211,-5.121,-5.12,-5.121,-5.124,-5.1258,-5.1306,-5.1304,-5.1292,-5.1281,-5.0774,-5.0085,-4.9286,-4.8916,-4.8273,-4.7416,-4.6936,-4.7033,-4.7501,-4.7501,-4.8241,-4.9118,-4.754,-4.7501,-4.8125,0.0,0.0,0.0,0.0,0.0,0.0,0.0,0.0,0.0,0.0,0.0,0.0,0.0,0.0,0.0,0.0,0.0,0.0,0.0,-3.1692,-3.3345,-3.5114,-3.543,-3.5579,-3.5566,-3.6439,-3.7305,-3.8172,-3.9278,-4.0759,-4.2568,-4.3442,-4.3948,-4.422,-4.5502,-4.5366,-4.422,-4.4636,-4.3964,-4.2602,-4.2397,-4.126,-3.961,-3.8899,-3.69,-3.4435,-3.3855,-3.3037,0.0,0.0,-3.3253,-3.3751,-3.4889,-3.5674,-3.5732,-3.3654,-3.3761,-3.4667,-3.5152,0.0,0.0,-3.8052,-4.0052,-4.1961,-4.2629,-4.2946,-4.3961,-4.6919,-4.7524,-4.8166,-5.0313,-5.0508,-5.0538,-5.1189,-5.1304,-5.1276,-5.1211,-5.0702,-5.0591,-5.12,-5.0177,-4.9815,-5.0836,-5.088,-5.0957,-5.1249,-5.1229,-5.1229,-5.1269,-5.122,-5.121,-5.124,-5.1211,-5.1211,-5.122,-5.1267,-5.1304,-5.1295,-5.1292,-5.13,-5.1281,-5.0657,-5.0034,-4.9488,-4.9488,-4.8865,-4.7813,-4.717,-4.7014,-4.7131,-4.7131,-4.7676,-4.8358,-4.7735,-4.7891,-4.8319,0.0,0.0,0.0,0.0,0.0,0.0,0.0,0.0,0.0,0.0,0.0,0.0,0.0,0.0,0.0,0.0,0.0,0.0,0.0,-3.0802,-3.2461,-3.4082,-3.5014,-3.5489,-3.5507,-3.6407,-3.7293,-3.8112,-3.9811,-4.1525,-4.3187,-4.4201,-4.5079,-4.5829,-4.5944,-4.5968,-4.5871,-4.5114,-4.4287,-4.3393,-4.2602,-4.1268,-3.9412,-3.688,-3.5329,-3.4513,-3.4554,0.0,0.0,0.0,-3.1534,-3.1201,-3.2859,-3.3439,0.0,-3.2416,-3.1571,-3.1327,0.0,0.0,-3.6746,-4.0142,-4.226,-4.4163,-4.6641,-4.786,-4.897,-5.0761,-5.1093,-5.1346,-5.2344,-5.1793,-5.1181,-5.1287,-5.1306,-5.1278,-5.1211,-5.1228,-5.1245,-5.122,-5.1219,-5.0908,0.0,-4.9985,-5.0295,-5.1131,-5.1189,-5.1189,-5.1189,-5.1201,-5.122,-5.1287,-5.122,-5.123,-5.1292,-5.1295,-5.1304,-5.13,-5.13,-5.13,-5.13,-5.1261,-5.1242,-5.1222,-5.1222,-5.0287,-4.8768,-4.8729,-4.7735,-4.6235,-4.6235,-4.6761,-4.754,-4.7501,-4.7521,-4.7404,0.0,0.0,0.0,0.0,0.0,0.0,0.0,0.0,0.0,0.0,0.0,0.0,0.0,0.0,0.0,0.0,0.0,0.0,0.0,-3.0254,-3.1333,-3.2468,-3.3371,-3.4084,-3.4622,-3.5021,-3.5949,-3.7362,-3.8549,-3.9713,-4.0897,-4.2364,-4.3179,-4.3469,-4.4023,-4.4266,-4.4266,-4.3986,-4.3694,-4.3306,-4.1936,-4.0323,-3.8479,-3.5926,-3.3328,-3.0975,0.0,0.0,0.0,0.0,0.0,0.0,-2.9672,0.0,-3.0706,-3.0451,-3.0989,-3.2178,-3.4488,0.0,-4.0034,-4.2904,-4.4908,-4.656,-4.8,-4.8518,-4.9036,-5.0194,-4.9047,-4.8096,-4.8986,-4.8883,-4.869,-4.8697,-5.0129,-5.124,-5.1191,-5.0753,-5.0403,-5.0354,-4.9382,0.0,0.0,0.0,0.0,-5.0384,-5.0363,-5.0607,-5.122,-5.1211,-5.122,-5.1306,-5.1278,-5.1287,-5.1304,-5.1304,-5.1292,-5.13,-5.1258,-5.0909,-5.0324,-5.0948,-5.0578,-4.9469,-5.0146,-4.9445,-4.7815,-4.7895,-4.7206,-4.6074,-4.6074,-4.6302,-4.6624,-4.6539,-4.6933,-4.7463,0.0,0.0,0.0,0.0,0.0,0.0,0.0,0.0,0.0,0.0,0.0,0.0,0.0,0.0,0.0,0.0,0.0,0.0,0.0,0.0,-2.986,-3.0694,-3.1571,-3.2275,-3.2801,-3.2935,-3.3703,-3.5137,-3.6047,-3.7111,-3.8352,-3.9703,-4.0665,-4.1296,-4.1789,-4.2197,-4.2468,-4.1828,-4.1401,-4.0955,-3.9258,-3.755,-3.5775,-3.3497,-3.1075,0.0,0.0,0.0,0.0,0.0,0.0,0.0,0.0,-2.7983,-2.9077,-2.9737,-3.1168,-3.3239,-3.6484,-3.9412,-4.2182,-4.4735,-4.6674,-4.8197,-4.9074,-4.9208,-4.9414,-5.0287,-4.8385,-4.6733,-4.7303,-4.688,-4.6376,-4.6052,-4.763,-4.9109,-4.9722,-4.9391,-4.9391,-5.0264,-4.9409,-4.872,0.0,0.0,0.0,-4.9508,-4.9741,-5.016,-5.081,-5.1093,-5.1258,-5.1304,-5.1304,-5.1304,-5.1304,-5.1292,-5.1284,-5.1267,-5.1169,-5.0833,-5.032,-5.0925,-5.0577,-4.9537,-5.0174,-4.9445,-4.7758,-4.7915,-4.717,-4.5968,-4.6036,-4.6091,-4.6205,-4.6781,-4.7213,-4.7457,0.0,0.0,0.0,0.0,0.0,0.0,0.0,0.0,0.0,0.0,0.0,0.0,0.0,0.0,0.0,0.0,0.0,0.0,0.0,0.0,0.0,-2.8912,-2.9736,-3.0203,-3.0234,-3.0364,-3.0869,-3.1748,-3.2686,-3.3981,-3.5601,-3.6416,-3.7675,-3.9247,-3.9207,-3.9652,-4.0391,-3.8743,-3.7589,-3.6716,-3.4982,-3.3315,-3.1706,-2.9909,0.0,0.0,0.0,0.0,0.0,0.0,0.0,0.0,0.0,-2.6953,-2.8631,-3.0445,-3.2234,-3.4559,-3.8827,-4.1301,-4.3261,-4.5776,-4.7618,-4.9028,-4.99,-5.0029,-5.0151,-5.0891,-4.8989,-4.7181,0.0,0.0,-4.453,-4.3713,-4.4443,-4.5677,-4.7279,-4.7563,-4.8468,0.0,0.0,0.0,0.0,0.0,0.0,-4.8603,0.0,-4.9897,-5.0043,-5.0849,-5.1295,-5.13,-5.13,-5.13,-5.1292,-5.1273,-5.1239,-5.1131,-5.1024,-5.1024,-5.112,-5.1159,-5.122,-5.1265,-5.123,-5.0244,-4.8662,-4.8733,-4.765,-4.5976,-4.6171,-4.6149,-4.6202,-4.8,-4.819,-4.7416,0.0,0.0,0.0,0.0,0.0,0.0,0.0,0.0,0.0,0.0,0.0,0.0,0.0,0.0,0.0,0.0,0.0,0.0,0.0,0.0,0.0,0.0,0.0,0.0,0.0,0.0,0.0,0.0,0.0,-3.2421,-3.2832,-3.3684,-3.4342,-3.4749,-3.4676,-3.4823,-3.5067,-3.4563,-3.4631,-3.4923,0.0,-3.2277,-3.1646,0.0,0.0,0.0,0.0,0.0,0.0,0.0,0.0,0.0,0.0,-3.051,-3.1331,-3.3774,-3.6192,-3.8739,-4.1797,-4.4372,-4.6664,-4.8612,-4.8953,-4.903,-4.99,-4.9575,-4.8808,-4.7717,-4.5935,-4.418,0.0,0.0,0.0,-4.4509,-4.734,0.0,-5.0148,-5.0215,0.0,-5.0231,0.0,-4.9809,-4.871,-4.8593,0.0,0.0,-4.8817,-4.9498,-5.0811,-5.1152,-5.1295,-5.1295,-5.1292,-5.1248,-5.115,-5.1042,-5.0694,-5.0086,-5.0603,-5.0507,-4.9876,-5.0526,-5.0832,-5.0828,-5.028,-4.9776,-4.9306,-4.8747,-4.7798,-4.6714,-4.679,-4.6435,-4.596,-4.6351,-4.7222,-4.8028,0.0,0.0,0.0,0.0,0.0,0.0,0.0,0.0,0.0,0.0,0.0,0.0,0.0,0.0,0.0,0.0,0.0,0.0,0.0,0.0,0.0,0.0,0.0,0.0,0.0,0.0,0.0,0.0,0.0,0.0,0.0,-3.0588,-3.1216,-3.1911,-3.1899,-3.2141,-3.2491,-3.2085,0.0,0.0,0.0,0.0,0.0,0.0,0.0,0.0,0.0,0.0,0.0,0.0,0.0,-2.9476,-3.1719,-3.2948,-3.4147,-3.7195,0.0,-4.1007,-4.4398,-4.6383,-4.7825,-4.9231,-4.9471,-4.9196,-4.8538,-4.7716,-4.6593,-4.4851,-4.2818,0.0,0.0,0.0,0.0,0.0,0.0,0.0,-4.9321,-4.9485,-4.9726,0.0,-5.0476,0.0,-4.9262,-4.9165,-4.9165,0.0,-4.9176,-4.9605,-5.0626,-5.1074,-5.1278,-5.122,-5.1211,-5.115,-5.1005,-5.0908,-5.0631,-5.0197,-5.054,-5.045,-4.9986,-5.0484,-5.0733,-5.0767,0.0,-4.9751,-4.9003,-4.8612,-4.7641,-4.6378,-4.6467,-4.6234,-4.586,-4.6209,-4.7017,-4.7835,0.0,0.0,0.0,0.0,0.0,0.0,0.0,0.0,0.0,0.0,0.0,0.0,0.0,0.0,0.0,0.0,0.0,0.0,0.0,0.0,0.0,0.0,0.0,0.0,0.0,0.0,0.0,0.0,0.0,0.0,0.0,0.0,0.0,0.0,0.0,0.0,0.0,0.0,0.0,0.0,0.0,0.0,0.0,0.0,0.0,0.0,0.0,0.0,0.0,0.0,-3.1538,-3.1623,-3.3613,-3.5346,-3.73,-4.0548,-4.1595,-4.2533,-4.6435,-4.7573,-4.7832,-4.8552,-4.9079,-4.8777,-4.6273,-4.4924,-4.3727,-4.1974,0.0,-3.8689,-3.9252,-3.9593,-4.0111,-4.1082,0.0,-4.4663,-4.7268,-4.7648,-4.8541,-5.093,-5.1202,-5.0903,-5.0145,-5.0056,-5.0045,-5.0045,-5.0037,-5.004,-5.014,-5.085,-5.119,-5.1062,-5.1037,-5.0978,-5.0874,-5.0784,-5.0636,-5.0441,-5.0548,-5.0509,-5.0352,-5.0564,-5.0713,-5.0844,-5.0671,0.0,-4.843,-4.8327,-4.7294,-4.5794,-4.5974,-4.5891,-4.58,-4.6674,-4.7061,-4.7255,0.0,0.0,0.0,0.0,0.0,0.0,0.0,0.0,0.0,0.0,-2.5476,-2.5488,0.0,0.0,0.0,0.0,0.0,0.0,0.0,0.0,0.0,0.0,0.0,0.0,0.0,0.0,0.0,0.0,0.0,0.0,0.0,0.0,0.0,0.0,0.0,0.0,0.0,0.0,0.0,0.0,0.0,0.0,0.0,0.0,0.0,0.0,0.0,0.0,0.0,0.0,-3.2643,-3.5366,-3.8557,-4.0274,-4.1485,-4.3536,-4.4645,-4.555,-4.7077,-4.8032,-4.8443,-4.7945,-4.6859,-4.5386,-4.3482,-4.1827,0.0,0.0,-3.8305,-3.8319,-3.7735,-3.9354,-4.1265,-4.2801,0.0,0.0,0.0,0.0,-4.9881,0.0,0.0,0.0,0.0,0.0,0.0,0.0,0.0,-5.0704,-5.0815,-5.0959,-5.0985,-5.0855,-5.0731,-5.0698,-5.0731,-5.0567,-4.9832,-4.8587,-4.9891,-4.9771,-4.8428,-4.9808,-5.0483,-5.0489,-4.9125,0.0,-4.9104,-4.7735,-4.6985,-4.6682,-4.6716,-4.6273,-4.5637,-4.5806,-4.6326,-4.6885,0.0,0.0,0.0,0.0,0.0,0.0,0.0,-2.3856,-2.4292,-2.4709,-2.517,-2.5464,-2.5503,-2.5499,0.0,0.0,0.0,0.0,0.0,0.0,0.0,0.0,0.0,0.0,0.0,0.0,0.0,0.0,0.0,0.0,0.0,0.0,0.0,0.0,0.0,0.0,0.0,0.0,0.0,0.0,0.0,0.0,0.0,0.0,0.0,0.0,0.0,0.0,0.0,0.0,-3.2921,-3.6856,-3.8976,-4.0256,-4.1388,-4.3571,-4.4527,-4.5261,-4.706,-4.7861,-4.7871,-4.6569,-4.5623,-4.4075,-4.0547,0.0,0.0,0.0,-3.6209,-3.7008,-3.654,0.0,0.0,0.0,0.0,0.0,0.0,0.0,0.0,0.0,0.0,0.0,0.0,0.0,0.0,0.0,0.0,-5.0819,-5.0887,-5.0816,-5.0764,-5.0696,-5.0586,-5.0506,-5.0527,-5.0462,-5.0076,-4.9353,-5.0138,-5.0057,-4.9288,-5.0114,-5.0521,-5.0504,-4.9758,0.0,-4.8663,-4.7855,-4.7009,-4.622,-4.622,-4.597,-4.5586,-4.5586,-4.589,-4.6213,0.0,0.0,0.0,0.0,0.0,0.0,0.0,-2.335,-2.398,-2.4154,-2.488,-2.5421,-2.5476,-2.549,-2.5538,0.0,0.0,0.0,0.0,0.0,0.0,0.0,0.0,0.0,0.0,0.0,0.0,-2.9322,0.0,0.0,0.0,0.0,0.0,0.0,0.0,0.0,0.0,0.0,0.0,0.0,0.0,0.0,0.0,0.0,0.0,0.0,0.0,0.0,0.0,0.0,-3.2038,-3.5734,-3.6762,-3.8583,-4.0727,-4.2588,-4.3274,-4.3911,-4.6156,-4.6894,-4.6612,-4.4878,-4.4293,-4.29,-3.8092,-3.7371,0.0,0.0,-3.4542,-3.5658,-3.5772,0.0,-3.8393,0.0,0.0,0.0,0.0,0.0,0.0,0.0,0.0,0.0,0.0,0.0,0.0,0.0,0.0,0.0,-5.0752,-5.0606,-5.0546,-5.0546,-5.0418,-5.039,-5.0412,-5.0284,-5.0114,-4.9923,-4.9942,-4.9942,-4.9923,-5.0003,-5.0141,-5.0296,-4.999,0.0,0.0,-4.7644,-4.6778,-4.5586,-4.5586,-4.5586,-4.5566,-4.5393,-4.5464,-4.561,0.0,0.0,0.0,0.0,0.0,0.0,0.0,-2.2455,-2.3272,-2.4007,-2.4869,-2.5393,-2.5415,-2.5472,-2.5536,0.0,0.0,0.0,0.0,0.0,0.0,0.0,0.0,0.0,0.0,0.0,0.0,-2.9391,-2.931,0.0,0.0,0.0,0.0,0.0,0.0,0.0,0.0,0.0,0.0,0.0,0.0,0.0,0.0,0.0,0.0,0.0,0.0,0.0,0.0,0.0,0.0,-3.0488,-3.2027,-3.6944,-4.2052,-4.1502,0.0,0.0,-4.3786,-4.4633,-4.482,-4.3064,-4.2038,-4.0519,-3.6855,0.0,0.0,-3.354,-3.4062,-3.4945,-3.5675,-3.5924,-3.6615,0.0,0.0,-4.0558,0.0,0.0,0.0,0.0,0.0,0.0,0.0,0.0,0.0,0.0,0.0,0.0,-5.0606,-5.0421,-5.0325,-5.0325,-5.0325,-5.0325,-5.0412,-4.9621,-4.8857,-4.8137,-4.8092,-4.8073,-4.8137,-4.8135,-4.862,-4.9355,-4.7818,0.0,0.0,-4.6163,-4.574,-4.5586,-4.5586,-4.5586,-4.549,-4.4701,-4.493,-4.5391,0.0,0.0,0.0,0.0,0.0,0.0,-2.1557,-2.2748,-2.3566,-2.3403,-2.415,-2.4691,-2.4675,-2.427,-2.4193,0.0,0.0,0.0,0.0,0.0,0.0,0.0,0.0,0.0,0.0,0.0,0.0,-2.9464,-2.942,0.0,0.0,0.0,0.0,0.0,0.0,-2.6912,0.0,0.0,0.0,0.0,0.0,0.0,0.0,0.0,0.0,0.0,0.0,0.0,0.0,0.0,0.0,0.0,-3.0521,-3.3729,0.0,0.0,-3.9243,-4.0398,-4.2295,-4.348,-4.3807,-4.2052,-4.0578,-3.89,-3.645,0.0,-3.4374,-3.3492,-3.4386,-3.5254,-3.5057,-3.5449,-3.6032,0.0,0.0,0.0,0.0,0.0,0.0,0.0,0.0,0.0,0.0,0.0,0.0,0.0,0.0,0.0,-5.0418,-5.0329,-5.0302,-5.0302,-5.0302,-5.0302,-5.0325,-5.0019,-4.9675,-4.9354,-4.9398,-4.9441,-4.9482,-4.9545,-4.9489,-4.9317,-4.8645,0.0,0.0,-4.6528,-4.6067,-4.5586,-4.5586,-4.5278,-4.4836,-4.5009,-4.466,-4.4078,0.0,0.0,0.0,0.0,0.0,-2.1309,-2.1584,-2.2832,-2.3632,-2.3327,-2.3816,-2.4203,-2.4206,-2.3482,-2.312,-2.343,0.0,0.0,0.0,0.0,0.0,0.0,0.0,0.0,0.0,0.0,-2.8004,-2.9113,-2.9078,-2.9071,0.0,0.0,-2.8418,-2.6557,0.0,0.0,0.0,0.0,0.0,0.0,0.0,0.0,0.0,0.0,0.0,0.0,0.0,0.0,0.0,0.0,0.0,0.0,0.0,0.0,0.0,0.0,-3.6995,-3.8455,-4.0811,-4.2312,-4.289,-4.1426,-3.997,-3.8429,0.0,0.0,-3.4742,-3.3854,-3.4819,-3.5609,-3.501,-3.5391,-3.5799,0.0,0.0,-3.7365,0.0,0.0,0.0,0.0,0.0,0.0,0.0,0.0,0.0,0.0,0.0,0.0,-5.0302,-5.0302,-5.0302,-5.0302,-5.0302,-5.0302,-5.0302,-5.0054,-4.9939,-4.9943,-4.9803,-4.9886,-5.0138,-4.9989,-4.9587,-4.899,-4.8759,0.0,0.0,-4.624,-4.5778,-4.5218,-4.4968,-4.4641,-4.4372,-4.472,-4.4256,-4.3481,0.0,0.0,0.0,0.0,0.0,0.0,-2.1563,-2.2391,-2.3223,-2.4076,-2.4191,-2.4203,-2.421,-2.3483,-2.2654,-2.1808,0.0,0.0,0.0,0.0,0.0,0.0,0.0,0.0,0.0,0.0,-2.6532,-2.8215,-2.8215,-2.8258,-2.8323,-2.9184,-2.8207,-2.5748,0.0,0.0,0.0,0.0,0.0,0.0,0.0,0.0,0.0,0.0,0.0,0.0,0.0,0.0,0.0,0.0,0.0,0.0,0.0,0.0,0.0,0.0,-3.5551,-3.73,-3.912,-4.0837,-4.1935,-4.1188,-4.039,-3.9312,0.0,-3.6456,-3.5645,-3.4761,-3.522,-3.5803,-3.5799,-3.5799,-3.5799,-3.5799,-3.5818,0.0,0.0,0.0,0.0,0.0,0.0,0.0,0.0,0.0,0.0,0.0,0.0,0.0,-5.0302,-5.0302,-5.0302,-5.0302,-5.0302,-5.0302,-5.0302,-4.95,-4.9124,-4.9111,-4.8307,-4.8409,-4.9278,-4.849,-4.8126,0.0,0.0,0.0,0.0,-4.4682,-4.4352,-4.4328,-4.3467,-4.364,-4.4309,-4.3448,-4.3624,-4.4047,0.0,0.0,0.0,0.0,0.0,0.0,0.0,-2.2866,-2.348,-2.2604,-2.2959,-2.3095,-2.2549,-2.1764,-2.1401,-2.1681,0.0,0.0,0.0,0.0,0.0,0.0,0.0,0.0,0.0,0.0,-2.649,-2.8198,-2.8198,-2.8231,-2.832,-2.914,-2.8162,-2.5735,-2.6605,0.0,0.0,0.0,0.0,0.0,0.0,0.0,0.0,0.0,0.0,0.0,0.0,0.0,0.0,0.0,0.0,0.0,0.0,0.0,0.0,0.0,0.0,0.0,-3.7158,-3.8473,-3.9324,-3.9196,-3.8058,-3.7008,-3.7082,-3.602,-3.5099,-3.536,-3.5632,-3.5799,-3.5799,-3.5799,-3.5799,-3.5799,-3.5801,0.0,0.0,0.0,0.0,0.0,0.0,0.0,0.0,0.0,0.0,0.0,0.0,0.0,-5.0302,-5.0302,-5.0302,-5.0302,-5.0302,-5.0325,-5.0367,-5.0122,-5.001,-5.0057,-4.985,-4.989,-5.0161,-4.9356,-4.8664,0.0,0.0,0.0,0.0,-4.4716,-4.4696,-4.5064,-4.3657,-4.3272,-4.3544,-4.3816,-4.3355,-4.2604,0.0,0.0,0.0,0.0,0.0,0.0,0.0,-2.282,-2.3325,-2.2293,-2.2598,-2.2584,-2.1794,-2.0983,-2.0691,-2.1192,0.0,0.0,0.0,0.0,0.0,0.0,0.0,0.0,0.0,-2.5153,-2.5831,-2.7256,-2.7256,-2.7459,-2.7824,-2.8665,-2.8027,-2.6238,-2.7078,0.0,0.0,0.0,0.0,0.0,0.0,0.0,-2.9148,0.0,0.0,0.0,0.0,0.0,0.0,0.0,0.0,0.0,0.0,0.0,0.0,0.0,-3.228,0.0,0.0,-3.6421,-3.7119,-3.7249,-3.6474,0.0,0.0,-3.5779,-3.5185,-3.5702,-3.5799,-3.5799,-3.5799,-3.5799,-3.5799,-3.5799,-3.5793,0.0,0.0,0.0,0.0,0.0,0.0,0.0,0.0,0.0,0.0,0.0,0.0,0.0,-4.9862,-5.0149,-5.0168,-4.9862,-5.0172,-5.0367,-5.0412,-5.0435,-5.0325,-5.0042,-5.0429,-5.043,-5.0124,-4.9625,-4.8913,0.0,0.0,0.0,0.0,-4.4251,-4.402,-4.4078,-4.2688,-4.2364,-4.2736,-4.3547,-4.2989,-4.1931,0.0,0.0,0.0,0.0,0.0,0.0,0.0,0.0,-2.2817,-2.2811,-2.2876,-2.2604,-2.1789,-2.1032,-2.0555,-2.0504,0.0,0.0,0.0,0.0,0.0,0.0,0.0,0.0,0.0,-2.4394,-2.4826,-2.5704,-2.5704,-2.6181,-2.711,-2.7917,-2.7867,-2.7129,-2.7861,-2.822,-2.8198,-2.8072,-2.8135,-2.8363,-2.9107,-2.993,0.0,0.0,0.0,0.0,0.0,0.0,0.0,0.0,0.0,0.0,0.0,0.0,0.0,0.0,0.0,0.0,0.0,0.0,0.0,0.0,0.0,0.0,0.0,-3.5747,0.0,-3.5791,-3.5791,-3.5799,-3.5799,-3.5799,-3.5799,-3.5799,0.0,0.0,0.0,0.0,0.0,0.0,0.0,0.0,0.0,0.0,0.0,0.0,0.0,0.0,-4.9137,-4.9805,-4.9862,-4.9117,-4.9893,-5.0317,-5.0317,-5.0383,-5.0042,-4.9316,-5.0123,-5.0085,-4.9317,-4.924,-4.8779,0.0,0.0,0.0,0.0,-4.34,-4.2607,-4.1904,-4.0969,-4.1166,-4.2071,-4.2755,-4.2527,-4.2008,0.0,0.0,0.0,0.0,0.0,0.0,0.0,0.0,0.0,0.0,-2.2557,-2.2671,-2.1862,-2.1566,-2.1177,0.0,0.0,0.0,0.0,0.0,0.0,0.0,0.0,0.0,0.0,-2.4404,-2.4833,-2.5707,-2.5704,-2.6484,-2.7998,-2.8154,-2.8147,-2.8005,-2.8183,-2.828,-2.8196,-2.6856,-2.7401,-2.9142,-2.8688,-2.9421,0.0,0.0,0.0,0.0,-3.071,-3.0698,0.0,0.0,0.0,0.0,0.0,0.0,0.0,0.0,-3.077,-3.0972,-3.1294,0.0,-3.3569,-3.4276,-3.4456,-3.4655,0.0,0.0,-3.5718,0.0,0.0,0.0,-3.5799,0.0,0.0,0.0,0.0,0.0,0.0,0.0,0.0,0.0,0.0,0.0,0.0,0.0,0.0,0.0,0.0,-4.9289,-4.9098,-4.927,-4.9289,-4.9098,-4.9341,-4.9482,-4.9463,-4.9503,-4.9469,-4.9375,-4.9587,-4.9221,-4.8375,-4.7778,-4.7375,0.0,0.0,0.0,-4.4218,-4.2768,-4.2422,-4.2675,-4.117,-4.1517,-4.2755,-4.2277,-4.2412,-4.2739,0.0,0.0,0.0,0.0,0.0,0.0,0.0,0.0,0.0,0.0,0.0,0.0,0.0,0.0,0.0,0.0,0.0,0.0,0.0,0.0,0.0,0.0,0.0,0.0,-2.3793,-2.419,-2.445,-2.4503,-2.5308,-2.6381,-2.7702,-2.8076,-2.8262,-2.8311,-2.8688,-2.8848,-2.8763,-2.7412,-2.7863,-2.9428,-2.8578,0.0,0.0,0.0,0.0,0.0,-3.0767,-3.0755,0.0,-3.071,-3.073,-3.0749,0.0,0.0,0.0,0.0,-3.0671,-3.0634,-3.0558,-3.1083,-3.177,-3.221,-3.2941,-3.3667,0.0,0.0,0.0,0.0,0.0,0.0,0.0,0.0,0.0,0.0,0.0,0.0,0.0,0.0,0.0,0.0,0.0,0.0,0.0,0.0,0.0,0.0,0.0,-4.8735,-4.7952,-4.8659,-4.8716,-4.7933,-4.8343,-4.8577,-4.864,-4.9085,-4.8933,-4.8259,-4.9029,-4.8759,-4.7528,-4.7105,-4.6913,0.0,0.0,0.0,-4.3676,-4.2822,-4.2248,-4.1867,-4.0939,-4.1135,-4.1893,-4.1835,-4.1854,-4.1893,0.0,0.0,0.0,0.0,0.0,0.0,0.0,0.0,0.0,0.0,0.0,0.0,0.0,0.0,0.0,0.0,0.0,0.0,0.0,0.0,0.0,0.0,0.0,-2.3097,-2.3107,-2.3946,-2.4032,-2.3302,-2.4774,-2.6021,-2.7025,-2.7754,-2.8244,-2.8518,-2.9079,-2.9453,-2.9623,-2.8647,-2.8804,-2.9645,-2.8825,0.0,0.0,0.0,0.0,0.0,0.0,0.0,0.0,-3.0722,-3.0748,-3.0773,-3.0722,0.0,0.0,0.0,0.0,0.0,-3.0629,-3.0558,-3.0535,-3.0584,-3.184,-3.3077,0.0,0.0,0.0,0.0,0.0,0.0,0.0,0.0,0.0,0.0,0.0,0.0,0.0,0.0,0.0,0.0,0.0,0.0,0.0,0.0,0.0,0.0,0.0,-4.82,-4.6596,-4.7895,-4.8028,-4.6557,-4.7248,-4.7616,-4.7605,-4.8529,-4.8356,-4.7105,-4.8394,-4.8202,-4.6701,-4.6701,-4.6701,-4.6644,0.0,0.0,-4.3092,-4.2822,-4.1879,-4.0573,-4.0573,-4.0635,-4.0758,-4.1373,-4.1219,-4.0777,0.0,0.0,0.0,0.0,0.0,0.0,0.0,0.0,0.0,0.0,0.0,0.0,0.0,0.0,0.0,0.0,0.0,0.0,0.0,0.0,0.0,0.0,-2.2777,-2.3104,-2.3101,-2.3946,-2.4332,-2.4192,-2.4461,-2.5414,-2.6993,-2.7132,-2.7993,-2.9377,-2.8756,-2.9266,-3.0497,-2.8935,-2.9209,-3.0616,-2.9746,0.0,0.0,0.0,0.0,0.0,0.0,0.0,0.0,-3.0698,-3.0711,-3.0711,-3.0697,0.0,0.0,0.0,0.0,0.0,-3.0626,-3.1023,-3.1619,-3.225,-3.3121,-3.3842,0.0,0.0,0.0,0.0,0.0,0.0,0.0,0.0,0.0,0.0,0.0,0.0,0.0,0.0,0.0,0.0,0.0,0.0,0.0,0.0,0.0,0.0,0.0,-4.757,-4.6557,-4.6748,-4.6787,-4.6519,-4.6738,-4.6511,-4.5803,-4.6666,-4.7377,-4.7913,-4.749,-4.6759,-4.5797,-4.5797,-4.5797,-4.5701,0.0,-4.3335,-4.2986,-4.1505,-4.0754,-4.0523,-4.0523,-4.095,-4.1527,-4.0912,-4.1085,-4.1508,0.0,0.0,0.0,0.0,0.0,0.0,0.0,0.0,0.0,0.0,0.0,0.0,0.0,0.0,0.0,0.0,0.0,0.0,0.0,0.0,0.0,-2.108,-2.2372,-2.3097,-2.3108,-2.442,-2.4865,-2.4395,-2.5349,-2.621,-2.6995,-2.6995,-2.768,-2.8869,-2.7991,-2.8557,-3.004,-2.8328,-2.8875,-3.0782,0.0,0.0,0.0,0.0,0.0,0.0,0.0,0.0,0.0,0.0,-3.0698,-3.0704,-3.0697,0.0,0.0,0.0,0.0,0.0,-3.0656,-3.1196,-3.1937,-3.266,-3.3422,-3.4235,-3.5133,0.0,0.0,0.0,0.0,0.0,0.0,0.0,0.0,0.0,0.0,0.0,0.0,0.0,0.0,0.0,0.0,0.0,0.0,0.0,0.0,0.0,0.0,0.0,-4.6557,-4.65,-4.6309,-4.587,-4.6332,-4.6433,-4.611,-4.6033,-4.6263,-4.674,-4.6855,-4.6432,-4.5586,-4.5586,-4.5336,-4.4855,0.0,-4.3239,-4.2335,-4.1527,-4.0912,-4.0489,-4.0489,-4.0739,-4.1046,-4.0642,-4.0739,-4.1046,0.0,0.0,0.0,0.0,0.0,0.0,0.0,0.0,0.0,0.0,0.0,0.0,0.0,0.0,0.0,0.0,0.0,0.0,0.0,0.0,-2.0488,-2.0506,-2.2154,-2.3089,-2.3097,-2.4818,-2.5278,-2.4397,-2.5732,-2.6598,-2.6997,-2.6782,-2.7386,-2.8557,-2.7481,-2.7856,-2.9228,-2.8083,-2.8765,-3.0499,0.0,0.0,0.0,0.0,0.0,0.0,0.0,0.0,0.0,0.0,0.0,0.0,0.0,0.0,0.0,-3.0691,-3.0691,-3.0698,-3.069,-3.1233,-3.1988,-3.274,0.0,-3.412,-3.5787,0.0,0.0,0.0,0.0,0.0,0.0,0.0,0.0,0.0,0.0,0.0,0.0,0.0,0.0,0.0,0.0,0.0,0.0,0.0,0.0,0.0,0.0,0.0,-4.629,-4.6214,-4.5946,-4.5316,-4.591,-4.6296,-4.6397,-4.5745,-4.5591,-4.5913,-4.6374,-4.624,-4.5586,-4.5374,-4.4932,-4.4278,-4.3874,-4.2989,-4.1777,-4.1585,-4.1104,-4.0489,-4.0489,-4.0489,-4.0489,-4.0489,-4.0489,-4.0489,0.0,0.0,0.0,0.0,0.0,0.0,0.0,0.0,0.0,0.0,0.0,0.0,0.0,0.0,0.0,0.0,0.0,0.0,0.0,0.0,-2.0422,-2.0497,-2.2099,-2.3032,-2.3108,-2.4803,-2.5274,-2.4407,-2.4527,-2.5416,-2.6978,-2.6175,-2.7112,-2.9433,-2.7756,-2.7512,-2.8437,-2.9121,-2.9512,-2.9745,-3.0449,0.0,0.0,0.0,0.0,0.0,0.0,0.0,0.0,0.0,0.0,0.0,0.0,0.0,-3.0691,-3.0634,-3.0645,-3.068,-3.0618,-3.1197,-3.1997,-3.2797,0.0,0.0,-3.4823,0.0,0.0,0.0,0.0,0.0,0.0,0.0,0.0,0.0,0.0,0.0,0.0,0.0,0.0,0.0,0.0,0.0,0.0,0.0,0.0,0.0,0.0,0.0,-4.5468,-4.5392,-4.5354,-4.5297,-4.5435,-4.5475,-4.5496,-4.5495,-4.5916,-4.6797,-4.6047,-4.5663,-4.5566,-4.4759,-4.4355,-4.4201,-4.2662,-4.1912,-4.1739,-4.0931,-4.0546,-4.0489,-4.0489,-4.0489,-4.0489,-4.0489,-4.0489,-4.0489,0.0,0.0,0.0,0.0,0.0,0.0,0.0,0.0,0.0,0.0,0.0,0.0,0.0,0.0,0.0,0.0,0.0,0.0,0.0,0.0,-2.0415,-2.0433,-2.1599,-2.2245,-2.2235,-2.3903,-2.4355,-2.3528,-2.4107,-2.4731,-2.54,-2.6164,-2.6753,-2.7165,-2.7048,-2.7479,-2.83,-2.8064,-2.8917,-3.038,-3.0188,-3.0422,0.0,0.0,0.0,0.0,0.0,0.0,0.0,0.0,-3.0704,-3.0691,0.0,-3.0711,-3.0691,-3.0626,-3.0645,-3.0692,-3.061,-3.1187,-3.1851,-3.2023,0.0,0.0,0.0,0.0,0.0,0.0,0.0,0.0,0.0,0.0,0.0,0.0,0.0,0.0,0.0,0.0,0.0,0.0,0.0,0.0,0.0,0.0,0.0,0.0,0.0,0.0,-4.6042,-4.5067,-4.4763,-4.5339,-4.5398,-4.5419,-4.5457,-4.5495,-4.5704,-4.6086,-4.5759,-4.5316,-4.4778,-4.4451,-4.3739,-4.272,-4.2085,-4.1489,-4.0969,-4.0642,-4.0489,-4.0489,-4.0489,-4.0489,-4.0489,-4.0489,-4.0489,-4.0489,0.0,0.0,0.0,0.0,0.0,0.0,0.0,0.0,0.0,0.0,0.0,0.0,0.0,0.0,0.0,0.0,0.0,0.0,0.0,-2.119,-2.0415,-2.0434,-2.1298,-2.1745,-2.1697,-2.2527,-2.2849,-2.2615,-2.3829,-2.4534,-2.4852,-2.6598,-2.7245,-2.6953,-2.7265,-2.7734,-2.8281,-2.7962,-2.8852,-3.047,-3.0118,-3.0353,0.0,0.0,0.0,0.0,0.0,0.0,0.0,0.0,-3.0691,-3.0698,0.0,0.0,-3.0697,-3.0629,-3.0823,-3.108,-3.1028,-3.14,-3.189,0.0,0.0,0.0,0.0,0.0,0.0,0.0,0.0,0.0,0.0,0.0,0.0,0.0,0.0,0.0,0.0,0.0,0.0,0.0,0.0,0.0,0.0,0.0,0.0,0.0,0.0,0.0,0.0,-4.5029,-4.4591,-4.4977,-4.4957,-4.4882,-4.4707,-4.4689,-4.4725,-4.4797,-4.4797,-4.4624,-4.4297,-4.4047,-4.3143,-4.1777,-4.1508,-4.1046,-4.0489,-4.0489,-4.0489,-4.0489,-4.0489,-4.0489,-4.0489,-4.0489,-4.0489,-4.0489,0.0,0.0,0.0,0.0,0.0,0.0,0.0,0.0,0.0,0.0,0.0,0.0,0.0,0.0,0.0,0.0,0.0,0.0,-2.1601,-2.085,-2.0424,-2.0504,-2.127,-2.1696,-2.1701,-2.0797,-2.0805,-2.1808,-2.3542,-2.4842,-2.5759,-2.7498,-2.8769,-2.9551,-2.8685,-2.8305,-2.8362,-2.9231,-2.9601,-2.9669,-3.0489,-3.0841,-3.0894,0.0,0.0,0.0,0.0,0.0,0.0,0.0,-3.0704,-3.0691,0.0,0.0,0.0,-3.0625,-3.1204,-3.1898,-3.1882,-3.1845,0.0,0.0,0.0,0.0,0.0,0.0,0.0,0.0,0.0,0.0,0.0,0.0,0.0,0.0,0.0,0.0,0.0,0.0,0.0,0.0,0.0,0.0,0.0,0.0,0.0,0.0,0.0,0.0,0.0,-4.5277,-4.4916,-4.4116,-4.4037,-4.3675,-4.3017,-4.2926,-4.2961,-4.3104,-4.3104,-4.3508,-4.4239,-4.3451,-4.2604,-4.1739,-4.0873,-4.0489,-4.0489,-4.0489,-4.0489,-4.0489,-4.0489,-4.0489,-4.0489,-4.0489,-4.0489,-4.0489,0.0,0.0,0.0,0.0,0.0,0.0,0.0,0.0,0.0,0.0,0.0,0.0,0.0,0.0,0.0,0.0,0.0,0.0,-2.1598,-2.0849,-2.0404,-2.0418,-2.0695,-2.1117,-2.1681,-2.2041,-2.2037,-2.1736,-2.3524,-2.5158,-2.6657,-2.8398,-2.9022,-2.8703,-2.9068,-2.9205,-2.9228,-2.948,-2.9947,-3.0548,-3.0762,-3.086,-3.0838,0.0,0.0,0.0,0.0,0.0,0.0,0.0,0.0,0.0,0.0,0.0,0.0,-3.0621,-3.0787,-3.0981,-3.0981,0.0,0.0,0.0,0.0,0.0,0.0,0.0,0.0,0.0,0.0,0.0,0.0,0.0,0.0,0.0,0.0,0.0,0.0,0.0,0.0,0.0,0.0,0.0,0.0,0.0,0.0,0.0,0.0,0.0,0.0,-4.4399,-4.4018,-4.3216,-4.3752,-4.3714,-4.2926,-4.2907,-4.2926,-4.2961,-4.3015,-4.2859,-4.2527,-4.2297,-4.172,-4.0873,-4.0604,-4.0492,-4.0499,-4.0499,-4.0511,-4.0489,-4.0489,-4.0489,-4.0489,-4.0489,-4.0489,-4.0489,0.0,0.0,0.0,0.0,0.0,0.0,0.0,0.0,0.0,0.0,0.0,0.0,0.0,0.0,0.0,0.0,0.0,0.0,0.0,0.0,-2.041,-2.0432,-2.0443,-2.069,-2.121,-2.276,-2.3296,-2.2771,-2.4204,-2.5637,-2.7048,-2.8788,-2.9505,-2.9357,-2.9884,-3.0101,-3.0085,-3.0101,-3.0411,-3.0899,-3.088,-3.086,-3.0838,0.0,0.0,0.0,0.0,0.0,0.0,0.0,0.0,0.0,0.0,0.0,0.0,-3.1022,-3.1142,-3.1382,-3.2391,0.0,0.0,0.0,0.0,0.0,0.0,0.0,0.0,0.0,0.0,0.0,0.0,0.0,0.0,0.0,0.0,0.0,0.0,0.0,0.0,0.0,0.0,0.0,0.0,0.0,0.0,0.0,0.0,0.0,0.0,-4.4017,-4.3635,-4.2833,-4.2967,-4.268,-4.1911,-4.1874,-4.1874,-4.1911,-4.1946,-4.1558,-4.0784,-4.1473,-4.1316,-4.0489,-4.0492,-4.0495,-4.0502,-4.0502,-4.0499,-4.0511,-4.0508,-4.0489,-4.0489,-4.0489,-4.0489,-4.0489,0.0,0.0,0.0,0.0,0.0,0.0,0.0,0.0,0.0,0.0,0.0,0.0,0.0,0.0,0.0,0.0,0.0,0.0,0.0,0.0,-2.0463,-2.0599,-2.0692,-2.0778,-2.0851,-2.3178,-2.4422,-2.4525,-2.5309,-2.623,-2.7261,-2.8863,-3.006,-3.0899,-3.0899,-3.088,-3.0801,-3.088,-3.0899,-3.0899,-3.0841,-3.0841,-3.0877,-3.0817,0.0,0.0,0.0,0.0,0.0,0.0,0.0,0.0,-3.0722,-3.071,-3.0847,-3.1569,-3.1887,-3.2516,0.0,0.0,0.0,0.0,0.0,0.0,0.0,0.0,0.0,0.0,0.0,0.0,0.0,0.0,0.0,0.0,0.0,0.0,0.0,0.0,0.0,0.0,0.0,0.0,0.0,0.0,0.0,0.0,0.0,0.0,0.0,-4.373,-4.3406,-4.2604,-4.1858,-4.1093,-4.0283,-4.021,-4.021,-4.0264,-4.0187,-3.9838,-3.9237,-4.0841,-4.1085,-4.0277,-4.0422,-4.0463,-4.0386,-4.0463,-4.0482,-4.0499,-4.0492,-4.0489,-4.0489,-4.0489,-4.0489,-4.0489,0.0,0.0,0.0,0.0,0.0,0.0,0.0,0.0,0.0,0.0,0.0,0.0,0.0,0.0,0.0,0.0,0.0,0.0,0.0,0.0,-2.0706,-2.1404,-2.2693,-2.3403,-2.3475,-2.4023,-2.4681,-2.543,-2.5605,-2.6853,-2.9049,-2.9418,-3.004,-3.0821,-3.088,-3.0899,-3.088,-3.0899,-3.0899,-3.0899,-3.088,-3.086,-3.0819,-3.0816,-3.0794,0.0,0.0,0.0,0.0,0.0,0.0,0.0,-3.0691,-3.0698,-3.073,-3.0911,-3.1448,-3.2128,0.0,0.0,0.0,0.0,0.0,0.0,0.0,0.0,0.0,0.0,0.0,0.0,0.0,0.0,0.0,0.0,0.0,0.0,0.0,0.0,0.0,0.0,0.0,0.0,0.0,0.0,0.0,0.0,0.0,0.0,-4.1151,-4.1686,-4.1667,-4.0864,-4.1266,-4.0788,-3.9334,-3.9297,-3.9297,0.0,-3.8714,-3.8671,-3.9147,-3.9544,-3.9304,-3.8623,-3.9819,-4.003,-3.9608,-4.0181,-4.0447,-4.0508,-4.0489,-4.0489,-4.0489,-4.0489,-4.0489,-4.0489,0.0,0.0,0.0,0.0,0.0,0.0,0.0,0.0,0.0,0.0,0.0,0.0,0.0,0.0,0.0,0.0,0.0,0.0,0.0,0.0,0.0,-2.228,-2.3564,-2.4261,-2.4291,-2.4715,-2.5174,-2.57,-2.5698,-2.6816,0.0,0.0,-2.965,-3.086,-3.088,-3.0899,-3.0899,-3.0903,-3.0901,-3.0899,-3.0899,-3.088,-3.0838,-3.081,-3.0807,-3.0804,-3.0755,0.0,0.0,0.0,0.0,0.0,0.0,0.0,-3.0775,-3.121,-3.1352,-3.1727,0.0,0.0,0.0,0.0,0.0,0.0,0.0,0.0,0.0,0.0,0.0,0.0,0.0,0.0,0.0,0.0,0.0,0.0,0.0,0.0,0.0,0.0,0.0,0.0,0.0,0.0,0.0,0.0,0.0,-4.1151,-4.0348,-4.031,-4.0119,-3.9699,-3.968,-3.926,-3.8381,-3.8381,-3.8591,-3.8992,-3.8625,-3.8448,-3.8484,-3.8972,-3.8965,-3.8635,-3.9804,-4.0093,-3.9816,-4.0187,-4.0377,-4.0408,-4.0444,-4.046,-4.0495,-4.0495,-4.0492,-4.0489,0.0,0.0,0.0,0.0,0.0,0.0,0.0,0.0,0.0,0.0,0.0,0.0,0.0,0.0,0.0,0.0,0.0,0.0,0.0,0.0,0.0,-2.2972,-2.3975,-2.4515,-2.4527,-2.5095,-2.5483,-2.5699,-2.5554,0.0,0.0,0.0,0.0,-3.088,-3.0899,-3.0899,-3.0901,-3.0891,-3.0909,-3.0903,-3.0884,-3.0884,-3.0884,-3.0827,-3.0801,-3.0795,-3.0739,-3.0726,-3.0724,-3.0725,0.0,0.0,0.0,0.0,-3.0839,-3.1559,-3.1372,-3.1534,0.0,0.0,0.0,0.0,0.0,0.0,0.0,0.0,0.0,0.0,0.0,0.0,0.0,0.0,0.0,0.0,0.0,0.0,0.0,0.0,0.0,0.0,0.0,0.0,0.0,0.0,0.0,0.0,0.0,-4.0788,-4.0119,-3.926,-3.8839,-3.9011,-3.8151,-3.7636,-3.7483,-3.7483,-3.7846,-3.8572,-3.8572,-3.8148,-3.7414,-3.8323,-3.8661,-3.8585,-3.948,-3.9867,-3.9904,-4.0039,-4.0191,-4.0342,-4.0379,-4.0432,-4.0466,-4.0466,-4.0479,-4.0473,0.0,0.0,0.0,0.0,0.0,0.0,0.0,0.0,0.0,0.0,0.0,0.0,0.0,0.0,0.0,0.0,0.0,0.0,-2.0488,0.0,0.0,-2.2996,-2.4558,-2.5424,-2.5426,-2.4853,-2.4935,-2.5694,0.0,0.0,0.0,0.0,0.0,-3.0821,0.0,-3.0903,-3.0909,-3.0897,-3.0897,-3.0895,-3.0839,-3.08,-3.082,-3.0875,-3.0853,-3.0795,-3.0781,-3.0793,-3.0788,-3.0796,-3.0758,0.0,0.0,0.0,-3.0722,-3.0839,-3.1331,-3.1935,0.0,0.0,0.0,0.0,0.0,0.0,0.0,0.0,0.0,0.0,0.0,0.0,0.0,0.0,0.0,0.0,0.0,0.0,0.0,0.0,0.0,0.0,0.0,0.0,0.0,0.0,0.0,0.0,-3.9336,-3.9298,-3.9183,-3.8343,-3.8228,-3.8973,-3.8151,-3.7368,-3.668,-3.6661,-3.6719,-3.6833,-3.6829,-3.6419,-3.5665,-3.6492,-3.6473,-3.591,-3.74,-3.8123,-3.8278,-3.8963,-3.9747,-4.0466,-4.0415,-4.0415,-4.0415,-4.0415,-4.0396,-4.0413,0.0,0.0,0.0,0.0,0.0,0.0,0.0,0.0,0.0,0.0,0.0,0.0,0.0,0.0,0.0,-2.1136,-2.1166,-2.1355,-2.1822,-2.3035,-2.3925,-2.4374,-2.5174,-2.5607,-2.5601,-2.5243,-2.5261,-2.5631,0.0,0.0,0.0,-2.8808,-2.9667,0.0,0.0,0.0,0.0,-3.0386,-3.0171,-3.0135,-2.9605,-2.9662,-3.0012,-2.9567,-2.9977,-3.0747,-3.0243,-3.0388,-3.0801,-3.0797,-3.0788,-3.0755,-3.0794,0.0,0.0,0.0,0.0,0.0,0.0,0.0,0.0,0.0,0.0,0.0,0.0,0.0,0.0,0.0,0.0,0.0,0.0,0.0,0.0,0.0,0.0,0.0,0.0,0.0,0.0,0.0,0.0,0.0,0.0,0.0,0.0,0.0,-3.9241,-3.8974,-3.8956,-3.8153,-3.7637,-3.7562,-3.7217,-3.6623,-3.5783,-3.5783,-3.6031,-3.6509,-3.6506,-3.6313,-3.5965,-3.5835,-3.5851,-3.6036,-3.7211,-3.7728,-3.7778,-3.7687,-3.7879,-3.8257,-3.824,-3.824,-3.8331,-3.8791,-3.925,-3.9668,0.0,0.0,0.0,0.0,0.0,0.0,0.0,0.0,0.0,0.0,0.0,0.0,0.0,0.0,0.0,0.0,-2.1351,-2.1688,-2.2533,-2.3469,-2.4347,-2.5162,-2.5451,-2.5593,-2.5601,-2.5621,-2.5618,0.0,0.0,0.0,-2.8323,-2.9199,-3.0038,0.0,-3.088,0.0,0.0,0.0,0.0,0.0,-2.8802,-2.9111,-2.9814,-2.9354,-3.0147,-3.1323,-3.0235,-3.0409,-3.1077,-3.0644,-3.0625,-3.08,-3.0799,-3.0794,0.0,0.0,0.0,0.0,0.0,0.0,0.0,0.0,0.0,0.0,0.0,0.0,0.0,0.0,0.0,0.0,0.0,0.0,0.0,0.0,0.0,0.0,0.0,0.0,0.0,0.0,0.0,0.0,0.0,0.0,0.0,0.0,-3.9643,-3.928,-3.9261,-3.8477,-3.7733,-3.7086,-3.6702,-3.6203,-3.5553,-3.5305,-3.5534,-3.6184,-3.6184,-3.6184,-3.6165,-3.5496,-3.5551,-3.6195,-3.6793,-3.708,-3.7041,-3.6413,-3.6184,-3.622,-3.6413,-3.6525,-3.6673,-3.7477,-3.8199,-3.8769,0.0,0.0,0.0,0.0,0.0,0.0,0.0,0.0,0.0,0.0,0.0,0.0,-2.1756,-2.092,-2.0366,-2.0366,-2.0372,-2.0779,-2.1693,-2.2577,-2.3453,-2.4321,-2.5162,0.0,-2.5601,-2.5654,0.0,0.0,0.0,0.0,-2.8323,-2.9199,-3.0057,-3.0899,-3.0899,-3.045,-2.9652,0.0,0.0,0.0,0.0,0.0,0.0,0.0,0.0,0.0,0.0,-3.1344,-3.1797,-3.0209,-3.0167,-3.0806,-3.0793,-3.0799,-3.0648,0.0,0.0,0.0,0.0,0.0,0.0,0.0,0.0,0.0,0.0,0.0,0.0,0.0,0.0,0.0,0.0,0.0,0.0,0.0,0.0,0.0,0.0,0.0,0.0,0.0,0.0,0.0,0.0,0.0,0.0,0.0,-4.0158,-4.0158,-4.0215,-3.9412,-3.8916,-3.8877,-3.733,-3.6489,-3.6432,-3.5611,-3.5229,-3.5267,-3.5267,-3.5267,-3.5267,-3.5229,-3.5229,-3.5267,-3.5305,-3.5376,-3.5423,-3.5302,-3.5318,-3.5426,-3.62,-3.6509,-3.6604,-3.7406,-3.7766,-3.7893,0.0,0.0,0.0,0.0,0.0,0.0,0.0,0.0,0.0,0.0,0.0,0.0,0.0,-2.1649,-2.1118,-2.107,-2.1074,-2.1679,-2.308,-2.3559,-2.4179,-2.5099,-2.5435,-2.5595,-2.5595,-2.5664,0.0,0.0,0.0,-2.7457,-2.8315,-2.8628,-2.892,-2.9252,-2.9823,-2.9888,-2.9523,-2.8414,0.0,0.0,0.0,0.0,0.0,0.0,0.0,0.0,0.0,0.0,0.0,-3.082,-3.0254,-2.9922,-2.9372,-2.9197,-2.914,-2.8777,0.0,0.0,0.0,0.0,0.0,0.0,0.0,0.0,0.0,0.0,0.0,0.0,0.0,0.0,0.0,0.0,0.0,0.0,0.0,0.0,0.0,0.0,0.0,0.0,0.0,0.0,0.0,0.0,0.0,0.0,0.0,-4.0253,-4.0234,-3.9986,-3.9318,-3.8193,-3.758,-3.6757,-3.5687,-3.5362,-3.5209,-3.5209,-3.5209,-3.5209,-3.519,-3.4674,-3.4426,-3.4407,-3.3853,-3.3945,-3.4419,-3.3834,-3.328,-3.2832,-3.3108,-3.3582,-3.4225,-3.5028,-3.6071,-3.7102,0.0,0.0,0.0,0.0,0.0,0.0,0.0,0.0,0.0,0.0,0.0,0.0,0.0,0.0,-2.1081,-2.1029,-2.1314,-2.2109,-2.3521,-2.3976,-2.4633,-2.5554,-2.56,-2.5741,-2.6023,-2.5813,-2.6241,0.0,0.0,0.0,0.0,-2.8296,-2.8296,-2.8315,-2.8594,-2.8737,0.0,0.0,0.0,-2.7104,0.0,0.0,-3.0029,0.0,0.0,0.0,0.0,0.0,0.0,0.0,-3.0714,-3.0263,0.0,0.0,0.0,0.0,0.0,0.0,0.0,0.0,0.0,0.0,0.0,0.0,0.0,0.0,0.0,0.0,0.0,0.0,0.0,0.0,0.0,0.0,0.0,0.0,0.0,0.0,0.0,0.0,0.0,0.0,0.0,0.0,0.0,0.0,0.0,0.0,-3.9795,-3.9833,-3.9088,-3.7354,-3.7294,-3.6623,-3.5209,-3.5209,-3.5209,-3.5209,-3.5209,-3.5209,-3.519,-3.4655,-3.4407,-3.435,-3.3509,-3.3146,-3.3108,-3.2535,-3.179,-3.1026,-3.1331,-3.1991,-3.2896,-3.3685,-3.4789,-3.5905,0.0,0.0,0.0,0.0,0.0,0.0,0.0,0.0,0.0,0.0,0.0,0.0,0.0,0.0,0.0,-2.0212,-2.1032,-2.1916,-2.2809,-2.3705,-2.4626,-2.5556,-2.5593,-2.6007,-2.685,-2.6108,-2.6515,0.0,0.0,0.0,0.0,0.0,-2.8225,-2.8186,-2.7344,-2.6954,-2.6954,0.0,-2.6976,-2.7149,0.0,-3.0162,-3.1125,0.0,0.0,0.0,-3.2558,-3.2753,0.0,-3.1499,0.0,0.0,0.0,0.0,0.0,0.0,0.0,0.0,0.0,0.0,0.0,0.0,0.0,0.0,0.0,0.0,0.0,0.0,0.0,0.0,0.0,0.0,0.0,0.0,0.0,0.0,0.0,0.0,0.0,0.0,0.0,0.0,0.0,0.0,0.0,0.0,-4.0138,-3.9815,-3.9049,-3.8954,-3.819,-3.6566,-3.6489,-3.6069,-3.5209,-3.5209,-3.5209,-3.5209,-3.5209,-3.5209,-3.5209,-3.519,-3.5171,-3.5114,-3.4312,-3.3032,-3.1522,-3.1503,-3.0987,-3.028,-3.1159,-3.201,-3.2857,-3.3681,-3.4054,-3.4301,0.0,0.0,0.0,0.0,0.0,0.0,0.0,0.0,0.0,0.0,0.0,0.0,-2.2293,-2.2114,-2.223,-2.2793,-2.2604,-2.3053,-2.4504,-2.4355,-2.4626,-2.5562,-2.5609,-2.5712,-2.5949,-2.5734,-2.6152,-2.7254,0.0,0.0,0.0,0.0,0.0,0.0,-2.6175,-2.6058,-2.6058,-2.6054,0.0,0.0,-2.9531,-3.0992,0.0,0.0,0.0,0.0,0.0,-3.3748,-3.3222,0.0,-3.1128,-3.0005,0.0,0.0,0.0,0.0,0.0,0.0,-2.8223,0.0,0.0,0.0,0.0,0.0,0.0,0.0,0.0,0.0,0.0,0.0,0.0,0.0,0.0,0.0,0.0,0.0,0.0,0.0,0.0,0.0,0.0,0.0,0.0,0.0,0.0,0.0,-3.9624,-3.9222,-3.9011,-3.7846,-3.6986,-3.6511,-3.5897,-3.5439,-3.5209,-3.5209,-3.5209,-3.5209,-3.5209,-3.5209,-3.519,-3.4598,-3.4331,-3.4273,-3.3433,-3.2802,-3.2325,-3.1694,-3.0949,-3.028,-3.115,-3.1678,-3.2045,-3.2936,-3.3361,-3.35,0.0,0.0,0.0,0.0,0.0,0.0,0.0,0.0,0.0,0.0,0.0,0.0,-2.2519,-2.254,-2.2767,-2.3266,-2.3283,-2.3698,-2.4726,-2.4733,-2.4962,-2.557,-2.5568,-2.5749,-2.6137,-2.578,-2.6221,-2.7433,0.0,0.0,0.0,0.0,0.0,0.0,0.0,0.0,0.0,0.0,0.0,0.0,-2.9772,0.0,0.0,-3.3459,-3.4447,0.0,0.0,0.0,-3.3808,-3.2943,-3.1053,0.0,0.0,0.0,0.0,0.0,0.0,0.0,0.0,0.0,0.0,0.0,0.0,0.0,-3.0414,-3.2141,0.0,0.0,0.0,0.0,0.0,0.0,0.0,0.0,0.0,0.0,0.0,0.0,0.0,0.0,0.0,0.0,0.0,-3.9834,-3.9719,-3.9643,-3.8935,-3.8339,-3.798,-3.67,-3.5974,-3.5974,-3.5458,-3.5209,-3.5209,-3.5209,-3.5209,-3.5209,-3.5209,-3.5209,-3.519,-3.4713,-3.4503,-3.4445,-3.3605,-3.3051,-3.2615,-3.1785,-3.1379,-3.1298,-3.1479,-3.1808,-3.2261,-3.2805,-3.2838,-3.2723,0.0,0.0,0.0,0.0,0.0,0.0,0.0,0.0,0.0,0.0,-2.2615,-2.2691,-2.2678,-2.2685,-2.2716,-2.2756,-2.3534,-2.407,-2.4187,-2.496,-2.5449,-2.5557,-2.5511,-2.5874,-2.6741,-2.5997,-2.6343,-2.7901,0.0,0.0,0.0,0.0,0.0,0.0,0.0,0.0,0.0,0.0,0.0,-2.7212,-2.9567,-3.0667,0.0,0.0,-3.3311,-3.3414,-3.3513,-3.3982,-3.4433,-3.3653,-3.1318,0.0,0.0,0.0,0.0,0.0,-2.661,0.0,0.0,0.0,0.0,0.0,0.0,0.0,-3.0027,-3.1284,-3.2866,0.0,0.0,0.0,0.0,0.0,0.0,0.0,0.0,0.0,0.0,0.0,0.0,0.0,0.0,0.0,-4.0177,-3.9541,-3.908,-3.9029,-3.818,-3.7297,-3.6427,-3.5646,-3.5207,-3.5207,-3.519,-3.5209,-3.5209,-3.5209,-3.5209,-3.5209,-3.5209,-3.5209,-3.5209,-3.5209,-3.5209,-3.5171,-3.4445,-3.3643,-3.2783,-3.2001,-3.1996,-3.2469,-3.1859,-3.2071,-3.2752,-3.2829,-3.2415,-3.187,-1.9402,0.0,0.0,0.0,0.0,0.0,0.0,0.0,0.0,0.0,0.0,-2.4406,-2.4415,-2.446,-2.4486,-2.4435,-2.47,-2.4855,-2.482,-2.5129,-2.532,-2.5272,-2.5374,-2.553,-2.5766,-2.5611,-2.5719,-2.6111,0.0,0.0,0.0,0.0,0.0,0.0,0.0,0.0,0.0,0.0,0.0,-2.7104,-2.8301,0.0,-3.101,-3.1973,-3.2793,-3.3496,-3.4199,-3.4099,-3.3634,-3.3457,-3.2491,-3.1231,0.0,0.0,0.0,0.0,0.0,0.0,0.0,0.0,0.0,0.0,0.0,0.0,-2.7433,-2.8397,-2.9373,0.0,0.0,0.0,0.0,0.0,0.0,0.0,0.0,0.0,0.0,0.0,0.0,0.0,0.0,0.0,-4.0138,-3.9541,-3.9078,-3.9078,-3.774,-3.6536,-3.5657,-3.5407,-3.5285,-3.5285,-3.5223,-3.5209,-3.5209,-3.5209,-3.5209,-3.5209,-3.5209,-3.5209,-3.5209,-3.5209,-3.5209,-3.519,-3.5037,-3.4534,-3.3753,-3.296,-3.1898,-3.0849,-3.1448,-3.1425,-3.1149,-3.1864,-3.1618,-3.0955,-1.9438,0.0,0.0,0.0,0.0,0.0,0.0,0.0,0.0,0.0,0.0,0.0,0.0,0.0,0.0,-2.494,-2.5006,-2.505,-2.5099,-2.5222,-2.5293,-2.5292,-2.5357,-2.5421,-2.5499,-2.5472,-2.5483,-2.5557,0.0,0.0,0.0,0.0,0.0,0.0,0.0,0.0,0.0,0.0,-2.5953,-2.6501,-2.8244,0.0,-3.0993,-3.1797,-3.2909,-3.4042,-3.4042,-3.4053,-3.4059,-3.4048,-3.2888,0.0,0.0,-3.085,-2.9999,0.0,-2.9511,-3.0093,0.0,0.0,0.0,-2.831,0.0,0.0,0.0,-2.7906,-2.8929,-2.9151,0.0,0.0,0.0,0.0,0.0,0.0,0.0,0.0,0.0,0.0,0.0,0.0,0.0,0.0,-3.9013,-3.8408,-3.78,-3.7377,-3.6555,-3.5864,-3.5422,-3.5345,-3.5315,-3.535,-3.532,-3.5285,-3.5296,-3.527,-3.5254,-3.5254,-3.5226,-3.5226,-3.5254,-3.5226,-3.5239,-3.5296,-3.527,-3.4572,-3.348,-3.3096,-3.1969,-3.0537,-3.1397,-3.1536,-3.131,-3.1745,-3.139,-3.069,-1.9884,0.0,0.0,0.0,0.0,0.0,0.0,0.0,0.0,0.0,0.0,0.0,0.0,0.0,0.0,0.0,0.0,-2.4936,0.0,0.0,0.0,-2.5109,-2.5281,-2.5432,-2.5464,-2.5426,-2.5434,-2.5488,0.0,0.0,0.0,0.0,0.0,0.0,0.0,0.0,0.0,0.0,0.0,-2.6386,0.0,-2.9778,-3.0468,-3.1113,-3.2441,-3.3903,-3.353,-3.3964,-3.4705,-3.4706,-3.3293,-3.1597,-3.1971,-3.1362,0.0,0.0,0.0,0.0,0.0,0.0,0.0,0.0,0.0,-2.8842,0.0,0.0,0.0,-2.8637,0.0,0.0,0.0,0.0,0.0,0.0,0.0,0.0,0.0,0.0,0.0,0.0,0.0,0.0,-3.7693,-3.7186,-3.6479,-3.5674,-3.5509,-3.5435,-3.5435,-3.5374,-3.536,-3.5412,-3.5379,-3.5374,-3.535,-3.5172,-3.5051,-3.5021,-3.4993,-3.4993,-3.5021,-3.5162,-3.5189,-3.5147,-3.511,-3.4159,-3.2663,-3.2744,-3.1921,-3.0662,-3.1313,-3.1602,-3.1665,-3.1665,-3.1263,-3.069,-2.144,-2.1616,0.0,0.0,0.0,0.0,0.0,0.0,0.0,0.0,0.0,0.0,0.0,0.0,0.0,0.0,0.0,0.0,-2.3827,0.0,0.0,-2.4007,-2.4899,-2.5369,-2.5332,-2.5376,-2.5401,-2.541,0.0,0.0,0.0,0.0,0.0,0.0,-2.6517,0.0,0.0,0.0,-2.7305,0.0,-2.832,-2.8516,0.0,-2.871,-2.9783,-3.1421,-3.289,-3.3968,-3.4698,0.0,-3.4462,-3.3926,0.0,-3.301,-3.3653,-3.1334,0.0,0.0,0.0,0.0,0.0,0.0,-2.8841,0.0,0.0,0.0,-2.7928,-2.6418,0.0,0.0,0.0,0.0,0.0,0.0,0.0,0.0,0.0,0.0,0.0,0.0,0.0,0.0,0.0,-3.6884,-3.6491,-3.5731,-3.562,-3.5577,-3.5577,-3.5509,-3.5476,-3.5493,-3.5364,-3.5285,-3.5223,-3.4576,-3.4148,-3.3965,-3.4082,-3.4117,-3.4088,-3.491,-3.4898,-3.4242,-3.4299,-3.3385,-3.1838,-3.1909,-3.141,-3.0602,-3.0699,-3.0781,-3.0839,-3.0839,-3.0787,-3.069,-2.1875,-2.227,0.0,0.0,0.0,0.0,0.0,0.0,0.0,0.0,0.0,0.0,0.0,0.0,0.0,0.0,0.0,-2.4991,0.0,0.0,0.0,0.0,-2.586,-2.6323,-2.6795,-2.6381,-2.6157,-2.6157,-2.5708,0.0,0.0,0.0,0.0,0.0,-2.6554,0.0,-2.6516,0.0,-2.7672,0.0,0.0,0.0,0.0,-2.9423,-3.0536,-3.1725,-3.2966,-3.364,-3.4023,0.0,-3.4003,0.0,0.0,0.0,0.0,0.0,0.0,0.0,0.0,0.0,0.0,0.0,0.0,0.0,-2.7856,0.0,-2.8004,0.0,0.0,0.0,0.0,0.0,0.0,0.0,-2.8158,0.0,0.0,0.0,0.0,0.0,0.0,0.0,0.0,0.0,0.0,0.0,-3.5102,-3.5032,-3.5577,-3.5534,-3.5528,-3.5573,-3.5463,-3.5185,-3.4691,-3.4332,-3.3862,-3.3293,-3.382,-3.3801,-3.336,-3.4265,-3.4243,-3.3506,-3.3518,-3.2871,-3.1826,-3.1855,-3.1361,-3.0602,-3.0602,-3.0634,-3.069,-3.069,-3.069,-3.069,-2.2605,0.0,0.0,0.0,0.0,0.0,0.0,0.0,0.0,0.0,0.0,0.0,-2.4787,-2.4802,0.0,0.0,-2.5532,-2.5323,0.0,0.0,-2.5508,-2.6165,-2.6436,0.0,0.0,0.0,-2.7007,-2.7007,-2.6213,0.0,0.0,0.0,0.0,0.0,0.0,-2.6939,-2.7054,0.0,0.0,-2.7764,-2.8403,-2.8791,-2.9123,-3.0392,-3.1231,-3.1856,-3.2734,-3.3041,-3.3149,-3.3766,-3.3306,0.0,-3.4355,0.0,0.0,0.0,0.0,0.0,-3.1456,0.0,0.0,0.0,0.0,0.0,0.0,0.0,0.0,0.0,0.0,0.0,0.0,0.0,0.0,0.0,0.0,-2.8059,0.0,0.0,0.0,0.0,0.0,0.0,0.0,0.0,0.0,-3.5121,-3.4603,-3.459,-3.5521,-3.5528,-3.5515,-3.5566,-3.5522,-3.5085,-3.425,-3.3994,-3.3513,-3.2858,-3.3223,-3.3223,-3.2891,-3.3551,-3.3429,-3.272,-3.269,-3.224,-3.1535,-3.1535,-3.1176,-3.0602,-3.0602,-3.0626,-3.0676,-3.0683,-3.0703,-3.0703,-2.4063,-2.4247,0.0,0.0,0.0,0.0,0.0,0.0,0.0,0.0,0.0,0.0,0.0,0.0,0.0,0.0,0.0,-2.5144,-2.5229,0.0,-2.5179,-2.5156,-2.6014,-2.6902,0.0,0.0,-2.7764,-2.7764,-2.7017,-2.6691,0.0,0.0,0.0,0.0,0.0,-2.6939,-2.7052,-2.7928,-2.8769,-2.9511,-2.955,-3.0018,-3.0723,0.0,-3.0821,-3.0958,-3.1836,0.0,0.0,-3.2166,-3.2721,0.0,0.0,0.0,0.0,0.0,0.0,0.0,0.0,0.0,0.0,-3.0979,0.0,0.0,0.0,0.0,-3.024,0.0,0.0,0.0,0.0,0.0,0.0,0.0,0.0,0.0,0.0,0.0,0.0,0.0,0.0,0.0,0.0,0.0,-3.3365,-3.4268,-3.4248,-3.4578,-3.5457,-3.5502,-3.5509,-3.5507,-3.5507,-3.5056,-3.4122,-3.3327,-3.2864,-3.2703,-3.2018,-3.207,-3.2814,-3.291,-3.2499,-3.1754,-3.1813,-3.139,-3.0636,-3.0636,-3.0635,-3.0604,-3.0604,-3.0593,-3.061,-3.0673,-3.07,-3.0707,0.0,0.0,0.0,0.0,0.0,0.0,0.0,-2.426,0.0,0.0,0.0,0.0,0.0,-2.4692,-2.5088,0.0,0.0,-2.5285,-2.601,-2.5524,0.0,0.0,0.0,-2.7687,0.0,0.0,-2.8664,-2.8664,-2.7345,-2.6704,0.0,0.0,0.0,0.0,0.0,-2.6831,0.0,0.0,0.0,0.0,0.0,-2.9767,-3.006,0.0,-3.0801,-3.0841,-3.1133,-3.1245,0.0,-3.1913,-3.2292,-3.2688,-3.3497,-3.3375,-3.3103,-3.394,-3.359,0.0,0.0,0.0,-3.2757,-3.1878,0.0,0.0,0.0,0.0,0.0,0.0,0.0,0.0,0.0,0.0,0.0,0.0,0.0,0.0,0.0,0.0,0.0,0.0,0.0,0.0,0.0,0.0,0.0,-3.3323,-3.3383,-3.3724,-3.4578,-3.5187,-3.5495,-3.5509,-3.5501,-3.5064,-3.416,-3.3891,-3.3167,-3.2026,-3.2372,-3.2051,-3.1226,-3.1888,-3.1711,-3.0912,-3.0925,-3.0801,-3.0598,-3.0598,-3.0607,-3.0588,-3.0588,-3.0597,-3.0606,-3.0621,-3.0637,-3.0637,-2.3877,0.0,0.0,0.0,0.0,0.0,0.0,0.0,0.0,0.0,-2.4615,0.0,-2.4698,0.0,-2.5058,0.0,-2.5422,-2.5374,-2.6393,-2.5929,0.0,-2.6864,-2.7663,0.0,0.0,0.0,0.0,-2.9027,-2.7748,-2.6978,0.0,0.0,0.0,0.0,0.0,0.0,-2.6989,0.0,-2.8938,0.0,0.0,-3.004,0.0,0.0,-3.0626,-3.0411,0.0,-3.0796,-3.0888,-3.1441,-3.2054,-3.2747,-3.3829,-3.3843,-3.3653,-3.4759,-3.4296,-3.3505,-3.3785,-3.3861,0.0,-3.2773,-3.255,0.0,-3.1412,0.0,0.0,0.0,0.0,0.0,0.0,0.0,0.0,0.0,0.0,0.0,0.0,-2.6418,0.0,0.0,0.0,0.0,0.0,0.0,-3.0351,-3.2382,-3.2512,-3.2981,0.0,-3.5039,-3.5488,-3.5509,-3.5501,-3.5078,-3.4212,-3.3898,-3.3224,-3.2151,-3.21,-3.1646,-3.0871,-3.086,-3.0719,-3.0471,-2.9844,-2.9796,-3.0133,-3.0133,-3.0133,-3.0172,-3.0482,-3.0598,-3.0607,-3.0604,-3.0602,-3.061,0.0,0.0,0.0,0.0,-2.3194,0.0,0.0,0.0,-2.4551,0.0,-2.4701,-2.4698,-2.4692,-2.4685,-2.5091,-2.6037,-2.543,-2.5374,-2.6288,-2.6384,0.0,0.0,-2.835,-2.9201,-3.0011,0.0,0.0,0.0,0.0,0.0,0.0,0.0,0.0,0.0,-2.5485,0.0,-2.6891,-2.7768,-2.8694,-2.9679,-3.0491,-3.0801,-3.0743,-3.0782,-3.0294,-2.9708,-3.0504,-3.0794,-3.081,-3.079,-3.1952,-3.341,-3.3405,-3.4511,-3.5841,-3.5896,-3.5868,-3.5678,-3.4956,-3.4763,-3.4549,-3.3671,-3.3456,0.0,0.0,0.0,-3.1804,0.0,0.0,0.0,0.0,0.0,0.0,0.0,0.0,0.0,0.0,0.0,0.0,0.0,0.0,0.0,0.0,-2.8964,-2.8965,-3.138,-3.1607,0.0,0.0,-3.493,-3.5411,-3.5507,-3.5493,-3.5097,-3.4269,-3.3442,-3.3019,-3.2979,-3.1306,-3.0917,-3.1583,-2.991,-2.9635,-3.0402,-2.8705,-2.8463,-2.9302,-2.9302,-2.9302,-2.9379,-3.0269,-3.0598,-3.0598,-3.0606,-3.0604,-3.0602,-2.2941,-2.3084,-2.3321,0.0,-2.395,-2.3277,0.0,0.0,0.0,0.0,-2.4584,-2.4551,-2.4549,-2.4545,-2.4717,-2.5058,-2.4988,0.0,0.0,0.0,0.0,-2.6689,-2.8042,-2.8901,-2.9129,-2.9184,0.0,-2.8836,0.0,0.0,-2.6521,0.0,0.0,0.0,0.0,0.0,-2.5921,-2.6787,-2.8099,-2.9615,-2.9847,-2.9923,0.0,0.0,-3.0272,-2.9642,-3.0482,-3.0807,-3.0804,-3.0796,-3.1952,-3.3395,-3.3404,-3.4105,-3.5051,-3.5717,-3.5447,-3.5038,-3.5467,-3.5585,-3.5371,-3.4511,-3.4336,-3.4119,0.0,0.0,0.0,0.0,0.0,0.0,0.0,0.0,0.0,0.0,0.0,0.0,0.0,0.0,0.0,-2.6894,0.0,0.0,0.0,-2.8866,-2.9197,-2.9804,-3.0394,0.0,0.0,0.0,-3.416,-3.5468,-3.5493,-3.5386,-3.5156,-3.4943,-3.4212,-3.2979,-3.2377,-3.1634,-3.0706,-3.012,-3.0093,-3.0441,-2.9341,-2.9023,-2.9302,-2.9302,-2.9302,-2.9379,-3.0269,-3.0598,-3.0598,-3.0607,-3.0588,-3.0597,-2.2975,0.0,0.0,-2.434,0.0,0.0,-2.4296,0.0,0.0,-2.5015,-2.4739,0.0,-2.45,-2.4428,-2.4459,-2.4682,-2.4775,0.0,-2.518,0.0,0.0,-2.6917,-2.8137,-2.8962,-2.9273,-2.8992,0.0,-2.8227,0.0,0.0,-2.591,0.0,0.0,0.0,0.0,-2.5395,0.0,-2.685,-2.8255,-2.963,-2.9982,-3.0118,0.0,-3.0626,-3.0504,-3.0127,-3.0612,-3.0801,-3.0794,-3.0807,-3.1702,-3.2908,-3.3275,-3.3941,-3.476,-3.5644,-3.5545,-3.5288,-3.5801,-3.594,-3.5829,-3.5337,-3.5244,-3.5017,-3.4081,-3.3533,-3.3259,0.0,-3.2295,-3.1472,0.0,0.0,0.0,0.0,0.0,0.0,0.0,0.0,0.0,0.0,-2.6405,0.0,0.0,-2.8066,-2.8711,-2.8685,-2.9396,0.0,0.0,0.0,-3.3353,-3.4334,-3.5103,-3.5501,-3.5502,-3.4732,-3.3904,-3.2979,-3.2115,-3.1239,-3.0379,-2.9896,-2.9759,-2.9871,-2.8647,-2.8135,-2.8191,-2.8567,-2.8722,-2.8857,-3.0114,-3.0598,-3.0598,-3.0598,-3.0598,-3.0607,-2.3608,0.0,0.0,0.0,0.0,0.0,0.0,-2.5134,0.0,-2.5578,0.0,-2.4482,-2.4446,-2.4321,-2.4355,-2.4666,0.0,-2.4856,-2.518,-2.5945,-2.6708,-2.7404,-2.8213,-2.8947,-2.9564,-2.8852,-2.8122,0.0,0.0,0.0,0.0,0.0,0.0,0.0,0.0,0.0,0.0,-2.7298,-2.8574,-2.9494,-3.0313,-3.0704,-3.0799,-3.0799,-3.0796,-3.081,-3.0801,-3.079,-3.0802,-3.0794,-3.1373,-3.2246,-3.3139,-3.3945,-3.4765,-3.5632,-3.5901,-3.5916,-3.597,-3.5981,-3.5981,-3.6005,-3.599,-3.5793,-3.4974,-3.4744,-3.4511,-3.3866,-3.2968,-3.2538,0.0,0.0,0.0,0.0,0.0,0.0,0.0,0.0,0.0,0.0,0.0,0.0,0.0,0.0,0.0,0.0,0.0,0.0,0.0,0.0,-3.2602,-3.3064,-3.4545,-3.5328,-3.5329,-3.3827,-3.2981,-3.2805,-3.1275,-3.0482,-3.0359,-2.959,-2.9217,-2.9107,-2.7538,-2.6804,-2.6773,-2.7649,-2.8122,-2.8489,-3.0017,-3.0598,-3.0598,-3.0598,-3.0598,-3.0607,0.0,0.0,0.0,0.0,0.0,-2.5484,-2.6383,-2.5873,-2.5449,-2.5523,-2.482,-2.4303,-2.4266,-2.4321,-2.4464,-2.4673,-2.4813,0.0,0.0,0.0,0.0,-2.6606,-2.7385,-2.7852,-2.7922,-2.7214,-2.6719,0.0,0.0,0.0,0.0,0.0,0.0,0.0,0.0,0.0,-2.5544,-2.6665,0.0,-2.8596,-2.9455,-3.0214,-3.0794,-3.0794,-3.0807,-3.0801,-3.0798,-3.079,-3.079,-3.0793,-3.1378,-3.2254,-3.3124,-3.3955,-3.4766,-3.565,-3.5909,-3.5904,-3.5919,-3.5914,-3.5924,-3.5981,-3.6005,-3.5955,-3.5798,-3.5218,-3.4869,-3.5433,-3.4283,-3.3449,-3.4314,0.0,0.0,0.0,0.0,0.0,0.0,0.0,0.0,0.0,0.0,-2.7288,0.0,0.0,0.0,0.0,0.0,0.0,0.0,0.0,-3.1064,0.0,-3.4276,0.0,0.0,0.0,-3.3276,-3.1922,-3.1462,-3.0944,-3.0398,-3.0069,-2.9653,-2.9145,-2.8124,-2.7306,-2.6773,-2.7642,-2.8858,-3.0172,-3.0482,-3.0598,-3.0598,-3.0598,-3.0597,-3.0595,0.0,0.0,0.0,0.0,0.0,0.0,0.0,-2.6622,0.0,-2.613,-2.5022,-2.4247,-2.4266,-2.4284,-2.4411,-2.4676,-2.4768,-2.4912,-2.518,-2.555,-2.5964,-2.6378,-2.6765,0.0,-2.8164,-2.6972,-2.6534,-2.6921,0.0,0.0,0.0,0.0,0.0,0.0,0.0,-2.6051,0.0,0.0,0.0,-2.9003,-2.9879,-3.0443,-3.0798,-3.0807,-3.0807,-3.0798,-3.079,-3.0801,-3.0796,-3.0797,-3.1074,-3.1581,-3.2449,-3.2998,-3.3567,-3.4891,-3.5276,-3.5378,-3.5831,-3.5948,-3.5953,-3.599,-3.5994,-3.5997,-3.601,-3.5681,-3.5486,-3.5916,-3.4979,-3.3932,-3.3436,-3.2675,0.0,0.0,0.0,0.0,0.0,0.0,0.0,0.0,0.0,0.0,0.0,0.0,0.0,0.0,0.0,0.0,0.0,0.0,-3.0109,0.0,0.0,0.0,-3.3526,0.0,-3.2506,-3.1698,-3.1136,-3.0714,-3.0398,-3.0299,-2.9632,-2.8508,-2.8076,-2.7422,-2.6756,-2.8116,-2.9429,-3.0598,-3.0598,-3.0598,-3.0598,-3.0598,-3.0606,-3.0593,0.0,-2.4041,0.0,0.0,-2.672,0.0,-2.7647,-2.7145,-2.6675,-2.6659,-2.5223,-2.421,-2.4284,-2.4228,-2.4321,-2.461,-2.4676,-2.4827,-2.512,-2.534,-2.5652,-2.6111,-2.6288,-2.689,-2.7975,-2.6711,-2.6445,0.0,0.0,0.0,0.0,0.0,0.0,0.0,0.0,0.0,0.0,0.0,-2.9162,-2.9303,-3.018,-3.0528,-3.0548,-3.0723,-3.0801,-3.0794,-3.0806,-3.0791,-3.0796,-3.0798,-3.0799,-3.0955,-3.1822,-3.2093,-3.2406,-3.3975,-3.4428,-3.4569,-3.526,-3.5459,-3.5498,-3.5685,-3.5728,-3.5767,-3.5952,-3.5991,-3.5952,-3.5759,-3.5174,-3.4283,-3.2909,-3.2792,0.0,0.0,0.0,0.0,0.0,0.0,0.0,0.0,0.0,0.0,-2.5805,0.0,0.0,0.0,0.0,0.0,-2.7694,0.0,0.0,0.0,0.0,-3.2384,-3.2372,0.0,-3.1621,-3.1429,-3.0737,-3.0398,-3.0398,-3.0398,-2.9486,-2.789,-2.7892,-2.7517,-2.6988,-2.8435,-2.9641,-3.0588,-3.0598,-3.0598,-3.0598,-3.0607,-3.0595,-3.0602,0.0,0.0,0.0,0.0,0.0,0.0,-2.7827,-2.7148,-2.6591,-2.653,-2.5182,-2.421,-2.4209,-2.419,-2.4266,-2.4407,-2.4594,-2.4768,-2.4912,-2.5773,-2.5977,-2.5254,-2.592,-2.6021,-2.5373,-2.526,-2.5621,0.0,0.0,-2.5411,0.0,0.0,0.0,0.0,0.0,0.0,0.0,-2.81,-2.8262,-2.8407,-2.9265,-2.9613,-2.9717,-3.0509,-3.0802,-3.0802,-3.0802,-3.0804,-3.08,-3.08,-3.0795,-3.0953,-3.1839,-3.2094,-3.2289,-3.3234,-3.3526,-3.3531,-3.3622,-3.3641,-3.3821,-3.4612,-3.4811,-3.5028,-3.5815,-3.5991,-3.5779,-3.4979,-3.4764,-3.4654,-3.4491,-3.5091,-3.4832,0.0,0.0,0.0,0.0,0.0,-3.006,0.0,0.0,0.0,0.0,-2.5701,0.0,0.0,-2.6203,0.0,0.0,0.0,0.0,-2.9255,-3.0239,-3.0709,-3.0641,-3.1352,-3.1295,-3.0513,-3.0436,-3.0398,-3.0398,-3.0398,-2.9486,-2.789,-2.7901,-2.7853,-2.7788,-2.8029,-2.9072,-3.052,-3.0588,-3.0598,-3.0598,-3.0606,-3.0604,-3.061,0.0,0.0,0.0,0.0,0.0,0.0,0.0,-2.7039,-2.6322,-2.585,-2.4867,-2.419,-2.419,-2.419,-2.4284,-2.451,-2.4591,-2.4749,-2.4985,-2.5393,-2.5457,-2.512,-2.5406,-2.5869,-2.6493,-2.6045,-2.645,0.0,0.0,0.0,0.0,0.0,0.0,0.0,0.0,-2.8058,-2.7959,-2.8644,-2.8646,-2.8218,-2.8591,-2.902,-2.9547,-2.9892,-3.0334,-3.081,-3.0793,-3.0801,-3.08,-3.08,-3.0808,-3.0864,-3.1217,-3.1315,-3.1499,-3.2366,-3.2627,-3.2732,-3.3269,-3.3406,-3.3487,-3.3821,-3.3919,-3.4153,-3.5018,-3.5213,-3.5115,-3.4764,-3.4705,-3.4693,-3.4707,-3.4972,-3.4886,-3.3827,0.0,0.0,0.0,0.0,0.0,0.0,0.0,0.0,0.0,0.0,0.0,0.0,0.0,0.0,0.0,0.0,0.0,-2.9214,0.0,-3.0447,-3.0469,-3.0779,-3.0737,-3.0398,-3.0398,-3.0398,-3.0398,-3.0398,-2.9486,-2.7871,-2.7351,-2.7411,-2.7942,-2.8492,-2.9419,-3.052,-3.0569,-3.0598,-3.0598,-3.0606,-3.0593,-3.061,-2.6881,0.0,-2.6795,0.0,-2.8191,-2.7713,-2.7619,-2.6868,-2.6063,-2.5309,-2.4527,-2.4074,-2.419,-2.419,-2.4266,-2.4478,-2.4559,-2.4704,-2.495,-2.5278,-2.5342,-2.5076,-2.5304,0.0,-2.6745,-2.6222,-2.6721,-2.8351,-2.6935,0.0,0.0,0.0,0.0,0.0,-2.8395,-2.8425,-2.7922,-2.8469,-2.8507,-2.8151,-2.7902,-2.8335,-2.9118,-2.9114,-2.9498,-3.0041,-3.0044,-3.0194,-3.0428,-3.0429,-3.0584,-3.0799,-3.0804,-3.0793,-3.0919,-3.1539,-3.1724,-3.1848,-3.2478,-3.2634,-3.2634,-3.2634,-3.2831,-3.3185,-3.3793,-3.4127,-3.4324,-3.4322,-3.4111,-3.4096,-3.4609,-3.4703,-3.4621,-3.4355,0.0,0.0,0.0,-3.0507,0.0,0.0,-2.7534,-2.6667,-2.5785,-2.5932,0.0,0.0,0.0,0.0,0.0,0.0,0.0,0.0,0.0,0.0,-3.0115,-3.0321,-3.0398,-3.0398,-3.0398,-3.0398,-3.0379,-2.989,-2.9025,-2.7852,-2.6986,-2.7083,-2.7961,-2.8849,-2.9718,-3.0501,-3.0559,-3.0569,-3.0598,-3.0606,-3.0604,-3.0602,-2.68,-2.7056,-2.7428,-2.8499,-2.8594,-2.8229,-2.7514,-2.6645,-2.5827,-2.5099,-2.4198,-2.3774,-2.4151,-2.419,-2.419,-2.419,-2.4444,-2.461,-2.4615,-2.5649,-2.5891,0.0,0.0,-2.5825,-2.5048,-2.5029,-2.5844,-2.7513,0.0,0.0,-2.8638,0.0,-2.7481,-2.7514,-2.7644,-2.7742,-2.7758,-2.7113,-2.7316,-2.8029,-2.7251,-2.7432,-2.8209,-2.8221,-2.8226,-2.8223,-2.8223,-2.8789,-2.9511,-2.9528,-3.0086,-3.0808,-3.0793,-3.0802,-3.0806,-3.0807,-3.0813,-3.0813,-3.0838,-3.0836,-3.0833,-3.0838,-3.1487,-3.2118,-3.2123,-3.2791,-3.3417,-3.3415,-3.2734,-3.2655,-3.4374,-3.4707,-3.4414,-3.3555,0.0,0.0,0.0,0.0,0.0,-2.8397,-2.7537,-2.6655,-2.5787,-2.6479,0.0,0.0,0.0,0.0,0.0,0.0,0.0,-2.8198,-2.8942,0.0,-2.9216,-2.9993,-3.0398,-3.0398,-3.0398,-3.0398,-3.034,-2.8698,-2.7909,-2.7852,-2.6986,-2.7083,-2.7961,-2.8837,-2.9717,-3.0491,-3.0491,-3.053,-3.0598,-3.0606,-3.0595,-3.0604,-2.7763,-2.787,-2.8022,-2.8378,-2.83,-2.7781,-2.6621,-2.6135,-2.5464,-2.4274,-2.3793,-2.3671,-2.3837,-2.3937,-2.4075,0.0,-2.4515,-2.4629,0.0,-2.5154,-2.5275,-2.501,-2.5256,-2.5522,-2.5825,-2.5825,-2.6375,-2.7494,0.0,0.0,0.0,-2.6852,-2.7037,-2.7561,-2.7707,-2.7475,-2.6969,-2.685,-2.6644,-2.637,-2.6124,-2.6543,-2.7312,-2.7301,-2.7682,-2.8189,-2.8209,-2.8762,-2.9492,-2.9492,-3.0077,-3.0794,-3.0806,-3.0794,-3.0798,-3.081,-3.0794,-3.0794,-3.0799,-3.0794,-3.0804,-3.0794,-3.1018,-3.1376,-3.1962,-3.2302,-3.2519,-3.2519,-3.2285,-3.2264,-3.2823,-3.3415,-3.3533,-3.2658,-3.2025,0.0,-3.0085,0.0,-2.7713,-2.744,-2.6641,-2.5995,-2.5737,-2.5947,0.0,0.0,0.0,0.0,0.0,0.0,0.0,0.0,-2.9756,0.0,-3.0094,-3.0304,-3.0379,-3.0336,-3.0379,-3.0398,-3.034,-2.8659,-2.789,-2.7852,-2.6986,-2.7083,-2.7961,-2.8839,-2.9708,-3.05,-3.055,-3.0559,-3.053,-3.0586,-3.0595,-3.0604,-2.8126,-2.8154,-2.8154,-2.8191,-2.7804,-2.7128,-2.6022,-2.5519,-2.486,-2.3715,-2.3468,-2.3468,-2.362,-2.3685,0.0,-2.4172,-2.4445,-2.4631,-2.4711,-2.4894,-2.501,-2.501,-2.501,-2.5237,-2.5749,-2.5749,0.0,-2.702,-2.6792,-2.6698,-2.6745,-2.6801,-2.6928,-2.7119,-2.7205,-2.6836,-2.6158,-2.6218,-2.6171,-2.606,-2.5729,-2.6129,-2.6854,-2.6545,-2.6751,-2.722,-2.7225,-2.7774,-2.8574,-2.8906,-2.9597,-3.0377,-3.0693,-3.0801,-3.0794,-3.0796,-3.0794,-3.0735,-3.0428,-3.0339,-3.015,-2.9533,-2.986,-3.0575,-3.1425,-3.1621,-3.1657,-3.1655,-3.1655,-3.1731,-3.2048,-3.2274,-3.2256,-3.1708,-3.0901,-3.0048,-2.9177,0.0,-2.7004,0.0,0.0,0.0,0.0,-2.6008,-2.6312,0.0,0.0,0.0,0.0,0.0,0.0,-2.9975,-3.038,-3.0428,-3.0091,-3.0318,-3.0243,-2.9883,-3.0237,-3.0398,-3.034,-2.8659,-2.789,-2.7871,-2.7323,-2.7412,-2.7991,-2.9187,-3.0018,-3.053,-3.0559,-3.0559,-3.054,-3.0568,-3.0606,-3.0577,-2.8042,-2.7975,-2.7929,0.0,-2.7222,0.0,-2.5614,-2.4864,-2.4123,-2.3395,-2.3193,-2.3193,-2.3448,-2.3448,-2.3544,-2.3834,0.0,0.0,0.0,-2.485,-2.4996,-2.501,-2.501,-2.501,-2.501,-2.501,-2.537,-2.6129,-2.6925,-2.7323,-2.7323,-2.7323,-2.6916,-2.6224,-2.6217,-2.591,-2.5387,-2.5337,-2.5894,-2.6747,-2.5931,-2.6087,-2.6728,-2.5919,-2.5609,-2.5607,-2.5595,-2.6201,-2.7102,-2.7851,-2.8763,-2.9708,-3.0404,-3.0674,-3.0732,-3.0784,-3.0796,-3.0618,-2.9823,-2.9556,-2.911,-2.7495,-2.8349,-2.9817,-3.0614,-3.086,-3.0899,-3.0899,-3.0899,-3.1114,-3.1875,-3.1309,-3.0701,-3.0701,-2.9982,-2.9142,-2.8323,-2.7464,-2.6917,0.0,0.0,0.0,-2.5701,-2.6439,-2.7266,0.0,0.0,0.0,0.0,0.0,-2.9991,-3.0693,-3.065,-3.0185,-2.9316,-3.004,-3.0028,-2.9293,-3.0029,-3.0398,-3.034,-2.8717,-2.7948,-2.789,-2.7902,-2.7894,-2.8029,-2.9708,-3.0472,-3.0588,-3.053,-3.053,-3.0598,-3.0598,-3.0598,-3.0569,0.0,0.0,-2.7847,-2.7189,-2.6869,-2.6231,-2.483,-2.4452,-2.4048,-2.3323,-2.3144,-2.3126,-2.3265,-2.3336,-2.343,-2.3504,-2.3901,-2.4247,-2.4512,-2.4676,-2.4846,-2.4996,-2.501,-2.501,-2.501,-2.501,-2.5105,-2.5294,-2.5479,-2.5587,-2.5587,-2.5633,-2.5564,-2.5387,-2.5447,-2.5405,-2.533,-2.541,-2.564,-2.5892,-2.5679,-2.5718,-2.5892,-2.5673,-2.5595,-2.5601,-2.5607,-2.658,-2.7824,-2.736,-2.8669,-3.0303,-2.9221,-2.9352,-3.0009,-3.0628,-3.0804,-3.0611,-2.9826,-2.9547,-2.9252,-2.8248,-2.8804,-2.9805,-3.0613,-3.0801,-3.0841,-3.0899,-3.0855,-3.0872,-3.1067,-3.0403,-2.9818,-2.9818,-2.8574,-2.7544,-2.7349,-2.6566,-2.6019,0.0,-2.5826,-2.5694,-2.57,-2.5898,-2.6367,0.0,0.0,0.0,-2.9754,-3.0264,-3.0303,-2.9829,-2.9741,-2.9294,-2.8424,-2.9145,-2.9708,-3.0125,-3.0314,-3.0398,-3.0359,-2.9294,-2.8467,-2.789,-2.7901,-2.7893,-2.7972,-2.9052,-2.9902,-3.053,-3.0559,-3.0559,-3.053,-3.0577,-3.0606,-3.0577,-2.7455,-2.7692,-2.7664,-2.6859,-2.6362,-2.5702,-2.4479,-2.3979,-2.3618,-2.3221,-2.3102,-2.3102,-2.3144,-2.3217,-2.3289,-2.3336,-2.3735,-2.4136,-2.4389,-2.4594,-2.4802,-2.4996,-2.501,-2.501,-2.501,-2.501,-2.501,-2.501,-2.5004,-2.4985,-2.4985,-2.505,-2.5044,-2.5057,-2.5082,-2.519,-2.5302,-2.5376,-2.5476,-2.5601,-2.5601,-2.5601,-2.5601,-2.5601,-2.5601,-2.5601,-2.5601,-2.6203,-2.6997,-2.6937,-2.7868,-2.8964,-2.8465,-2.8626,-2.9081,-2.9523,-2.9654,-2.9476,-2.8633,-2.8385,-2.8346,-2.8319,-2.8964,-2.9818,-3.0628,-3.0801,-3.0819,-3.0855,-3.0523,-3.025,-3.0206,-2.9194,-2.8357,-2.8357,-2.7266,-2.641,-2.641,-2.6,-2.5707,-2.5707,-2.5707,-2.5691,-2.5699,-2.5697,-2.6053,-2.6928,-2.7435,0.0,-2.9442,-2.9946,-2.9985,-2.9514,-2.9457,-2.8851,-2.7615,-2.8295,-2.9062,-2.9858,-3.0229,-3.0398,-3.0359,-2.9506,-2.8659,-2.789,-2.7902,-2.7894,-2.7972,-2.8869,-2.9757,-3.0559,-3.0588,-3.0588,-3.0559,-3.0588,-3.0559,-3.0501,-2.6651,-2.7056,-2.7214,-2.6571,-2.5797,-2.5042,-2.4409,-2.3628,-2.3095,-2.3095,-2.3095,-2.3095,-2.3095,-2.3095,-2.3144,-2.3265,-2.3649,-2.4002,-2.4264,-2.4491,-2.4738,-2.4996,-2.501,-2.501,-2.501,-2.501,-2.501,-2.501,-2.501,-2.501,-2.501,-2.501,-2.5004,-2.5012,-2.5025,-2.5153,-2.5293,-2.5331,-2.5445,-2.5601,-2.5601,-2.5601,-2.5601,-2.5601,-2.5601,-2.5601,-2.5601,-2.5676,-2.5887,-2.6503,-2.6916,-2.729,-2.7754,-2.8008,-2.8083,-2.7947,-2.7901,-2.7774,-2.7166,-2.6994,-2.7215,-2.8085,-2.8953,-2.9804,-3.0626,-3.0801,-3.076,-3.064,-3.0077,-2.9533,-2.935,-2.8047,-2.6997,-2.6997,-2.6273,-2.5707,-2.5707,0.0,-2.5707,-2.5707,-2.5707,-2.5691,-2.5698,-2.5694,-2.607,-2.6932,-2.7005,-2.7721,-2.9408,-2.9494,-2.9507,-2.9507,-2.9374,-2.8606,-2.716,-2.7835,-2.8586,-2.938,-3.0067,-3.0321,-3.0179,-2.9429,-2.8582,-2.7708,-2.7691,-2.7721,-2.7788,-2.855,-2.94,-3.0192,-3.0327,-3.0366,-3.0385,-3.054,-3.051,-3.0375,-2.6872,-2.6437,-2.6037,-2.58,-2.5146,-2.4572,-2.4321,-2.3628,-2.3095,-2.3095,-2.3095,-2.3095,-2.3095,-2.3095,-2.3119,-2.3144,-2.3295,-2.3649,-2.4174,-2.4246,-2.4489,-2.4977,-2.501,-2.501,-2.501,-2.501,-2.501,-2.501,-2.501,-2.501,-2.501,-2.501,-2.501,-2.5004,-2.5176,-2.5283,-2.5303,-2.5476,-2.5564,-2.5601,-2.5601,-2.5601,-2.5601,-2.5601,-2.5601,-2.5601,-2.5601,-2.6073,-2.6621,-2.6007,-2.6817,-2.7865,-2.6523,-2.66,-2.7058,-2.6327,-2.6107,-2.6221,-2.6837,-2.6991,-2.7219,-2.8071,-2.8964,-2.9804,-3.0626,-3.0801,-3.0606,-2.9923,-2.9689,-2.9377,-2.8613,-2.7678,-2.6997,-2.6997,-2.6273,-2.5707,-2.5707,0.0,-2.5707,-2.5707,-2.5707,-2.5707,-2.5709,-2.5697,-2.6052,-2.6932,-2.6992,-2.7731,-2.9413,-2.9497,-2.9499,-2.9503,-2.8794,-2.8213,-2.7852,-2.8625,-2.9418,-3.0229,-3.0333,-3.0006,-2.9294,-2.9159,-2.8255,-2.6794,-2.6805,-2.6834,-2.6891,-2.691,-2.7439,-2.8317,-2.9049,-2.9319,-2.9436,-3.0288,-3.0511,-3.0386,-2.617,-2.6162,-2.595,-2.505,-2.4627,-2.4214,-2.3741,-2.3348,-2.3095,-2.3095,-2.3095,-2.3095,-2.3095,-2.3095,-2.3095,-2.3095,-2.3168,-2.345,-2.4044,-2.4155,-2.4403,-2.4856,-2.4964,-2.501,-2.501,-2.501,-2.501,-2.501,-2.501,-2.501,-2.501,-2.501,-2.501,-2.501,-2.5134,-2.5233,-2.5313,-2.5434,-2.5525,-2.5601,-2.5601,-2.5601,-2.5601,-2.5601,-2.5595,-2.5609,-2.5609,-2.5861,-2.6145,-2.5746,-2.6189,-2.6758,-2.5955,-2.5973,-2.6214,-2.582,-2.5702,-2.5898,-2.6758,-2.6991,-2.72,-2.8088,-2.8964,-2.9569,-2.9474,-2.9826,-2.9923,-2.9079,-2.8535,-2.8088,-2.7674,-2.6895,-2.6293,-2.6293,-2.5961,0.0,-2.5707,-2.5707,-2.5707,-2.5707,-2.5707,-2.5709,-2.5694,-2.5696,-2.5874,-2.6268,-2.6738,-2.7341,-2.8103,-2.8989,-2.924,-2.8812,-2.8369,-2.8081,-2.7956,-2.8782,-2.9399,-2.9751,-3.019,-2.9948,-2.9102,-2.9102,-2.8179,-2.6601,-2.6641,-2.6641,-2.6582,-2.6553,-2.6993,-2.7746,-2.8161,-2.8345,-2.8441,-2.9355,-2.936,-2.8957,-2.5359,-2.557,-2.557,-2.4531,-2.4171,-2.3925,-2.3453,-2.3225,-2.3095,-2.3095,-2.3095,-2.3095,-2.3095,-2.3095,-2.3095,-2.3095,-2.3095,-2.3312,-2.3848,-2.3986,-2.43,-2.4827,-2.495,-2.501,-2.501,-2.501,-2.501,-2.501,-2.501,-2.501,-2.501,-2.501,-2.501,-2.4991,-2.5099,-2.5192,-2.5313,-2.5398,-2.5511,-2.5601,-2.5601,-2.5601,-2.5601,-2.5601,-2.5589,-2.5596,-2.5602,-2.5602,-2.5602,-2.5595,-2.5632,-2.5707,-2.5703,-2.5693,-2.5691,-2.5701,-2.5702,-2.5858,-2.6513,-2.685,-2.7166,-2.7822,-2.8654,-2.9121,-2.8459,-2.881,-2.9045,-2.8179,-2.7462,-2.6939,-2.6741,-2.614,-2.5694,-2.5694,0.0,-2.5677,-2.5709,-2.5694,-2.5677,-2.5709,-2.5694,-2.5681,-2.5703,-2.5702,-2.5701,-2.5703,-2.6328,-2.6774,-2.6939,-2.8335,-2.8999,-2.8721,-2.8502,-2.8303,-2.8193,-2.9033,-2.9456,-2.9454,-2.9883,-2.966,-2.8813,-2.8602,-2.7717,-2.6294,-2.6362,-2.6314,-2.62,-2.6241,-2.6542,-2.7001,-2.7255,-2.7344,-2.7452,-2.8319,-2.8173,-2.7674,-2.4662,-2.4159,-2.3892,-2.4417,-2.3855,-2.3559,-2.4128,-2.3576,-2.3095,-2.3095,-2.3095,-2.3095,-2.3095,-2.3095,-2.3095,-2.3095,-2.3095,-2.3223,-2.3508,-2.3606,-2.4042,-2.495,-2.4977,-2.501,-2.501,-2.501,-2.501,-2.501,-2.501,-2.501,-2.501,-2.501,-2.501,-2.501,-2.5198,-2.5303,-2.5322,-2.5498,-2.5595,-2.5601,-2.5601,-2.5601,-2.5601,-2.5601,-2.5589,-2.5602,-2.5595,-2.5609,-2.5602,-2.5595,-2.5634,-2.5697,-2.5703,-2.5704,-2.5703,-2.5694,-2.5709,-2.5712,-2.578,-2.6382,-2.7019,-2.7085,-2.7744,-2.8381,-2.8303,-2.8342,-2.8147,-2.7288,-2.7036,-2.6747,-2.5937,-2.5742,-2.5703,-2.5703,0.0,0.0,-2.5693,-2.5644,-2.5623,-2.5691,-2.5644,-2.5633,-2.5694,-2.5698,-2.5693,-2.5697,-2.5762,-2.6091,-2.6777,-2.774,-2.8888,-3.0199,-2.9573,-2.9157,-2.9019,-2.9802,-3.022,-3.0201,-2.9514,-2.8775,-2.7948,-2.7159,-2.6274,-2.5409,-2.5457,-2.5409,-2.5278,-2.5237,-2.5171,-2.5175,-2.5986,-2.6317,-2.6434,-2.7421,-2.7676,-2.7513,-2.4637,-2.43,-2.4034,-2.3742,-2.3435,-2.3323,-2.3506,-2.3312,-2.3095,-2.3095,-2.3095,-2.3119,-2.3168,-2.3102,-2.3119,-2.3168,-2.3102,-2.3271,-2.3646,-2.371,-2.4022,-2.467,-2.4889,-2.501,-2.501,-2.501,-2.501,-2.501,-2.501,-2.501,-2.501,-2.501,-2.501,-2.501,-2.5209,-2.5303,-2.5303,-2.5505,-2.5601,-2.5601,-2.5601,-2.5601,-2.5601,-2.5589,-2.5577,-2.5544,-2.5531,-2.5543,-2.5543,-2.5538,-2.5581,-2.5651,-2.5681,-2.5697,-2.5703,-2.5693,-2.5707,-2.5709,-2.5696,-2.5931,-2.632,-2.6866,-2.7253,-2.7344,-2.682,-2.7112,-2.7249,-2.6371,-2.6195,-2.608,-2.5754,-2.5702,-2.5702,-2.5709,0.0,-2.5659,-2.5642,-2.5655,-2.5668,-2.5633,-2.5613,-2.5612,-2.5643,-2.5632,-2.5644,-2.5645,-2.6142,-2.632,-2.6016,-2.7322,-2.851,-2.9505,-2.9778,-2.9894,-2.9781,-2.9627,-2.9524,-2.948,-2.8714,-2.7909,-2.7082,-2.6755,-2.612,-2.5303,-2.5234,-2.5171,-2.5068,-2.4949,-2.4861,-2.4798,-2.5196,-2.5338,-2.5428,-2.6379,-2.6393,-2.6018,-2.4282,-2.4176,-2.3974,-2.3353,-2.3241,-2.3193,-2.3144,-2.3102,-2.3095,-2.3095,-2.3119,-2.3144,-2.3168,-2.3144,-2.3144,-2.3168,-2.3144,-2.3295,-2.3664,-2.3795,-2.406,-2.454,-2.4783,-2.4936,-2.501,-2.501,-2.501,-2.501,-2.501,-2.501,-2.501,-2.501,-2.501,-2.501,-2.5209,-2.5303,-2.5303,-2.5505,-2.5601,-2.5601,-2.5601,-2.5595,-2.5595,-2.5602,-2.5564,-2.5505,-2.549,-2.5503,-2.5495,-2.5529,-2.5562,-2.5613,-2.5681,-2.5703,-2.5703,-2.5698,-2.5693,-2.5707,-2.5691,-2.5697,-2.5835,-2.6433,-2.6585,-2.6447,-2.5844,-2.6156,-2.641,-2.5824,-2.5707,-2.5707,-2.5707,-2.5682,-2.5677,-2.5707,-2.5684,-2.5661,-2.5622,-2.5651,-2.5648,-2.56,-2.5598,-2.5589,-2.557,-2.5592,-2.5582,-2.5571,-2.6146,-2.6316,-2.5895,-2.7171,-2.8123,-2.8587,-2.9442,-2.9736,-2.9421,-2.9443,-2.9161,-2.8581,-2.8103,-2.7407,-2.6561,-2.6292,-2.585,-2.5293,-2.516,-2.5061,-2.4994,-2.4869,-2.4775,-2.4707,-2.4734,-2.4779,-2.4869,-2.5465,-2.5409,-2.5072,-2.3494,-2.343,-2.3383,-2.3383,-2.3289,-2.3193,-2.3193,-2.3126,-2.3095,-2.3095,-2.3168,-2.3168,-2.3119,-2.3168,-2.3168,-2.3119,-2.3168,-2.3265,-2.3383,-2.3795,-2.4211,-2.4692,-2.4707,-2.4783,-2.4996,-2.501,-2.501,-2.501,-2.501,-2.501,-2.501,-2.501,-2.501,-2.5023,-2.5209,-2.5303,-2.5303,-2.5505,-2.5601,-2.5601,-2.5601,-2.5589,-2.5596,-2.5596,-2.5557,-2.5503,-2.5505,-2.5498,-2.5515,-2.5587,-2.5601,-2.5615,-2.5675,-2.5703,-2.5703,-2.5703,-2.5699,-2.5709,-2.5698,-2.57,-2.5698,-2.5709,-2.5707,-2.5707,-2.5707,-2.5707,-2.5707,-2.5707,-2.5707,-2.5707,-2.5707,-2.5644,-2.5622,-2.5682,-2.564,-2.562,-2.5681,-2.5648,-2.5596,-2.5596,-2.5601,-2.5576,-2.5519,-2.5553,-2.558,-2.5511,-2.5569,-2.5914,-2.6649,-2.7321,-2.7687,-2.7687,-2.8536,-2.8581,-2.7701,-2.9333,-2.934,-2.7687,-2.775,-2.7321,-2.6469,-2.5595,-2.5241,-2.5282,-2.516,-2.5069,-2.4994,-2.4861,-2.4764,-2.4707,-2.4707,-2.4753,-2.4794,-2.4794,-2.487,-2.4996,-2.3084,-2.3199,-2.3313,-2.3265,-2.3217,-2.3193,-2.3144,-2.3102,-2.3095,-2.3095,-2.3119,-2.3144,-2.3168,-2.3144,-2.3144,-2.3168,-2.3144,-2.3217,-2.3471,-2.3756,-2.4099,-2.4476,-2.4626,-2.4783,-2.4996,-2.501,-2.501,-2.501,-2.501,-2.501,-2.501,-2.501,-2.5044,-2.5075,-2.5222,-2.5331,-2.5382,-2.5525,-2.5595,-2.5602,-2.5602,-2.5577,-2.5518,-2.5524,-2.5529,-2.5495,-2.5495,-2.5507,-2.5499,-2.5519,-2.5565,-2.5602,-2.5673,-2.5703,-2.5703,-2.5703,-2.5703,-2.5702,-2.57,-2.57,-2.5698,-2.5709,-2.5707,-2.5707,-2.5707,-2.5707,-2.5709,-2.5696,-2.5697,-2.5696,-2.5709,-2.568,-2.5679,-2.5707,-2.5679,-2.5651,-2.563,-2.5621,-2.5582,-2.5534,-2.5534,-2.5507,-2.5492,-2.5519,-2.5519,-2.5511,-2.5434,-2.5495,-2.5707,-2.6397,-2.679,-2.679,-2.7619,-2.7676,-2.6803,-2.7325,-2.735,-2.6852,-2.6255,-2.5844,-2.5576,-2.5327,-2.5241,-2.5301,-2.5057,-2.4993,-2.4981,-2.4749,-2.4676,-2.4707,-2.4757,-2.4772,-2.4802,-2.4798,-2.4827,-2.4856,-2.296,-2.3151,-2.3336,-2.3313,-2.3265,-2.3241,-2.3217,-2.3193,-2.3168,-2.3126,-2.3168,-2.3193,-2.3193,-2.3193,-2.3193,-2.3241,-2.3241,-2.3336,-2.3517,-2.3795,-2.408,-2.4389,-2.4594,-2.4783,-2.4996,-2.501,-2.501,-2.501,-2.501,-2.501,-2.501,-2.501,-2.5038,-2.5091,-2.5203,-2.5303,-2.541,-2.5511,-2.5557,-2.557,-2.557,-2.5538,-2.5498,-2.5503,-2.5495,-2.5507,-2.5492,-2.5511,-2.5511,-2.5511,-2.5569,-2.564,-2.5691,-2.5703,-2.5703,-2.5702,-2.5703,-2.5703,-2.5702,-2.5702,-2.5702,-2.5698,-2.5696,-2.5693,-2.5693,-2.5691,-2.5709,-2.5696,-2.57,-2.5702,-2.5698,-2.57,-2.57,-2.5692,-2.5671,-2.5657,-2.5609,-2.5583,-2.5556,-2.5495,-2.5507,-2.5499,-2.5511,-2.5511,-2.5511,-2.5511,-2.5388,-2.5303,-2.5303,-2.6014,-2.6249,-2.5937,-2.6746,-2.6784,-2.5925,-2.5968,-2.5998,-2.5979,-2.5761,-2.5505,-2.5198,-2.5198,-2.5198,-2.5176,-2.4947,-2.4893,-2.4902,-2.4692,-2.4629,-2.4707,-2.4742,-2.4791,-2.4806,-2.4802,-2.4798,-2.4794,-2.2993,-2.3199,-2.3407,-2.3471,-2.3383,-2.3313,-2.3383,-2.3336,-2.3289,-2.3217,-2.3265,-2.3265,-2.3217,-2.3265,-2.3289,-2.3289,-2.3383,-2.3494,-2.3562,-2.3858,-2.4118,-2.4372,-2.4591,-2.4798,-2.4996,-2.501,-2.501,-2.501,-2.501,-2.501,-2.501,-2.501,-2.5044,-2.5106,-2.5163,-2.5284,-2.5404,-2.5464,-2.5492,-2.5492,-2.5492,-2.5498,-2.5495,-2.5495,-2.5507,-2.5511,-2.5511,-2.5511,-2.5492,-2.5499,-2.5599,-2.5699,-2.5694,-2.5703,-2.5703,-2.5694,-2.5699,-2.5703,-2.5703,-2.5703,-2.5703,-2.5703,-2.5703,-2.5701,-2.5701,-2.5696,-2.5691,-2.5693,-2.5702,-2.5703,-2.5703,-2.5703,-2.5697,-2.5707,-2.5639,-2.5615,-2.5615,-2.5557,-2.5505,-2.5503,-2.5495,-2.5507,-2.5492,-2.5511,-2.5511,-2.5511,-2.5388,-2.5303,-2.5313,-2.5937,-2.5956,-2.521,-2.5918,-2.5925,-2.521,-2.5191,-2.5191,-2.521,-2.5944,-2.5906,-2.518,-2.518,-2.5113,-2.4981,-2.4847,-2.479,-2.4775,-2.466,-2.4629,-2.4692,-2.4692,-2.4742,-2.4791,-2.4791,-2.4802,-2.4779,-2.2917,-2.3151,-2.3313,-2.3336,-2.3313,-2.3313,-2.3313,-2.3313,-2.3289,-2.3289,-2.3241,-2.3217,-2.3193,-2.3217,-2.3193,-2.3144,-2.3168,-2.3241,-2.336,-2.3803,-2.4137,-2.4247,-2.4682,-2.4959,-2.501,-2.501,-2.501,-2.501,-2.501,-2.501,-2.501,-2.501,-2.5057,-2.5173,-2.5194,-2.5302,-2.5471,-2.5492,-2.5505,-2.5503,-2.5503,-2.5495,-2.5492,-2.5492,-2.5492,-2.5511,-2.5511,-2.5511,-2.5499,-2.5505,-2.5598,-2.5694,-2.5703,-2.5703,-2.5703,-2.5703,-2.5699,-2.5696,-2.5703,-2.5703,-2.5703,-2.5703,-2.5703,-2.5703,-2.5703,-2.5703,-2.5703,-2.57,-2.5696,-2.5696,-2.5701,-2.5703,-2.5703,-2.5698,-2.5687,-2.5679,-2.568,-2.5576,-2.5492,-2.5505,-2.5495,-2.5492,-2.5511,-2.5511,-2.5511,-2.5511,-2.5388,-2.5322,-2.5389,-2.5442,-2.5375,-2.5206,-2.5375,-2.5382,-2.5191,-2.5191,-2.5191,-2.5191,-2.5382,-2.5297,-2.5051,-2.5051,-2.4993,-2.4912,-2.4716,-2.4666,-2.4712,-2.4578,-2.458,-2.4698,-2.4698,-2.4695,-2.4723,-2.4723,-2.4723,-2.4723,-2.2975,-2.3206,-2.3407,-2.3476,-2.3453,-2.343,-2.343,-2.343,-2.3407,-2.336,-2.3313,-2.3289,-2.3289,-2.3289,-2.3265,-2.3193,-2.3168,-2.3193,-2.3289,-2.3741,-2.4044,-2.4192,-2.4666,-2.4926,-2.501,-2.501,-2.501,-2.501,-2.501,-2.501,-2.501,-2.501,-2.5051,-2.5149,-2.5184,-2.5283,-2.5406,-2.5478,-2.5498,-2.5507,-2.551,-2.5503,-2.5499,-2.5499,-2.5499,-2.5499,-2.5492,-2.5511,-2.5499,-2.5492,-2.5593,-2.5697,-2.5703,-2.5703,-2.5703,-2.5703,-2.5702,-2.5699,-2.5699,-2.5702,-2.5703,-2.5703,-2.5703,-2.5703,-2.5703,-2.5703,-2.5703,-2.57,-2.5694,-2.5709,-2.5694,-2.5698,-2.5698,-2.5652,-2.5652,-2.5638,-2.5608,-2.5549,-2.5503,-2.5503,-2.5507,-2.5511,-2.5511,-2.5886,-2.5944,-2.553,-2.5763,-2.5755,-2.537,-2.5258,-2.5203,-2.5195,-2.5203,-2.5191,-2.5191,-2.5191,-2.5401,-2.5815,-2.5304,-2.5032,-2.4947,-2.4893,-2.4808,-2.4704,-2.4623,-2.4591,-2.4594,-2.4545,-2.4615,-2.4701,-2.4701,-2.4714,-2.4707,-2.4695,-2.4726,-2.4757,-2.3129,-2.333,-2.3585,-2.3678,-2.3652,-2.3585,-2.3585,-2.3585,-2.3539,-2.3424,-2.3383,-2.3383,-2.336,-2.336,-2.3336,-2.3289,-2.3217,-2.3217,-2.3265,-2.3653,-2.3984,-2.4137,-2.4588,-2.4856,-2.4964,-2.4996,-2.501,-2.501,-2.501,-2.501,-2.501,-2.501,-2.5031,-2.5094,-2.5182,-2.5245,-2.533,-2.5456,-2.549,-2.5499,-2.5498,-2.5498,-2.5495,-2.5495,-2.5495,-2.5488,-2.5492,-2.5511,-2.5511,-2.5492,-2.5582,-2.5681,-2.568,-2.5684,-2.5703,-2.5703,-2.5703,-2.5703,-2.5696,-2.57,-2.5703,-2.5703,-2.5703,-2.5703,-2.5703,-2.5703,-2.5703,-2.5703,-2.57,-2.5691,-2.5691,-2.5709,-2.574,-2.5811,-2.5691,-2.5629,-2.5723,-2.5604,-2.5557,-2.5693,-2.5712,-2.5732,-2.5732,-2.6386,-2.6568,-2.5991,-2.6494,-2.6525,-2.5813,-2.5713,-2.5589,-2.5436,-2.5432,-2.5421,-2.5421,-2.5421,-2.5865,-2.6699,-2.5773,-2.5262,-2.5096,-2.4817,-2.4607,-2.4497,-2.4545,-2.4528,-2.4482,-2.4549,-2.4615,-2.4682,-2.4666,-2.4679,-2.4692,-2.4714,-2.4729,-2.4772,-2.3616,-2.3638,-2.3678,-2.37,-2.3652,-2.3585,-2.3585,-2.3539,-2.3494,-2.3407,-2.3336,-2.3289,-2.3241,-2.3168,-2.3168,-2.3217,-2.3144,-2.3119,-2.3144,-2.3671,-2.3983,-2.3945,-2.4556,-2.487,-2.4827,-2.495,-2.501,-2.501,-2.501,-2.501,-2.501,-2.501,-2.5031,-2.5094,-2.5182,-2.5274,-2.5395,-2.5464,-2.5498,-2.5495,-2.5505,-2.549,-2.5492,-2.5488,-2.5507,-2.5492,-2.5492,-2.5511,-2.5492,-2.5507,-2.5556,-2.5615,-2.5603,-2.5644,-2.5701,-2.5701,-2.5703,-2.5703,-2.5703,-2.5703,-2.5703,-2.5703,-2.5703,-2.5703,-2.5694,-2.57,-2.5703,-2.5703,-2.5703,-2.5703,-2.5699,-2.5693,-2.5941,-2.67,-2.6126,-2.5851,-2.6618,-2.6018,-2.5774,-2.6524,-2.6614,-2.6626,-2.6626,-2.6722,-2.7059,-2.7702,-2.7779,-2.7763,-2.7644,-2.7576,-2.7198,-2.6418,-2.6362,-2.6324,-2.6324,-2.6324,-2.6768,-2.7616,-2.7243,-2.6673,-2.592,-2.5027,-2.4549,-2.4411,-2.4411,-2.4411,-2.4412,-2.4482,-2.4549,-2.4615,-2.4547,-2.4613,-2.4707,-2.4692,-2.4707,-2.4707,-2.37,-2.3721,-2.3721,-2.3768,-2.3743,-2.3696,-2.3674,-2.3607,-2.3517,-2.3407,-2.336,-2.3336,-2.3265,-2.3193,-2.3168,-2.3193,-2.3168,-2.3144,-2.3095,-2.3646,-2.3921,-2.3905,-2.4424,-2.4738,-2.4734,-2.4827,-2.4889,-2.4889,-2.4964,-2.501,-2.501,-2.501,-2.5023,-2.5057,-2.519,-2.5274,-2.5293,-2.5476,-2.5531,-2.5503,-2.5538,-2.5531,-2.551,-2.5498,-2.5503,-2.5507,-2.5507,-2.5507,-2.5507,-2.549,-2.5531,-2.5599,-2.56,-2.5654,-2.5694,-2.5694,-2.5696,-2.5698,-2.5698,-2.5702,-2.5703,-2.5703,-2.5703,-2.5703,-2.5691,-2.5694,-2.57,-2.5703,-2.5703,-2.5703,-2.5703,-2.6092,-2.654,-2.6891,-2.7004,-2.7167,-2.752,-2.7203,-2.7094,-2.7469,-2.7528,-2.754,-2.754,-2.7973,-2.8214,-2.8117,-2.8501,-2.8504,-2.8039,-2.7942,-2.7499,-2.6631,-2.7035,-2.7052,-2.6551,-2.7039,-2.7723,-2.8571,-2.7774,-2.6919,-2.6027,-2.5471,-2.4873,-2.4284,-2.4412,-2.4393,-2.4358,-2.4464,-2.4513,-2.4547,-2.4512,-2.4545,-2.4645,-2.4692,-2.4723,-2.4757]}]]